     2              OBSERVATION DATA    GPS                 RINEX VERSION / TYPE
teqc 2002Apr3 20070227 22:03:23UTC                          PGM / RUN BY / DATE
                                                            COMMENT
L2: 1 -> 1; 150 -> 5; 250 -> 9                              COMMENT
L2: 1 -> 1; 150 -> 5; 250 -> 9                              COMMENT
L2: 1 -> 1; 150 -> 5; 250 -> 9                              COMMENT
L2: 1 -> 1; 150 -> 5; 250 -> 9                              COMMENT
L2: 1 -> 1; 150 -> 5; 250 -> 9                              COMMENT
Original Marker Name: SABR                                  COMMENT
Campaign Name: Painted Canyon Array                         COMMENT
4-Character Station Name: SABR                              COMMENT
6-Character Antenna Code: DMRCHT                            COMMENT
Vertical Measurement Point: BCR                             COMMENT
Vertical Offset to Rinex Ref. Point: 0.0348                 COMMENT
Radial Measurement Point: ECF                               COMMENT
Radial Offset to Rinex Ref. Point: 0.1897                   COMMENT
Antenna Height from Field Measurement: 1.1220 m             COMMENT
Additional Antenna Identification Info.:                    COMMENT
Turborogue and Ashtech Choke Ring                           COMMENT
Original XYZ: 0.0000 0.0000 0.0000                          COMMENT
New XYZ position is based on association with SCEC monument COMMENT
E1D0K9V3+0011. Position of that monument is believed to be  COMMENT
valid to within 1 m horizontally; vertical accuracy         COMMENT
should be no worse than 3-times this value.                 COMMENT
                                                            COMMENT
Revised Rinex header created by UCSD GPS archive for        COMMENT
GSAC on 09-Jun-2007 (2007:160) 17:14:26 GMT                 COMMENT
For assistance contact dagnew@ucsd.edu                      COMMENT
or anderson@python.ucsd.edu                                 COMMENT
                                                            COMMENT
SALT BUR RECLAM                                             MARKER NAME
-Unknown- SCRIPPS INSTITUTION OF OCEANOGRAPHY               OBSERVER / AGENCY
189 ASHTECH Z-XII3 CC00                                     REC # / TYPE / VERS
001 DORNE-MARGOL. TYPE T                                    ANT # / TYPE
 -2333646.0000 -4779129.0000  3508785.0000                  APPROX POSITION XYZ
        1.0710        0.0000        0.0000                  ANTENNA: DELTA H/E/N
     1     1     0                                          WAVELENGTH FACT L1/2
     7    C1    L1    L2    P1    P2    S1    S2            # / TYPES OF OBSERV
    30                                                      INTERVAL
  2007     2    17    16    24   15.000000                  TIME OF FIRST OBS
  2007     2    18     0     0   45.000000                  TIME OF LAST OBS
                                                            END OF HEADER
 07  2 17 16 24 15.0000000  0  1G 2
                     -2542.191 9    552374.344 1
       244.000
 07  2 17 16 24 20.0000000  0  1G 2
                     -4578.01449     -1386.97844                  18633042.1164
       243.0004        127.0004
 07  2 17 16 24 25.0000000  0  3G 2G 5G 9
                     -6601.39249     -2963.56546                  18632658.8804
       244.0004        183.0004
                     -2261.63519     90982.597 1
       233.000
                     13023.59619    157019.989 1
       227.000
 07  2 17 16 24 30.0000000  0  4G 2G 5G 9G12
                     -8610.24749     -4528.91547                  18632276.4274
       243.0004        196.0004
                    -12961.58649     -3927.86543
       234.0004         74.0004
                     26753.65549      5031.79143
       227.0004         74.0004
                    -21593.35119     75265.373 1
       239.000
 07  2 17 16 24 35.0000000  0  4G 2G 5G 9G12
                    -10603.72249     -6082.27947                  18631897.1474
       244.0004        204.0004
                    -23650.51349    -12256.86245                  19573810.3504
       234.0004        146.0004
                     40493.51049     15757.12143
       227.0004         74.0004
                    -31361.58649     -2002.84143
       238.0004         74.0004
 07  2 17 16 24 40.0000000  0  6G30G 2G 5G24G 9G12
                    -23284.71919      6082.279 1
       212.000
                    -12580.29649     -7622.46747                  18631521.0894
       244.0004        208.0004
                    -34326.90149    -20576.13746                  19571778.2724
       236.0004        168.0004
                    -28744.39859      -719.58943
       210.0004         74.0004
                     54244.68249     26486.47243
       227.0004         74.0004
                    -41117.92149     -9605.02745                  19547721.2374
       237.0004        152.0004
 07  2 17 16 24 45.0000000  0  6G30G 2G 5G24G 9G12
                    -39759.68249    -13533.87443
       214.0004         74.0004
  18631144.1644     -14545.83149     -9154.05347  18631144.2374   18631146.9624
       244.0004        211.0004
                    -44996.62449    -28890.20546                  19569748.1894
       235.0004        177.0004
                    -45764.25249    -13981.99743
       210.0004         74.0004
                     68001.29349     37219.49043
       226.0004         74.0004
                    -50868.73649    -17203.07246                  19545865.4734
       237.0004        176.0004
 07  2 17 16 24 50.0000000  0  6G30G 2G 5G24G 9G12
                    -56230.07249    -26367.93743
       210.0004         74.0004
  18630773.2494     -16496.33249    -10673.92648  18630773.0344   18630775.8064
       244.0004        213.0004
                    -55655.62449    -37195.91546                  19567719.6904
       235.0004        182.0004
                    -62776.87849    -27238.59043
       212.0004         74.0004
                     81767.28149     47959.63543
       228.0004         74.0004
                    -60609.99149    -24793.66746                  19544011.7024
       237.0004        186.0004
 07  2 17 16 24 55.0000000  0  6G30G 2G 5G24G 9G12
                    -72693.66249    -39196.70643
       212.0004         74.0004
  18630405.2424     -18429.48649    -12180.28248  18630405.1594   18630407.8934
       244.0004        214.0004
                    -66301.60049    -45491.48246                  19565693.8844
       236.0004        186.0004
                    -79779.82449    -40487.63743
       208.0004         74.0004
                     95545.02349     58709.25643
       227.0004         74.0004
                    -70339.34749    -32374.98347                  19542160.2234
       238.0004        192.0004
 07  2 17 16 25  0.0000000  0  6G30G 2G 5G24G 9G12
                    -89151.20949    -52020.76643
       211.0004         74.0004
  18630040.5134     -20346.08649    -13673.73748  18630040.4614   18630043.2224
       244.0004        216.0004
  19563665.3154     -76935.31849    -53777.49847  19563665.0764   19563670.3814
       236.0004        188.0004
                    -96773.96949    -53729.82543
       210.0004         74.0004
                    109333.68949     69467.24543
       227.0004         74.0004
                    -80057.61049    -39947.65647                  19540311.0284
       238.0004        195.0004
 07  2 17 16 25  5.0000000  0  3G 2G 5G 9
  20428433.8774     -22245.57949    -15153.86048  20428433.8104   20428436.5194
       244.0004        216.0004
  21360400.8314     -87545.78149    -62045.38247  21360400.5724   21360405.7224
       234.0004        189.0004
                    123114.93649     80218.97243
       226.0004         74.0004
 07  2 17 16 25 10.0000000  0  3G 2G 5G 9
  20428075.3704     -24129.93149    -16622.18848  20428075.2284   20428077.9454
       244.0004        217.0004
  21358381.8714     -98155.82249    -70312.94647  21358381.6504   21358386.7394
       234.0004        190.0004
                    136924.47649     90993.07743
       227.0004         74.0004
 07  2 17 16 25 15.0000000  0  3G 2G 5G 9
  20427719.6444     -25998.01449    -18077.83748  20427719.7944   20427722.3974
       244.0004        217.0004
  21356365.0684    -108753.91349    -78571.20647  21356364.7964   21356370.0104
       234.0004        191.0004
                    150744.54049    101775.72543
       228.0004         74.0004
 07  2 17 16 25 20.0000000  0  3G 2G 5G 9
  20427367.2984     -27850.31449    -19521.18848  20427367.2684   20427369.9724
       244.0004        218.0004
  21354350.7124    -119340.53149    -86820.51847  21354350.3714   21354355.6684
       234.0004        192.0004
                    164574.63449    112566.17743
       227.0004         74.0004
 07  2 17 16 25 25.0000000  0  3G 2G 5G 9
  20427017.7134     -29686.38949    -20951.89548  20427017.8604   20427020.5574
       244.0004        218.0004
  21352338.5144    -129915.13949    -95060.46947  21352337.9844   21352343.4964
       235.0004        192.0004
                    178415.27649    123364.26143
       227.0004         74.0004
 07  2 17 16 25 30.0000000  0  3G 2G 5G 9
  20426671.9204     -31505.66749    -22369.51548  20426671.7194   20426674.2574
       244.0004        218.0004
  21350328.2644    -140477.18549   -103290.62447  21350328.4454   21350333.6484
       234.0004        193.0004
                    192267.03649    134169.69343
       227.0004         74.0004
 07  2 17 16 25 35.0000000  0  7G30G 2G 5G 4G24G 9G12
                   -204178.09149   -141652.14843
       215.0004         74.0004
  20426328.7204     -33309.51449    -23775.11248  20426328.5774   20426331.1564
       244.0004        219.0004
  21348320.5134    -151028.03249   -111512.06747  21348320.1064   21348325.6194
       235.0004        193.0004
  21968646.6104     168510.22559    123650.95246  21968647.4824   21968652.2404
       232.0004        184.0004
                   -215478.24449   -146226.27343
       209.0004         74.0004
                    206128.49749    144982.05243
       226.0004         74.0004
  21326175.3054    -147775.48349    -92714.82447  21326175.6664   21326179.4944
       238.0004        204.0004
 07  2 17 16 25 40.0000000  0  7G30G 2G 5G 4G24G 9G12
                   -220591.61049   -154441.88643
       217.0004         74.0004
  20425988.0634     -35098.24449    -25168.92748  20425988.1334   20425990.6824
       245.0004        219.0004
  21346314.9344    -161567.93049   -119724.97647  21346314.7044   21346320.1274
       234.0004        193.0004
  21971123.1814     181521.73749    133789.78546  21971123.1684   21971128.7584
       233.0004        185.0004
                   -232406.04049   -159416.77143
       210.0004         74.0004
                    219999.37149    155801.75243
       228.0004         74.0004
  21324342.1374    -157409.12049   -100221.56147  21324342.5254   21324346.3074
       239.0004        204.0004
 07  2 17 16 25 45.0000000  0  7G30G 2G 5G 4G24G 9G12
                   -236998.87449   -167226.75544                  23395432.5124
       216.0004        117.0004
  20425651.0184     -36870.28749    -26549.73948  20425650.8964   20425653.4694
       244.0004        219.0004
  21344311.5074    -172095.36149   -127928.16247  21344311.4314   21344316.6664
       234.0004        193.0004
  21973600.8954     194544.43449    143937.33946  21973601.4924   21973606.3884
       232.0004        185.0004
                   -249324.83449   -172600.24443
       209.0004         74.0004
                    233881.17949    166629.46843
       226.0004         74.0004
  21322511.0424    -167031.44049   -107719.46947  21322511.4234   21322515.3404
       239.0004        204.0004
 07  2 17 16 25 50.0000000  0  7G30G 2G 5G 4G24G 9G12
                   -253398.66049   -180005.80145                  23392311.7944
       217.0004        134.0004
  20425317.2734     -38624.38949    -27916.57148  20425317.1674   20425319.8254
       244.0004        219.0004
  21342310.8824    -182609.06849   -136120.67147  21342310.2864   21342315.9004
       234.0004        194.0004
  21976081.3404     207579.49049    154094.52646  21976081.4954   21976087.0564
       232.0004        186.0004
                   -266233.34649   -185775.70944                  23566187.7104
       211.0004        106.0004
                    247775.09249    177465.26543
       227.0004         74.0004
  21320682.4974    -176641.17549   -115207.56847  21320682.7484   21320686.6994
       238.0004        205.0004
 07  2 17 16 25 55.0000000  0  7G30G 2G 5G 4G24G 9G12
                   -269793.86649   -192781.27345                  23389192.1054
       218.0004        143.0004
  20424986.2994     -40363.53749    -29271.74948  20424986.1064   20424988.7994
       244.0004        219.0004
  21340312.4514    -193112.00149   -144304.77347  21340312.0194   21340317.1964
       235.0004        194.0004
  21978563.7104     220623.91549    164259.00946  21978564.1074   21978569.2714
       231.0004        186.0004
                   -283134.55249   -198945.48344                  23562971.6754
       212.0004        125.0004
                    261678.11349    188307.57043
       226.0004         74.0004
  21318855.4314    -186241.29849   -122688.18647  21318855.9634   21318859.9944
       238.0004        205.0004
 07  2 17 16 26  0.0000000  0  7G30G 2G 5G 4G24G 9G12
                   -286183.71749   -205552.57945                  23386073.0014
       218.0004        148.0004
  20424658.3634     -42086.86649    -30614.60548  20424658.1934   20424660.9854
       244.0004        219.0004
  21338315.6084    -203603.27049   -152479.78147  21338315.4924   21338321.0114
       234.0004        194.0004
  21981047.9684     233678.55349    174431.45346  21981048.3974   21981053.8134
       232.0004        186.0004
                   -300027.52049   -212108.83445                  23559756.6274
       214.0004        134.0004
                    275591.14349       628.48443
       227.0004         74.0004
  21317030.7584    -195830.92249   -130160.61747  21317031.3364   21317035.0244
       239.0004        205.0004
 07  2 17 16 26  5.0000000  0  7G30G 2G 5G 4G24G 9G12
  23382950.6284    -302565.44349   -218317.55045  23382950.3304   23382955.4594
       218.0004        151.0004
  20424333.9274     -43791.70949    -31943.05348  20424333.8484   20424336.5204
       244.0004        219.0004
  21336321.8064    -214080.20549   -160643.63047  21336321.8124   21336327.1304
       234.0004        194.0004
  21983534.2814     246746.08949    184613.94746  21983535.5354   21983540.2794
       232.0004        186.0004
                   -316909.58449   -225263.68445                  23556544.1284
       214.0004        139.0004
                    289516.86249     11479.73144                  22652857.7474
       226.0004        114.0004
  21315208.4764    -205407.36049   -137622.77847  21315209.0784   21315212.5714
       238.0004        205.0004
 07  2 17 16 26 10.0000000  0  7G30G 2G 5G 4G24G 9G12
  23379834.3974    -318941.41949   -231078.05345  23379834.8574   23379839.4664
       216.0004        153.0004
  20424012.5404     -45480.45349    -33258.95948  20424012.4404   20424015.1174
       244.0004        219.0004
  21334330.3814    -224545.15249   -168798.13147  21334330.4404   21334335.7704
       234.0004        194.0004
  21986022.8564     259824.15049    194804.64346  21986023.5434   21986029.0824
       232.0004        186.0004
                   -333783.14549   -238411.91445                  23553333.4134
       212.0004        142.0004
                    303452.88649     22338.90545                  22655507.7554
       226.0004        146.0004
  21313388.2554    -214972.99549   -145076.52447  21313388.5584   21313392.3724
       239.0004        206.0004
 07  2 17 16 26 15.0000000  0  7G30G 2G 5G 4G24G 9G12
  23376718.6844    -335311.52949   -243833.97945  23376719.5044   23376724.7164
       218.0004        155.0004
  20423694.2764     -47152.99249    -34562.23648  20423694.1214   20423696.8654
       244.0004        219.0004
  21332341.2934    -234998.04149   -176943.24247  21332341.2274   21332346.8194
       234.0004        195.0004
  21988513.5034     272912.76449    205003.55746  21988514.6684   21988519.3674
       231.0004        186.0004
  23550116.6724    -350648.09549   -251553.42745  23550116.5244   23550123.9344
       213.0004        144.0004
                    317399.25549     33206.20545                  22658161.2874
       226.0004        158.0004
  21311570.0694    -224527.72549   -152521.76647  21311570.4674   21311574.2244
       238.0004        206.0004
 07  2 17 16 26 20.0000000  0  7G30G 2G 5G 4G24G 9G12
  23100080.8054   -1789051.99649  -1376618.76345  23100082.1164   23100087.5924
       217.0004        156.0004
  20149855.9764   -1486182.82249  -1155884.18248  20149855.8054   20149858.5034
       244.0004        219.0004
  21056831.1284   -1682813.96449  -1305111.49647  21056830.9994   21056836.6844
       235.0004        195.0004
  21717483.6554   -1151358.82449   -904818.46346  21717484.9884   21717489.5994
       232.0004        186.0004
  23273385.5324   -1804880.68649  -1384721.67545  23273384.7014   23273392.5144
       211.0004        146.0004
                  -1106014.70149  -1075947.53046                  22387294.4894
       226.0004        164.0004
  21036230.5714   -1671446.49449  -1279990.93847  21036230.7904   21036234.6874
       240.0004        206.0004
 07  2 17 16 26 25.0000000  0  7G30G 2G 5G 4G24G 9G12
  23097017.3884   -1805149.81849  -1389162.52045  23097018.6574   23097023.7714
       216.0004        157.0004
  20149593.4484   -1487562.36649  -1156959.14948  20149593.4574   20149596.0454
       244.0004        219.0004
  21054896.2214   -1692982.11749  -1313034.73147  21054896.2894   21054901.7814
       234.0004        195.0004
  21720028.0074   -1137988.42549   -894399.97646  21720029.2074   21720033.8684
       233.0004        186.0004
  23270229.2524   -1821467.81849  -1397646.70845  23270228.4564   23270236.1704
       214.0004        147.0004
                  -1091787.11349  -1064861.09746                  22390001.5954
       226.0004        168.0004
  21034466.1244   -1680718.80649  -1287216.11847  21034466.4224   21034470.1074
       239.0004        206.0004
 07  2 17 16 26 30.0000000  0  7G30G 2G 5G 4G24G 9G12
  23093954.9234   -1821243.11649  -1401702.75145  23093955.5874   23093961.2114
       218.0004        158.0004
  20149333.7504   -1488927.05849  -1158022.54548  20149333.6274   20149336.2324
       244.0004        219.0004
  21052963.3764   -1703139.51649  -1320949.59047  21052963.4674   21052968.4064
       235.0004        195.0004
  21722574.0984   -1124608.87249   -883974.36746  21722574.6544   21722579.9104
       230.0004        186.0004
  23267074.2294   -1838047.62149  -1410566.03045  23267073.8604   23267081.3334
       211.0004        148.0004
  22392705.0454   -1077550.56649  -1053767.70246  22392704.8434   22392711.1544
       227.0004        170.0004
  21032703.4624   -1689981.50549  -1294433.80647  21032703.8224   21032707.7444
       241.0004        206.0004
 07  2 17 16 26 35.0000000  0  7G30G 2G 5G 4G24G 9G12
  23090893.4304   -1837331.40149  -1414239.07745  23090893.7174   23090899.0844
       215.0004        157.0004
  20149076.9464   -1490276.50649  -1159074.06248  20149076.8244   20149079.5234
       243.0004        219.0004
  21051032.6344   -1713285.75149  -1328855.75947  21051032.7434   21051038.0144
       238.0004        196.0004
  21725122.0184   -1111219.73049   -873541.28046  21725122.7114   21725128.2114
       231.0004        185.0004
  23263920.6514   -1854619.73449  -1423479.36245  23263919.8934   23263927.9444
       208.0004        150.0004
  22395415.9454   -1063304.63149  -1042666.99246  22395416.6464   22395422.1894
       228.0004        172.0004
  21030942.7404   -1699234.20149  -1301643.70047  21030943.0214   21030946.8834
       240.0004        206.0004
 07  2 17 16 26 40.0000000  0  7G30G 2G 5G 4G24G 9G12
  23087832.8184   -1853415.25649  -1426771.94145  23087833.3764   23087838.4244
       215.0004        156.0004
  20148822.9724   -1491611.20149  -1160114.08648  20148822.9004   20148825.7284
       244.0004        219.0004
  21049103.9514   -1723421.21849  -1336753.52047  21049103.8494   21049109.4814
       233.0004        196.0004
  21727671.6814   -1097821.42849   -863101.01846  21727672.3854   21727677.3664
       228.0004        185.0004
  23260768.3994   -1871184.56849  -1436387.01445  23260767.6064   23260776.1384
       213.0004        150.0004
  22398128.5214   -1049049.82749  -1031559.34646  22398129.1384   22398134.7304
       226.0004        174.0004
  21029183.8244   -1708477.28149  -1308846.09247  21029184.1394   21029188.0264
       239.0004        206.0004
 07  2 17 16 26 45.0000000  0  7G30G 2G 5G 4G24G 9G12
  23084773.0064   -1869495.01949  -1439301.63245  23084773.6344   23084779.2044
       218.0004        157.0004
  20148571.7174   -1492931.54949  -1161142.93148  20148571.5544   20148574.2834
       244.0004        219.0004
  21047177.2334   -1733546.39949  -1344643.25947  21047177.1124   21047182.7054
       235.0004        196.0004
  21730223.0154   -1084414.43649   -852654.02646  21730223.7694   21730228.5904
       230.0004        184.0004
  23257617.4874   -1887742.52449  -1449289.31145  23257617.0874   23257625.2664
       214.0004        151.0004
  22400842.7364   -1034786.54949  -1020445.11346  22400842.8294   22400848.8224
       226.0004        175.0004
  21027426.6274   -1717711.24649  -1316041.40047  21027426.9654   21027430.8894
       239.0004        206.0004
 07  2 17 16 26 50.0000000  0  7G30G 2G 5G 4G24G 9G12
  23081714.0174   -1885570.24149  -1451827.78445  23081714.5814   23081720.2664
       218.0004        159.0004
  20148323.2814   -1494237.10649  -1162160.24948  20148323.2064   20148325.9794
       243.0004        219.0004
  21045252.5754   -1743660.83049  -1352524.63847  21045252.5654   21045257.9634
       235.0004        196.0004
  21732776.0364   -1070998.31249   -842199.90646  21732776.5324   21732781.8074
       230.0004        185.0004
  23254467.9984   -1904293.20349  -1462185.93845  23254467.7674   23254475.2224
       215.0004        152.0004
  22403558.6384   -1020514.39249  -1009323.96146  22403558.8294   22403564.4454
       226.0004        175.0004
  21025671.2824   -1726935.66549  -1323229.26547  21025671.6204   21025675.4594
       238.0004        206.0004
 07  2 17 16 26 55.0000000  0  7G30G 2G 5G 4G24G 9G12
  23078655.8314   -1901641.41949  -1464350.77545  23078656.3094   23078661.4764
       217.0004        160.0004
  20148077.5684   -1495528.35449  -1163166.41448  20148077.4064   20148080.2734
       243.0004        219.0004
  21043329.8284   -1753764.96349  -1360397.99547  21043329.5164   21043335.0884
       234.0004        196.0004
  21735330.7344   -1057573.54749   -831739.04646  21735331.4834   21735336.4504
       230.0004        184.0004
  23251319.8114   -1920837.07249  -1475077.25745  23251319.5564   23251326.9764
       216.0004        153.0004
  22406276.1134   -1006233.90549   -998196.30646  22406276.2984   22406282.1674
       227.0004        176.0004
  21023917.6554   -1736150.95149  -1330409.98947  21023917.8954   21023921.8714
       238.0004        206.0004
 07  2 17 16 27  0.0000000  0  7G30G 2G 5G 4G24G 9G12
  23075598.4864   -1917708.16349  -1476870.31045  23075599.0854   23075604.3704
       218.0004        160.0004
  20147834.6284   -1496804.97949  -1164161.18648  20147834.4844   20147837.1054
       243.0004        219.0004
  21041409.1184   -1763858.48349  -1368263.07347  21041409.0164   21041414.5154
       235.0004        196.0004
  21737887.0894   -1044139.90749   -821271.29946  21737887.9634   21737892.5824
       231.0004        184.0004
  23248172.9994   -1937373.78549  -1487963.00245  23248172.5454   23248180.0384
       214.0004        153.0004
  22408995.2484    -991944.74149   -987061.89746  22408995.2654   22409001.3394
       225.0004        176.0004
  21022165.8394   -1745356.77449  -1337583.37147  21022166.2674   21022170.0404
       239.0004        206.0004
 07  2 17 16 27  5.0000000  0  7G30G 2G 5G 4G24G 9G12
  23072541.9614   -1933770.57349  -1489386.46345  23072542.3714   23072547.6334
       221.0004        160.0004
  20147594.4654   -1498067.05449  -1165144.62248  20147594.3814   20147597.0024
       244.0004        219.0004
  21039490.3914   -1773941.45149  -1376119.93647  21039490.3444   21039495.7754
       235.0004        196.0004
  21740445.1174   -1030697.43949   -810796.65146  21740445.4034   21740451.0754
       229.0004        184.0004
  23245027.5184   -1953903.45349  -1500843.26445  23245027.0934   23245035.1324
       214.0004        153.0004
  22411716.0174    -977647.02849   -975920.83646  22411716.6314   22411722.1814
       224.0004        177.0004
  21020415.8094   -1754553.27449  -1344749.48047  21020416.1394   21020419.8724
       240.0004        207.0004
 07  2 17 16 27 10.0000000  0  8G30G 2G17G 5G 4G24G 9G12
  23069486.1584   -1949829.25749  -1501899.71245  23069486.4074   23069491.5894
       216.0004        160.0004
  20147356.9484   -1499315.17849  -1166117.18048  20147356.9454   20147359.7304
       245.0004        219.0004
                  -1285449.31159  -1017143.59743
       205.0004         74.0004
  21037573.5914   -1784014.47149  -1383969.03247  21037573.2614   21037578.7634
       235.0004        196.0004
  21743004.7224   -1017246.71549   -800315.56846  21743005.7504   21743010.3094
       232.0004        184.0004
  23241883.2324   -1970426.63749  -1513718.46445  23241882.3004   23241891.1834
       203.0004        152.0004
  22414438.2884    -963341.39349   -964773.58446  22414438.6574   22414444.5304
       224.0004        176.0004
  21018667.4304   -1763740.92349  -1351908.68047  21018667.9294   21018671.7244
       238.0004        207.0004
 07  2 17 16 27 15.0000000  0  8G30G 2G17G 5G 4G24G 9G12
  23066431.1014   -1965883.73349  -1514409.68745  23066431.4324   23066436.8174
       219.0004        159.0004
  20147122.1484   -1500548.93149  -1167078.54948  20147122.1184   20147125.0634
       244.0004        219.0004
                  -1273261.15149  -1007646.23243
       207.0004         74.0004
  21035658.7234   -1794077.10149  -1391810.04347  21035658.6074   21035664.0364
       233.0004        195.0004
  21745565.9534   -1003787.43349   -789827.79146  21745566.7274   21745571.9644
       231.0004        185.0004
  23238740.3194   -1986942.83349  -1526588.21845  23238741.1644   23238747.9044
       210.0004        150.0004
  22417162.1794    -949027.30649   -953619.78846  22417162.7214   22417167.4994
       223.0004        176.0004
  21016920.8374   -1772919.36649  -1359060.69947  21016921.1284   21016924.9834
       238.0004        206.0004
 07  2 17 16 27 20.0000000  0  8G30G 2G17G 5G 4G24G 9G12
  23063376.8104   -1981934.21249  -1526916.54445  23063377.4764   23063382.1344
       218.0004        160.0004
  20146890.0794   -1501768.43549  -1168028.81648  20146890.0184   20146892.8194
       244.0004        219.0004
                  -1261072.59749   -998148.57443
       204.0004         74.0004
  21033745.8494   -1804129.45949  -1399643.04047  21033745.8414   21033751.0014
       233.0004        195.0004
  21748128.8344    -990319.61349   -779333.39746  21748129.4434   21748134.4614
       230.0004        185.0004
  23235598.6564   -2003452.27849  -1539452.71145  23235598.6504   23235606.5504
       209.0004        149.0004
  22419887.6084    -934705.08249   -942459.60246  22419887.6854   22419893.8264
       221.0004        175.0004
  21015175.9804   -1782088.69549  -1366205.63247  21015176.3364   21015180.0284
       238.0004        206.0004
 07  2 17 16 27 25.0000000  0  8G30G 2G17G 5G 4G24G 9G12
  23060323.3324   -1997980.45549  -1539420.10345  23060323.5504   23060328.5634
       219.0004        160.0004
  20146660.7554   -1502973.55749  -1168967.86848  20146660.7974   20146663.5154
       245.0004        219.0004
                  -1248883.45149   -988650.44843
       207.0004         74.0004
  21031834.9414   -1814171.34549  -1407467.89147  21031834.4544   21031840.5714
       235.0004        195.0004
  21750693.3374    -976843.09549   -768832.23046  21750693.8084   21750699.3464
       231.0004        185.0004
  23232458.3464   -2019954.77749  -1552311.80945  23232458.8934   23232465.8404
       215.0004        149.0004
  22422614.6054    -920374.51549   -931292.93546  22422614.8074   22422621.1254
       227.0004        175.0004
  21013432.8754   -1791248.69249  -1373343.29647  21013433.4634   21013437.0484
       236.0004        206.0004
 07  2 17 16 27 30.0000000  0  8G30G 2G17G 5G 4G24G 9G12
  23057270.6414   -2014022.42949  -1551920.33645  23057270.9434   23057276.4404
       214.0004        158.0004
  20146434.1644   -1504164.31449  -1169895.72648  20146434.2144   20146436.7994
       243.0004        219.0004
                  -1236693.72849   -979152.03843
       208.0004         74.0004
  21029926.0204   -1824202.82549  -1415284.64447  21029925.7954   21029931.3084
       238.0004        195.0004
  21753259.4954    -963358.01249   -758324.40346  21753259.7624   21753264.9794
       231.0004        185.0004
  23229319.3284   -2036450.33549  -1565165.48245  23229319.7974   23229326.5854
       215.0004        150.0004
  22425343.2144    -906035.61549   -920119.77046  22425343.8774   22425349.2924
       225.0004        176.0004
  21011691.5314   -1800399.44149  -1380473.76447  21011692.0884   21011695.8104
       239.0004        206.0004
 07  2 17 16 27 35.0000000  0  8G30G 2G17G 5G 4G24G 9G12
  23054218.7114   -2030060.38549  -1564417.45945  23054219.2664   23054224.8254
       213.0004        158.0004
  20146210.2744   -1505340.87949  -1170812.53448  20146210.1794   20146212.9324
       243.0004        219.0004
                  -1224503.62549   -969653.29743
       204.0004         74.0004
  21028019.0214   -1834224.08249  -1423093.41647  21028018.7864   21028024.5424
       237.0004        196.0004
  21755827.2424    -949864.51149   -747809.94346  21755828.5034   21755833.5154
       231.0004        185.0004
  23226181.6084   -2052939.12649  -1578013.88545  23226181.7794   23226188.4834
       216.0004        152.0004
  22428073.3784    -891688.56749   -908940.23146  22428073.5484   22428079.4284
       227.0004        176.0004
  21009951.9344   -1809541.11349  -1387597.14347  21009952.1234   21009956.2534
       240.0004        207.0004
 07  2 17 16 27 40.0000000  0  8G30G 2G17G 5G 4G24G 9G12
  23051167.5514   -2046094.32249  -1576911.45445  23051167.9194   23051174.2264
       210.0004        156.0004
  20145989.0634   -1506503.32449  -1171718.33748  20145988.8724   20145991.6874
       243.0004        218.0004
                  -1212313.18649   -960154.28343
       207.0004         74.0004
  21026114.0134   -1844235.08949  -1430894.19547  21026113.7844   21026119.3074
       236.0004        196.0004
  21758396.5654    -936362.70749   -737289.09346  21758396.8854   21758402.0214
       231.0004        186.0004
  23223045.1864   -2069421.10149  -1590856.97145  23223045.1104   23223052.0654
       216.0004        153.0004
  22430805.0944    -877333.42249   -897754.43446  22430805.3474   22430811.4204
       229.0004        177.0004
  21008214.0644   -1818673.70449  -1394713.43947  21008214.3164   21008218.1374
       238.0004        207.0004
 07  2 17 16 27 45.0000000  0  8G30G 2G17G 5G 4G24G 9G12
  23048117.1864   -2062124.05749  -1589402.16545  23048118.6994   23048121.8624
       213.0004        155.0004
  20145770.5984   -1507651.42049  -1172612.95448  20145770.4434   20145773.3184
       243.0004        218.0004
                  -1200122.16549   -950654.82144                  24465765.5394
       207.0004        106.0004
  21024210.9704   -1854235.63049  -1438686.82347  21024210.7024   21024216.2224
       236.0004        196.0004
  21760967.5134    -922852.30749   -726761.50046  21760968.1454   21760973.4714
       232.0004        186.0004
  23219910.0864   -2085896.13849  -1603694.65545  23219910.1814   23219917.3394
       218.0004        154.0004
  22433538.3734    -862970.01849   -886562.16646  22433539.0644   22433544.4394
       229.0004        177.0004
  21006477.9584   -1827796.99849  -1401822.50447  21006478.3084   21006482.1974
       240.0004        206.0004
 07  2 17 16 27 50.0000000  0  8G30G 2G17G 5G 4G24G 9G12
  23045067.6354   -2078149.64649  -1601889.63345  23045069.2414   23045072.3974
       214.0004        154.0004
  20145554.8254   -1508785.22749  -1173496.43748  20145554.8634   20145557.6114
       243.0004        218.0004
                  -1187930.67849   -941154.98744                  24468084.1724
       207.0004        117.0004
  21022309.8994   -1864225.76349  -1446471.33747  21022309.8384   21022314.8394
       231.0004        195.0004
  21763540.0774    -909333.41349   -716227.31846  21763541.0844   21763545.5964
       234.0004        187.0004
  23216776.2974   -2102364.24649  -1616526.94845  23216776.2104   23216783.8094
       215.0004        154.0004
  22436273.2254    -848598.35349   -875363.50446  22436273.5914   22436279.6644
       226.0004        178.0004
  21004743.6044   -1836911.05349  -1408924.36147  21004744.2184   21004747.7844
       236.0004        206.0004
 07  2 17 16 27 55.0000000  0  8G30G 2G17G 5G 4G24G 9G12
  23042018.8834   -2094170.91449  -1614373.71745  23042019.7524   23042024.6344
       218.0004        154.0004
  20145341.7994   -1509904.71649  -1174368.77248  20145341.8904   20145344.5554
       245.0004        218.0004
                  -1175738.57149   -931654.65344                  24470403.9034
       196.0004        121.0004
  21020410.8514   -1874205.44249  -1454247.71247  21020410.5334   21020415.9544
       232.0004        194.0004
  21766114.2694    -895806.02149   -705686.46846  21766115.0724   21766120.2644
       232.0004        186.0004
  23213643.8304   -2118825.43349  -1629353.84645  23213644.0994   23213651.3074
       217.0004        154.0004
  22439009.6484    -834218.48649   -864158.40146  22439009.9174   22439015.7894
       225.0004        178.0004
  21003011.0554   -1846015.79549  -1416018.96347  21003011.4784   21003015.5854
       237.0004        205.0004
 07  2 17 16 28  0.0000000  0  8G30G 2G17G 5G 4G24G 9G12
  23038970.9214   -2110188.18149  -1626854.69045  23038971.4324   23038976.7844
       216.0004        155.0004
  20145131.4534   -1511010.10449  -1175230.11648  20145131.4664   20145134.1044
       245.0004        219.0004
                  -1163546.28949   -922154.18544                  24472723.1944
       208.0004        124.0004
  21018513.7134   -1884174.87549  -1462016.09547  21018513.6564   21018519.1094
       232.0004        194.0004
  21768690.0284    -882270.33849   -695139.18946  21768690.8594   21768695.8094
       230.0004        186.0004
  23210512.6954   -2135279.84049  -1642175.45445  23210513.0664   23210519.5894
       215.0004        154.0004
  22441747.5914    -819830.65349   -852947.10446  22441747.3824   22441753.5564
       225.0004        177.0004
  21001280.1984   -1855111.46849  -1423106.51047  21001280.8364   21001284.4404
       239.0004        205.0004
 07  2 17 16 28  5.0000000  0  8G30G 2G17G 5G 4G24G 9G12
  23035923.7794   -2126201.05349  -1639332.24345  23035924.5814   23035930.0154
       215.0004        156.0004
  20144923.8564   -1512101.08849  -1176080.23748  20144923.9794   20144926.6264
       245.0004        219.0004
                  -1151353.29649   -912653.17444                  24475043.7384
       205.0004        130.0004
  21016618.6064   -1894133.74749  -1469776.25647  21016618.2484   21016623.7974
       233.0004        195.0004
  21771267.4474    -868726.03849   -684585.20146  21771267.8454   21771272.8334
       232.0004        186.0004
  23207382.8684   -2151727.19849  -1654991.57645  23207382.6034   23207389.8774
       218.0004        155.0004
  22444487.0894    -805434.52149   -841729.36146  22444487.3354   22444493.6494
       227.0004        178.0004
  20999551.1594   -1864197.76049  -1430186.72747  20999551.8134   20999555.1984
       237.0004        206.0004
 07  2 17 16 28 10.0000000  0  8G30G 2G17G 5G 4G24G 9G12
  23032877.4094   -2142209.97149  -1651806.72745  23032878.1804   23032883.6004
       213.0004        155.0004
  20144718.9264   -1513178.04849  -1176919.41648  20144719.0414   20144721.6704
       244.0004        219.0004
  24477358.3834   -1139160.06949   -903151.97045  24477357.8084   24477363.6204
       209.0004        135.0004
  21014725.4324   -1904082.45749  -1477528.50847  21014725.0594   21014730.6054
       234.0004        195.0004
  21773846.4124    -855173.58949   -674024.83846  21773846.3904   21773851.9974
       229.0004        186.0004
  23204254.3044   -2168167.84549  -1667802.45845  23204254.2394   23204261.6184
       217.0004        156.0004
  22447228.0754    -791030.52649   -830505.45746  22447227.8284   22447234.8424
       226.0004        177.0004
  20997823.8054   -1873275.02249  -1437259.93047  20997824.3794   20997827.9534
       239.0004        206.0004
 07  2 17 16 28 15.0000000  0  8G30G 2G17G 5G 4G24G 9G12
  23029831.8734   -2158214.55249  -1664277.83345  23029832.2594   23029837.8284
       218.0004        155.0004
  20144516.7134   -1514240.67549  -1177747.44148  20144516.8314   20144519.3974
       244.0004        219.0004
  24479678.7414   -1126966.29649   -893650.33945  24479677.6324   24479683.1164
       208.0004        137.0004
  21012834.2764   -1914020.63949  -1485272.53547  21012833.8484   21012839.3244
       233.0004        195.0004
  21776426.9624    -841612.64549   -663457.89246  21776427.8134   21776432.7354
       230.0004        186.0004
  23201127.1014   -2184601.47549  -1680607.87645  23201127.2844   23201134.6144
       213.0004        156.0004
  22449970.6334    -776618.29149   -819275.17346  22449970.7194   22449976.9244
       227.0004        177.0004
  20996098.2664   -1882342.89449  -1444325.79747  20996098.7134   20996102.4164
       240.0004        206.0004
 07  2 17 16 28 20.0000000  0  8G30G 2G17G 5G 4G24G 9G12
  23026787.1094   -2174215.01749  -1676745.71045  23026787.2674   23026792.9784
       218.0004        157.0004
  20144317.2014   -1515289.11549  -1178564.40548  20144317.3194   20144319.9884
       245.0004        219.0004
  24481999.1244   -1114772.07249   -884148.35745  24481997.8764   24482003.1824
       206.0004        139.0004
  21010945.0674   -1923948.45449  -1493008.49347  21010944.9454   21010950.3384
       234.0004        195.0004
  21779009.1094    -828043.41849   -652884.45646  21779009.5054   21779014.7924
       231.0004        185.0004
  23198001.2354   -2201028.15549  -1693407.89045  23198001.3184   23198008.7794
       215.0004        157.0004
  22452714.6974    -762198.10549   -808038.66046  22452714.5994   22452721.1134
       227.0004        178.0004
  20994374.4524   -1891401.56749  -1451384.50047  20994375.0874   20994378.8444
       239.0004        206.0004
 07  2 17 16 28 25.0000000  0  8G30G 2G17G 5G 4G24G 9G12
  23023743.1834   -2190211.04649  -1689210.12945  23023743.5044   23023748.9734
       219.0004        157.0004
  20144120.4534   -1516323.10349  -1179370.11248  20144120.5364   20144123.2454
       244.0004        219.0004
  24484319.6104   -1102577.20049   -874645.86945  24484319.0194   24484324.0924
       206.0004        139.0004
  21009057.9074   -1933865.60349  -1500736.15247  21009057.6324   21009063.0934
       235.0004        195.0004
  21781592.9054    -814465.55449   -642304.31246  21781593.3274   21781598.3694
       230.0004        185.0004
  23194876.6914   -2217447.76349  -1706202.38345  23194876.9114   23194884.1514
       215.0004        157.0004
  22455460.3454    -747769.59349   -796795.67446  22455460.4584   22455466.6634
       225.0004        177.0004
  20992652.4554   -1900450.76649  -1458435.82447  20992653.1394   20992656.6704
       239.0004        206.0004
 07  2 17 16 28 30.0000000  0  8G30G 2G17G 5G 4G24G 9G12
  23020700.0944   -2206202.68849  -1701671.15045  23020700.9404   23020705.8834
       219.0004        159.0004
  20143926.4224   -1517342.81049  -1180164.68848  20143926.5104   20143929.0844
       244.0004        219.0004
  24486640.1734   -1090381.77749   -865142.95245  24486640.0724   24486645.4544
       207.0004        141.0004
  21007172.7344   -1943772.22949  -1508455.59247  21007172.6874   21007178.0584
       236.0004        195.0004
  21784178.2804    -800879.28149   -631717.61146  21784178.9474   21784184.0944
       230.0004        185.0004
  23191753.4834   -2233860.31649  -1718991.37945  23191753.3734   23191761.0064
       215.0004        157.0004
  22458207.5254    -733332.97949   -785546.36746  22458207.7564   22458213.9654
       226.0004        177.0004
  20990932.2354   -1909490.60549  -1465479.86247  20990932.9594   20990936.6224
       240.0004        207.0004
 07  2 17 16 28 35.0000000  0  8G30G 2G17G 5G 4G24G 9G12
  23017657.7934   -2222190.11449  -1714128.90645  23017658.4674   23017663.7104
       217.0004        160.0004
  20143735.0894   -1518348.29449  -1180948.18048  20143735.1524   20143737.7314
       244.0004        219.0004
  24488960.8664   -1078185.87949   -855639.65745  24488960.3164   24488965.7384
       211.0004        142.0004
  21005289.5684   -1953668.37849  -1516166.88247  21005289.3914   21005294.7204
       234.0004        195.0004
  21786765.2394    -787284.72749   -621124.45446  21786765.6464   21786771.3444
       231.0004        185.0004
  23188631.6044   -2250265.90849  -1731774.95545  23188631.5444   23188638.9334
       213.0004        157.0004
  22460956.2544    -718888.34349   -774290.82346  22460956.5534   22460963.0214
       226.0004        177.0004
  20989213.7904   -1918521.16849  -1472516.66447  20989214.3394   20989218.0284
       240.0004        207.0004
 07  2 17 16 28 40.0000000  0  8G30G 2G17G 5G 4G24G 9G12
  23014616.3104   -2238173.21849  -1726583.27245  23014617.1624   23014621.9804
       218.0004        160.0004
  20143546.4814   -1519339.45449  -1181720.51048  20143546.4934   20143549.0884
       244.0004        219.0004
  24491281.7104   -1065989.42749   -846135.93345  24491281.9084   24491287.1124
       208.0004        143.0004
  21003408.4164   -1963553.95649  -1523869.92547  21003408.1934   21003413.6984
       235.0004        195.0004
  21789353.8124    -773681.74249   -610524.72846  21789354.5344   21789359.3304
       232.0004        185.0004
  23185511.0594   -2266664.46949  -1744553.04745  23185511.4544   23185518.4634
       214.0004        157.0004
  22463706.5184    -704435.60649   -763028.94446  22463707.4794   22463712.7974
       226.0004        177.0004
  20987497.1254   -1927542.32849  -1479546.14147  20987497.8484   20987501.4694
       239.0004        207.0004
 07  2 17 16 28 45.0000000  0  8G30G 2G17G 5G 4G24G 9G12
  23011575.6504   -2254151.99149  -1739034.24745  23011576.0374   23011581.0844
       217.0004        160.0004
  20143360.6034   -1520316.33949  -1182481.72248  20143360.5624   20143363.3704
       244.0004        219.0004
  24493602.6724   -1053792.44349   -836631.79545  24493602.9624   24493608.3374
       206.0004        143.0004
  21001529.2614   -1973429.01849  -1531564.77547  21001529.0644   21001534.3244
       235.0004        195.0004
  21791943.9724    -760070.36449   -599918.45546  21791944.2914   21791949.3164
       232.0004        185.0004
  23182391.8674   -2283056.01949  -1757325.68645  23182392.2644   23182399.5974
       215.0004        157.0004
  22466458.3344    -689974.79249   -751760.78746  22466458.6444   22466465.0774
       226.0004        177.0004
  20985782.2514   -1936554.13649  -1486568.33147  20985782.7354   20985786.4764
       239.0004        207.0004
 07  2 17 16 28 50.0000000  0  8G30G 2G17G 5G 4G24G 9G12
  23008535.7944   -2270126.42249  -1751481.84745  23008535.9924   23008541.6344
       218.0004        161.0004
  20143177.4174   -1521278.96049  -1183231.81648  20143177.4484   20143180.1394
       243.0004        219.0004
  24495923.7394   -1041594.96049   -827127.26845  24495924.3444   24495928.6374
       206.0004        142.0004
  20999652.1264   -1983293.55049  -1539251.42647  20999651.9134   20999657.4074
       234.0004        195.0004
  21794535.7064    -746450.62949   -589305.68246  21794536.0274   21794541.3734
       231.0004        185.0004
  23179274.0104   -2299440.49249  -1770092.80745  23179274.6624   23179281.9544
       214.0004        156.0004
  22469211.6844    -675505.93549   -740486.36346  22469212.2384   22469218.1714
       226.0004        177.0004
  20984069.1534   -1945556.55749  -1493583.20447  20984069.7814   20984073.4544
       239.0004        207.0004
 07  2 17 16 28 55.0000000  0  8G30G 2G17G 5G 4G24G 9G12
  23005496.7464   -2286096.58749  -1763926.12945  23005497.1164   23005502.4714
       216.0004        160.0004
  20142996.9534   -1522227.31449  -1183970.79348  20142996.8234   20142999.7524
       244.0004        219.0004
  24498244.8934   -1029396.99449   -817622.36645  24498245.1884   24498250.2844
       206.0004        143.0004
  20997776.9774   -1993147.48849  -1546929.81947  20997777.0714   20997782.1344
       235.0004        195.0004
  21797129.0634    -732822.56849   -578686.42446  21797129.4114   21797135.0204
       232.0004        185.0004
  23176157.5014   -2315817.94849  -1782854.45445  23176157.6604   23176164.5864
       216.0004        156.0004
  22471966.5734    -661029.07449   -729205.69046  22471967.3614   22471972.6984
       226.0004        177.0004
  20982357.8564   -1954549.59649  -1500590.76747  20982358.2664   20982362.0634
       239.0004        207.0004
 07  2 17 16 29  0.0000000  0  8G30G 2G17G 5G 4G24G 9G12
  23002458.5644   -2302062.31349  -1776366.95745  23002459.3494   23002464.1274
       215.0004        160.0004
  20142819.2134   -1523161.31649  -1184698.58748  20142819.1964   20142821.9334
       244.0004        219.0004
  24500566.1444   -1017198.39449   -808116.97945  24500566.0314   24500571.7444
       208.0004        143.0004
  20995903.8594   -2002990.80549  -1554599.93647  20995903.6984   20995909.0514
       235.0004        195.0004
  21799723.9984    -719186.12149   -568060.61746  21799724.6854   21799729.6644
       231.0004        185.0004
  23173042.3314   -2332188.24149  -1795610.52545  23173042.0074   23173049.0544
       216.0004        157.0004
  22474722.9804    -646544.08849   -717918.69546  22474722.8734   22474728.7614
       226.0004        177.0004
  20980648.3434   -1963533.11149  -1507590.91047  20980648.8494   20980652.4374
       239.0004        207.0004
 07  2 17 16 29  5.0000000  0  8G30G 2G17G 5G 4G24G 9G12
  22999421.1594   -2318023.86249  -1788804.54345  22999421.9424   22999427.2504
       217.0004        160.0004
  20142644.1494   -1524081.24649  -1185415.41648  20142644.1484   20142646.9244
       244.0004        219.0004
  24502887.5014   -1004999.46849   -798611.33045  24502887.6544   24502893.2714
       208.0004        144.0004
  20994032.7214   -2012823.73649  -1562261.96047  20994032.7244   20994037.7114
       235.0004        195.0004
  21802320.4994    -705541.50849   -557428.45246  21802321.0374   21802326.3564
       231.0004        185.0004
  23169928.4914   -2348551.68349  -1808361.25545  23169928.1534   23169935.4084
       216.0004        156.0004
  22477480.8864    -632051.32849   -706625.65346  22477481.3534   22477487.5154
       226.0004        177.0004
  20978940.5874   -1972507.44849  -1514583.90247  20978941.3514   20978944.8064
       240.0004        207.0004
 07  2 17 16 29 10.0000000  0  8G30G 2G17G 5G 4G24G 9G12
  22996384.6544   -2333980.78749  -1801238.50145  22996385.7934   22996390.4584
       217.0004        160.0004
  20142471.8694   -1524986.63749  -1186120.91548  20142471.9174   20142474.6034
       244.0004        219.0004
  24505209.0144    -992799.73449   -789105.05145  24505209.4574   24505215.4024
       207.0004        145.0004
  20992163.6554   -2022645.80349  -1569915.51547  20992163.5184   20992168.5884
       235.0004        195.0004
  21804918.6104    -691888.36649   -546789.64746  21804919.0394   21804924.2724
       231.0004        185.0004
  23166816.0114   -2364907.77749  -1821106.26045  23166815.5574   23166823.3504
       215.0004        157.0004
  22480240.3454    -617550.31049   -695326.16846  22480240.8234   22480247.2134
       226.0004        177.0004
  20977234.6984   -1981472.09149  -1521569.33747  20977235.0824   20977238.6534
       240.0004        207.0004
 07  2 17 16 29 15.0000000  0  8G30G 2G17G 5G 4G24G 9G12
  22993348.9914   -2349933.38349  -1813669.08645  22993349.8554   22993355.0314
       215.0004        160.0004
  20142302.2914   -1525877.85249  -1186815.36848  20142302.2944   20142305.0424
       244.0004        219.0004
  24507530.6194    -980599.53749   -779598.41945  24507531.1094   24507536.9824
       205.0004        145.0004
  20990296.5864   -2032457.37149  -1577560.89447  20990296.4104   20990301.7034
       235.0004        195.0004
  21807518.3064    -678226.93749   -536144.38146  21807519.0194   21807524.1764
       231.0004        185.0004
  23163704.8944   -2381256.83249  -1833845.78045  23163704.5814   23163712.5064
       215.0004        156.0004
  22483001.3314    -603041.41949   -684020.53846  22483002.0024   22483008.3844
       226.0004        177.0004
  20975530.5684   -1990427.33749  -1528547.45147  20975531.2124   20975534.7084
       239.0004        207.0004
 07  2 17 16 29 20.0000000  0  8G30G 2G17G 5G 4G24G 9G12
  22990314.1314   -2365881.68549  -1826096.33445  22990314.4864   22990320.2264
       220.0004        160.0004
  20142135.3894   -1526754.91149  -1187498.79048  20142135.4304   20142138.0144
       244.0004        219.0004
  24509852.3004    -968398.89749   -770091.44045  24509852.7024   24509858.6554
       207.0004        145.0004
  20988431.5494   -2042258.38749  -1585198.05447  20988431.2814   20988436.5274
       235.0004        195.0004
  21810119.5504    -664557.31549   -525492.72846  21810120.4684   21810125.4244
       231.0004        185.0004
  23160595.1034   -2397598.94149  -1846579.87945  23160594.7444   23160602.6424
       216.0004        157.0004
  22485763.7854    -588524.68849   -672708.81146  22485763.9304   22485771.2444
       225.0004        177.0004
  20973828.2394   -1999373.27949  -1535518.30947  20973828.9004   20973832.4414
       239.0004        207.0004
 07  2 17 16 29 25.0000000  0  8G30G 2G17G 5G 4G24G 9G12
  22987280.1344   -2381825.49949  -1838520.07145  22987280.7374   22987285.7654
       219.0004        160.0004
  20141971.1914   -1527617.68249  -1188171.08048  20141971.1744   20141973.8274
       244.0004        219.0004
  24512174.0684    -956197.72849   -760584.04745  24512174.9244   24512180.6394
       208.0004        145.0004
  20986568.5094   -2052048.77549  -1592826.92447  20986568.4014   20986573.7194
       235.0004        196.0004
  21812722.3594    -650879.40649   -514834.61446  21812723.2664   21812728.1844
       231.0004        185.0004
  23157486.6664   -2413933.88749  -1859308.40845  23157486.4664   23157493.7434
       216.0004        157.0004
  22488527.7754    -574000.00449   -661390.87646  22488528.4964   22488534.0104
       226.0004        177.0004
  20972127.7094   -2008309.71949  -1542481.77247  20972128.3584   20972131.9134
       239.0004        207.0004
 07  2 17 16 29 30.0000000  0  8G30G 2G17G 5G 4G24G 9G12
  22984247.0284   -2397764.64549  -1850940.18345  22984247.7064   22984252.1174
       218.0004        161.0004
  20141809.8004   -1528465.91449  -1188832.04048  20141809.7654   20141812.5644
       244.0004        219.0004
  24514496.0044    -943995.75649   -751076.02645  24514496.6974   24514502.7604
       210.0004        146.0004
  20984707.5504   -2061828.21349  -1600447.26547  20984707.6194   20984713.0384
       235.0004        196.0004
  21815326.8264    -637193.00049   -504169.88946  21815327.4134   21815332.7094
       231.0004        185.0004
  23154379.6454   -2430261.42249  -1872031.15845  23154379.5674   23154387.1424
       215.0004        157.0004
  22491293.2874    -559467.10649   -650066.55146  22491293.8414   22491299.3444
       225.0004        177.0004
  20970429.0104   -2017236.40849  -1549437.63447  20970429.5244   20970433.2634
       239.0004        207.0004
 07  2 17 16 29 35.0000000  0  8G30G 2G17G 5G 4G24G 9G12
  22981214.7064   -2413699.69949  -1863357.10545  22981215.3064   22981220.3334
       219.0004        161.0004
  20141651.0204   -1529300.20249  -1189482.13648  20141650.9954   20141653.6644
       244.0004        219.0004
  24516818.0104    -931793.56749   -741567.83545  24516818.5604   24516824.6844
       210.0004        146.0004
  20982848.5594   -2071597.35149  -1608059.58347  20982848.2464   20982853.7674
       235.0004        196.0004
  21817932.7914    -623498.59549   -493498.92446  21817933.4794   21817938.5904
       232.0004        185.0004
  23151273.9054   -2446582.19149  -1884748.63745  23151273.6274   23151281.0434
       216.0004        157.0004
  22494060.2854    -544926.60349   -638736.29846  22494060.7764   22494066.6964
       225.0004        177.0004
  20968732.0844   -2026153.94749  -1556386.36347  20968732.5494   20968736.3284
       240.0004        207.0004
 07  2 17 16 29 40.0000000  0  8G30G 2G17G 5G 4G24G 9G12
  22978183.2154   -2429630.37049  -1875770.60945  22978183.4754   22978188.5654
       219.0004        161.0004
  20141494.9634   -1530120.32149  -1190121.18848  20141494.9534   20141497.5164
       244.0004        219.0004
  24519140.1044    -919590.91849   -732059.29345  24519140.6924   24519146.0334
       210.0004        146.0004
  20980991.5504   -2081355.92349  -1615663.66447  20980991.1224   20980996.5264
       235.0004        196.0004
  21820540.3024    -609796.01449   -482821.59246  21820540.5344   21820545.9844
       232.0004        185.0004
  23148169.4994   -2462895.89149  -1897460.60945  23148169.8154   23148176.7514
       217.0004        158.0004
  22496828.7464    -530378.31449   -627399.97346  22496828.7904   22496835.1644
       225.0004        176.0004
  20967036.9054   -2035062.12949  -1563327.80347  20967037.3424   20967041.0604
       240.0004        207.0004
 07  2 17 16 29 45.0000000  0  8G30G 2G17G 5G 4G24G 9G12
  22975152.6364   -2445556.24249  -1888180.37845  22975153.1724   22975158.2994
       218.0004        161.0004
  20141341.6824   -1530925.89149  -1190748.90548  20141341.6694   20141344.4224
       245.0004        219.0004
  24521462.3624    -907387.46749   -722550.12045  24521463.8744   24521468.6164
       207.0004        147.0004
  20979136.6444   -2091103.49149  -1623259.16947  20979136.7564   20979141.6544
       235.0004        196.0004
  21823149.4484    -596085.02149   -472137.70546  21823150.2874   21823154.6934
       231.0004        185.0004
  23145066.5284   -2479202.15149  -1910166.78645  23145066.9944   23145074.0654
       215.0004        158.0004
  22499598.7664    -515821.79849   -616057.24546  22499598.9924   22499605.0634
       225.0004        176.0004
  20965343.6084   -2043960.52049  -1570261.61547  20965343.9344   20965347.9924
       239.0004        207.0004
 07  2 17 16 29 50.0000000  0  8G30G 2G17G 5G 4G24G 9G12
  22972122.8114   -2461477.99749  -1900586.93445  22972122.9604   22972129.0904
       219.0004        161.0004
  20141191.0454   -1531717.52949  -1191365.76648  20141191.0844   20141193.7964
       244.0004        219.0004
  24523784.6684    -895183.76149   -713040.75345  24523785.4074   24523790.5224
       209.0004        147.0004
  20977283.7134   -2100840.71349  -1630846.61647  20977283.4994   20977288.9574
       236.0004        196.0004
  21825760.0904    -582366.03349   -461447.58646  21825760.5504   21825765.2584
       232.0004        185.0004
  23141964.8484   -2495501.57749  -1922867.63245  23141965.1914   23141972.3854
       216.0004        158.0004
  22502370.2044    -501257.70649   -604708.60646  22502370.3634   22502376.2404
       226.0004        176.0004
  20963652.0504   -2052849.72549  -1577188.27047  20963652.6554   20963656.1804
       239.0004        207.0004
 07  2 17 16 29 55.0000000  0  8G30G 2G17G 5G 4G24G 9G12
  22969093.8534   -2477395.29349  -1912990.03145  22969094.4874   22969099.7714
       217.0004        161.0004
  20141043.1354   -1532494.85549  -1191971.47648  20141043.0464   20141045.8904
       244.0004        219.0004
  24526107.0934    -882979.56649   -703531.00445  24526107.5694   24526113.2824
       208.0004        146.0004
  20975432.8274   -2110567.26249  -1638425.74447  20975432.7304   20975437.7974
       236.0004        196.0004
  21828372.2944    -568638.89049   -450751.11146  21828373.0024   21828377.9664
       231.0004        185.0004
  23138864.5324   -2511793.85049  -1935562.90545  23138864.5874   23138872.3004
       216.0004        158.0004
  22505143.1374    -486685.83549   -593353.89946  22505143.8334   22505149.9084
       225.0004        176.0004
  20961962.3024   -2061729.42149  -1584107.51347  20961962.9054   20961966.3624
       240.0004        207.0004
 07  2 17 16 30  0.0000000  0  8G30G 2G17G 5G 4G24G 9G12
  22966065.7534   -2493308.01749  -1925389.56445  22966065.7144   22966071.6264
       218.0004        161.0004
  20140897.9344   -1533257.89749  -1192566.05148  20140897.9764   20140900.6694
       244.0004        219.0004
  24528429.5864    -870774.77249   -694020.77745  24528429.7914   24528435.1614
       206.0004        146.0004
  20973583.9684   -2120283.04749  -1645996.48447  20973583.5204   20973589.2934
       235.0004        196.0004
  21830986.0824    -554903.48149   -440048.19546  21830986.3534   21830991.8464
       231.0004        185.0004
  23135765.5854   -2528078.92249  -1948252.56745  23135765.4834   23135772.6444
       217.0004        158.0004
  22507917.5974    -472106.03749   -581993.03046  22507917.5134   22507923.9924
       225.0004        176.0004
  20960274.3794   -2070599.51349  -1591019.27047  20960274.7144   20960278.4194
       239.0004        207.0004
 07  2 17 16 30  5.0000000  0  8G30G 2G17G 5G 4G24G 9G12
  22963038.4994   -2509216.31049  -1937785.62145  22963039.3994   22963044.2274
       218.0004        161.0004
  20140755.4304   -1534006.80149  -1193149.61248  20140755.5754   20140758.1524
       244.0004        219.0004
  24530752.1824    -858569.46949   -684510.15745  24530752.5234   24530757.5524
       207.0004        146.0004
  20971737.1594   -2129988.19749  -1653558.93847  20971736.7694   20971742.1794
       236.0004        196.0004
  21833601.4004    -541159.92349   -429338.93846  21833601.6224   21833607.2184
       230.0004        185.0004
  23132667.9964   -2544356.86049  -1960936.67345  23132668.8374   23132675.3154
       216.0004        159.0004
  22510693.5354    -457518.47449   -570626.10946  22510694.7004   22510699.7764
       225.0004        176.0004
  20958588.2744   -2079460.15949  -1597923.67147  20958588.6814   20958592.6644
       239.0004        207.0004
 07  2 17 16 30 10.0000000  0  8G30G 2G17G 5G 4G24G 9G12
  22960012.0884   -2525120.15249  -1950178.20945  22960011.8554   22960017.7834
       218.0004        162.0004
  20140615.6104   -1534741.57849  -1193722.16548  20140615.6924   20140618.2104
       244.0004        219.0004
  24533074.8544    -846363.73849   -674999.21045  24533075.1954   24533080.5634
       208.0004        145.0004
  20969892.3364   -2139682.70049  -1661113.09947  20969891.9364   20969897.2554
       235.0004        196.0004
  21836218.2664    -527408.32149   -418623.40646  21836218.9004   21836224.0934
       231.0004        185.0004
  23129571.7734   -2560627.69749  -1973615.24845  23129572.2504   23129579.3094
       217.0004        159.0004
  22513470.9304    -442923.23049   -559253.19746  22513471.3184   22513477.1714
       225.0004        176.0004
  20956903.9474   -2088311.33949  -1604820.69447  20956904.4474   20956908.1174
       239.0004        207.0004
 07  2 17 16 30 15.0000000  0  8G30G 2G17G 5G 4G24G 9G12
  22956986.5924   -2541019.12449  -1962567.02745  22956986.7094   22956992.8714
       218.0004        162.0004
  20140478.5544   -1535461.81349  -1194283.38848  20140478.5074   20140481.2754
       244.0004        219.0004
  24535397.6854    -834157.16149   -665487.59845  24535398.1974   24535403.1014
       210.0004        145.0004
  20968049.6524   -2149366.16549  -1668658.65547  20968049.2324   20968054.5974
       236.0004        196.0004
  21838836.7504    -513648.23849   -407901.26446  21838837.6774   21838842.5274
       231.0004        185.0004
  23126476.9404   -2576891.03549  -1986287.97945  23126476.9234   23126484.6704
       218.0004        159.0004
  22516249.8584    -428319.93149   -547874.01246  22516250.0944   22516256.4454
       225.0004        176.0004
  20955221.5074   -2097152.62449  -1611710.00747  20955221.6824   20955225.7074
       239.0004        207.0004
 07  2 17 16 30 20.0000000  0  8G30G 2G17G 5G 4G24G 9G12
  22953961.9724   -2556913.64149  -1974952.36045  22953962.5824   22953967.7234
       217.0004        161.0004
  20140344.2024   -1536167.93549  -1194833.61048  20140344.2604   20140346.8524
       244.0004        219.0004
  24537720.6194    -821950.16949   -655975.65845  24537721.1994   24537726.0114
       210.0004        144.0004
  20966208.9804   -2159038.95649  -1676195.89347  20966208.9864   20966214.0464
       235.0004        196.0004
  21841456.7404    -499880.17049   -397172.90846  21841457.3844   21841462.2694
       231.0004        185.0004
  23123383.4964   -2593147.25349  -1998955.16345  23123383.6054   23123390.9974
       217.0004        159.0004
  22519030.2104    -413708.96949   -536488.85246  22519030.4004   22519036.3584
       226.0004        176.0004
  20953540.8744   -2105984.44949  -1618591.94847  20953541.2254   20953545.0814
       239.0004        207.0004
 07  2 17 16 30 25.0000000  0  8G30G 2G17G 5G 4G24G 9G12
  22950938.1904   -2572803.70749  -1987334.23545  22950938.4864   22950944.2014
       218.0004        161.0004
  20140212.5334   -1536859.90549  -1195372.80848  20140212.5914   20140215.2424
       244.0004        219.0004
  24540043.6554    -809742.69149   -646463.33945  24540044.0814   24540049.5164
       209.0004        144.0004
  20964370.3574   -2168701.09149  -1683724.83047  20964370.4484   20964375.2684
       236.0004        196.0004
  21844078.2614    -486103.97649   -386438.20946  21844078.9494   21844083.7194
       231.0004        185.0004
  23120291.3884   -2609396.33949  -2011616.78245  23120291.0364   23120298.7914
       218.0004        159.0004
  22521812.0574    -399090.29849   -525097.68746  22521813.2534   22521818.0154
       226.0004        176.0004
  20951862.0294   -2114806.76649  -1625466.48247  20951862.4774   20951866.3174
       239.0004        207.0004
 07  2 17 16 30 30.0000000  0  8G30G 2G17G 5G 4G24G 9G12
  22947915.2184   -2588689.43549  -1999712.72545  22947915.3794   22947920.9574
       217.0004        161.0004
  20140083.5204   -1537537.88549  -1195901.10548  20140083.4704   20140086.2074
       244.0004        220.0004
  24542366.7284    -797534.91949   -636950.80045  24542367.2934   24542372.8344
       208.0004        145.0004
  20962533.7024   -2178352.70749  -1691245.57247  20962533.6504   20962538.7344
       236.0004        196.0004
  21846701.3094    -472319.89249   -375697.36746  21846701.8034   21846706.8714
       231.0004        185.0004
  23117200.6074   -2625638.47449  -2024272.98645  23117200.2654   23117207.7564
       216.0004        159.0004
  22524595.3694    -384464.09949   -513700.66346  22524595.9274   22524602.1084
       225.0004        176.0004
  20950184.9914   -2123619.72949  -1632333.72747  20950185.4684   20950189.0524
       239.0004        207.0004
 07  2 17 16 30 35.0000000  0  8G30G 2G17G 5G 4G24G 9G12
  22944893.1904   -2604570.33849  -2012087.45045  22944893.5014   22944898.4914
       217.0004        161.0004
  20139957.2594   -1538201.38749  -1196418.11848  20139957.3784   20139959.8514
       244.0004        220.0004
  24544689.9554    -785326.31349   -627437.61445  24544690.4144   24544695.6584
       205.0004        144.0004
  20960699.1674   -2187993.28949  -1698757.71447  20960699.2204   20960704.2724
       236.0004        196.0004
  21849325.9104    -458527.46549   -364950.02646  21849326.2464   21849331.6904
       230.0004        185.0004
  23114111.2484   -2641873.09249  -2036923.33445  23114110.9944   23114118.2694
       216.0004        159.0004
  22527380.1544    -369829.93749   -502297.41746  22527380.7594   22527386.7194
       225.0004        176.0004
  20948509.8134   -2132422.83549  -1639193.29047  20948510.0484   20948514.0384
       239.0004        207.0004
 07  2 17 16 30 40.0000000  0  8G30G 2G17G 5G 4G24G 9G12
  22941871.9604   -2620446.90949  -2024458.80345  22941872.2524   22941877.3994
       217.0004        161.0004
  20139833.6554   -1538850.96549  -1196924.28348  20139833.6834   20139836.3234
       244.0004        220.0004
  24547013.2254    -773117.46049   -617924.24045  24547013.8964   24547019.1844
       208.0004        144.0004
  20958866.6464   -2197623.36549  -1706261.66947  20958866.2294   20958871.7494
       236.0004        196.0004
  21851952.0444    -444727.17849   -354196.55646  21851952.3384   21851957.5034
       231.0004        185.0004
  23111023.2134   -2658100.73749  -2049568.25445  23111023.2524   23111030.3784
       216.0004        159.0004
  22530166.3814    -355188.32949   -490888.39046  22530166.8504   22530171.9014
       226.0004        176.0004
  20946836.4194   -2141216.56549  -1646045.54947  20946836.8774   20946840.6224
       240.0004        207.0004
 07  2 17 16 30 45.0000000  0  8G30G 2G17G 5G 4G24G 9G12
  22938851.6124   -2636318.92449  -2036826.60345  22938852.2034   22938857.2634
       217.0004        161.0004
  20139712.7344   -1539486.32649  -1197419.36948  20139712.7774   20139715.4234
       244.0004        220.0004
  24549336.5934    -760908.09049   -608410.45745  24549336.9284   24549342.7964
       209.0004        144.0004
  20957036.1564   -2207242.65349  -1713757.21847  20957035.9664   20957041.2504
       236.0004        196.0004
  21854579.6794    -430918.86849   -343436.84246  21854580.1394   21854585.2174
       231.0004        185.0004
  23107936.5624   -2674321.15349  -2062207.53645  23107936.2294   23107944.1634
       216.0004        159.0004
  22532954.0564    -340539.05649   -479473.37646  22532954.3504   22532960.7944
       225.0004        176.0004
  20945164.8664   -2150000.68549  -1652890.31947  20945165.2944   20945169.0824
       238.0004        207.0004
 07  2 17 16 30 50.0000000  0  8G30G 2G17G 5G 4G24G 9G12
  22935832.1284   -2652186.32849  -2049190.80545  22935832.2744   22935837.3414
       217.0004        161.0004
  20139594.5524   -1540107.45149  -1197903.36148  20139594.5994   20139597.2464
       244.0004        220.0004
  24551660.0704    -748698.12149   -598896.21045  24551660.1394   24551666.1104
       205.0004        143.0004
  20955207.7364   -2216851.13549  -1721244.34347  20955207.5324   20955212.7974
       236.0004        196.0004
  21857208.8464    -417102.49549   -332670.83846  21857209.0494   21857213.9084
       231.0004        185.0004
  23104851.3104   -2690534.30149  -2074841.15945  23104850.6154   23104858.7754
       217.0004        159.0004
  22535743.1894    -325882.10549   -468052.37346  22535742.9904   22535749.3464
       225.0004        175.0004
  20943495.1164   -2158775.18649  -1659727.58947  20943495.4204   20943499.2274
       239.0004        207.0004
 07  2 17 16 30 55.0000000  0  8G30G 2G17G 5G 4G24G 9G12
  22932813.5474   -2668049.08949  -2061551.39645  22932814.1134   22932819.3074
       217.0004        161.0004
  20139479.0584   -1540714.34949  -1198376.26948  20139479.1794   20139481.7074
       244.0004        220.0004
  24553983.6404    -736487.61649   -589381.54445  24553983.4114   24553988.2484
       206.0004        143.0004
  20953381.3684   -2226448.76049  -1728723.01747  20953381.2864   20953386.2524
       235.0004        196.0004
  21859839.5694    -403278.04449   -321898.54146  21859839.7284   21859844.8494
       231.0004        184.0004
  23101767.4384   -2706740.11249  -2087469.06145  23101767.8494   23101774.7354
       216.0004        159.0004
  22538533.7804    -311217.41149   -456625.34946  22538534.3274   22538540.5694
       225.0004        175.0004
  20941827.2474   -2167540.00149  -1666557.31547  20941827.7344   20941831.4634
       239.0004        207.0004
 07  2 17 16 31  0.0000000  0  8G30G 2G17G 5G 4G24G 9G12
  22929795.7674   -2683907.55949  -2073908.65045  22929796.7624   22929801.7914
       217.0004        161.0004
  20139366.2184   -1541307.38149  -1198838.37148  20139366.2174   20139369.0094
       244.0004        220.0004
  24556307.2384    -724276.90649   -579866.71845  24556307.7324   24556312.9784
       204.0004        143.0004
  20951557.0134   -2236035.87949  -1736193.49747  20951556.9294   20951562.0494
       236.0004        196.0004
  21862471.7364    -389445.85549   -311120.21646  21862472.4754   21862477.2314
       230.0004        184.0004
  23098684.9014   -2722939.03349  -2100091.59245  23098685.2634   23098691.8794
       216.0004        159.0004
  22541325.8004    -296545.40949   -445192.62846  22541325.9654   22541331.9644
       224.0004        175.0004
  20940161.1404   -2176295.51049  -1673379.78947  20940161.5784   20940165.1644
       239.0004        207.0004
 07  2 17 16 31  5.0000000  0  9G30G 2G17G 5G 4G24G 9G10G12
  22926778.9214   -2699761.21049  -2086262.14545  22926779.3514   22926784.5224
       218.0004        161.0004
  20139256.1024   -1541885.98649  -1199289.23348  20139256.1334   20139258.8674
       244.0004        220.0004
  24558631.0384    -712065.37049   -570351.24945  24558631.8734   24558637.5214
       207.0004        142.0004
  20949734.7624   -2245611.94649  -1743655.36947  20949734.4314   20949739.7354
       235.0004        197.0004
  21865105.4974    -375605.41749   -300335.45946  21865106.4224   21865111.3554
       231.0004        184.0004
  23095603.7704   -2739130.45249  -2112708.28045  23095603.5164   23095611.6414
       216.0004        159.0004
  22544119.2794    -281865.51449   -433753.75246  22544119.4614   22544125.3414
       224.0004        175.0004
                  -1580905.40959  -1208961.25743
       211.0004         74.0004
  20938496.8924   -2185041.12949  -1680194.55847  20938497.2804   20938501.1404
       239.0004        207.0004
 07  2 17 16 31 10.0000000  0  9G30G 2G17G 5G 4G24G 9G10G12
  22923762.9324   -2715610.37649  -2098612.14445  22923763.4694   22923768.8554
       217.0004        161.0004
  20139148.6804   -1542450.53849  -1199729.14348  20139148.6284   20139151.4384
       244.0004        220.0004
  24560954.8764    -699853.46049   -560835.49045  24560955.0854   24560961.2754
       206.0004        142.0004
  20947914.5284   -2255177.30849  -1751108.89747  20947914.2114   20947919.5774
       236.0004        197.0004
  21867740.8024    -361757.03249   -289544.51246  21867741.6874   21867746.9374
       231.0004        184.0004
  23092523.9974   -2755314.71949  -2125319.39445  23092523.8084   23092531.3794
       215.0004        159.0004
  22546914.1954    -267178.16049   -422309.06846  22546914.4264   22546920.9004
       225.0004        175.0004
                  -1597777.11149  -1222108.04043
       210.0004         74.0004
  20936834.4984   -2193777.19949  -1687001.88647  20936834.9914   20936838.6584
       239.0004        207.0004
 07  2 17 16 31 15.0000000  0  9G30G 2G17G 5G 4G24G 9G10G12
  22920747.8084   -2731454.84049  -2110958.46845  22920748.5464   22920753.3524
       217.0004        161.0004
  20139043.9684   -1543000.84549  -1200157.95348  20139044.0304   20139046.7524
       244.0004        220.0004
  24563278.8544    -687641.03349   -551319.32145  24563279.2864   24563285.2924
       205.0004        142.0004
  20946096.4004   -2264731.76649  -1758553.92847  20946096.2994   20946101.5764
       236.0004        197.0004
  21870377.5784    -347900.68549   -278747.36346  21870378.1524   21870383.0124
       231.0004        184.0004
  23089445.6294   -2771491.65449  -2137924.79745  23089445.6294   23089452.7714
       216.0004        159.0004
  22549710.5794    -252483.18949   -410858.46146  22549710.5004   22549716.5954
       225.0004        175.0004
                  -1614646.96549  -1235253.35943
       211.0004         74.0004
  20935173.9264   -2202503.57449  -1693801.65747  20935174.4104   20935178.3364
       239.0004        207.0004
 07  2 17 16 31 20.0000000  0  9G30G 2G17G 5G 4G24G 9G10G12
  22917733.6124   -2747294.63249  -2123301.16245  22917734.0134   22917739.9954
       217.0004        161.0004
  20138941.9764   -1543536.93849  -1200575.68448  20138941.8914   20138944.6244
       244.0004        220.0004
  24565602.8994    -675428.01849   -541802.69645  24565603.4274   24565609.1924
       207.0004        141.0004
  20944280.3274   -2274275.37949  -1765990.50447  20944280.3064   20944285.4964
       236.0004        197.0004
  21873015.8924    -334036.30249   -267943.94846  21873016.5364   21873021.3074
       231.0004        184.0004
  23086368.6654   -2787661.27449  -2150524.49545  23086368.2904   23086376.1464
       217.0004        159.0004
  22552508.3844    -237780.63849   -399401.92946  22552508.4934   22552514.4834
       224.0004        175.0004
                  -1631514.97749  -1248397.24343
       211.0004         74.0004
  20933515.1914   -2211220.24449  -1700593.86647  20933515.7794   20933519.5174
       239.0004        207.0004
 07  2 17 16 31 25.0000000  0  9G30G 2G17G 5G 4G24G 9G10G12
  22914720.2554   -2763129.82349  -2135640.27545  22914721.4284   22914725.7224
       217.0004        161.0004
  20138842.6394   -1544058.97849  -1200982.47248  20138842.7494   20138845.3344
       244.0004        220.0004
  24567927.0584    -663214.56749   -532285.73345  24567928.2574   24567933.9464
       207.0004        141.0004
  20942466.2754   -2283808.22749  -1773418.70347  20942466.1124   20942471.3204
       236.0004        197.0004
  21875655.7104    -320164.04549   -257134.40246  21875656.2984   21875661.7104
       231.0004        184.0004
  23083293.0404   -2803823.69549  -2163118.58945  23083292.7194   23083300.3824
       216.0004        159.0004
  22555307.6114    -223070.62149   -387939.58346  22555308.0454   22555314.0194
       225.0004        175.0004
                  -1648381.24049  -1261539.76343
       211.0004         74.0004
  20931858.2904   -2219927.31949  -1707378.60247  20931858.8264   20931862.6064
       239.0004        207.0004
 07  2 17 16 31 30.0000000  0  9G30G 2G17G 5G 4G24G 9G10G12
  22911707.8514   -2778960.28249  -2147975.69845  22911708.3644   22911714.2944
       217.0004        161.0004
  20138746.0124   -1544566.81449  -1201378.18748  20138746.0664   20138748.7444
       244.0004        220.0004
  24570251.3124    -651000.58749   -522768.35845  24570252.2484   24570257.0584
       206.0004        141.0004
  20940654.3294   -2293330.15249  -1780838.38147  20940654.1674   20940659.3744
       235.0004        197.0004
  21878297.0354    -306283.77549   -246318.60446  21878297.8004   21878302.4004
       230.0004        184.0004
  23080218.8364   -2819978.79249  -2175706.97445  23080219.0674   23080226.1764
       215.0004        159.0004
  22558108.2884    -208353.05749   -376471.36046  22558109.4564   22558114.8294
       225.0004        175.0004
                  -1665245.62649  -1274680.82443
       212.0004         74.0004
  20930203.2404   -2228624.68449  -1714155.76847  20930203.7614   20930207.4414
       238.0004        207.0004
 07  2 17 16 31 35.0000000  0  9G30G 2G17G 5G 4G24G 9G10G12
  22908696.2764   -2794786.14949  -2160307.53545  22908696.8894   22908701.7544
       216.0004        161.0004
  20138652.0414   -1545060.54749  -1201762.91448  20138652.0814   20138654.7644
       244.0004        220.0004
  24572575.6664    -638786.12449   -513250.60245  24572576.5994   24572581.7124
       206.0004        140.0004
  20938844.4284   -2302841.29849  -1788249.66347  20938844.0504   20938849.5804
       235.0004        197.0004
  21880939.8924    -292395.59849   -235496.65446  21880940.7104   21880945.6434
       231.0004        184.0004
  23077146.0174   -2836126.67049  -2188289.73545  23077145.6844   23077153.2444
       217.0004        160.0004
  22560910.3684    -193628.04249   -364997.32946  22560910.6574   22560917.0394
       225.0004        175.0004
                  -1682108.23049  -1287820.49943
       212.0004         74.0004
  20928550.0204   -2237312.41849  -1720925.43047  20928550.4664   20928554.2454
       239.0004        207.0004
 07  2 17 16 31 40.0000000  0  9G30G 2G17G 5G 4G24G 9G10G12
  22905685.5824   -2810607.46949  -2172635.83645  22905686.2834   22905691.5444
       217.0004        161.0004
  20138560.7854   -1545540.20849  -1202136.67448  20138560.8244   20138563.4614
       244.0004        220.0004
  24574900.0774    -626571.25349   -503732.53945  24574900.9504   24574906.8694
       206.0004        141.0004
  20937036.5634   -2312341.62849  -1795652.52047  20937036.6014   20937041.6354
       236.0004        197.0004
  21883584.1964    -278499.70049   -224668.68846  21883584.3704   21883589.6744
       231.0004        184.0004
  23074074.5514   -2852267.31249  -2200866.85545  23074074.3114   23074081.9164
       216.0004        159.0004
  22563713.8734    -178895.61149   -353517.52046  22563714.6154   22563719.7814
       225.0004        175.0004
                  -1698969.02549  -1300958.77043
       211.0004         74.0004
  20926898.6294   -2245990.55049  -1727687.60847  20926899.1194   20926902.9164
       239.0004        207.0004
 07  2 17 16 31 45.0000000  0  9G30G 2G17G 5G 4G24G 9G10G12
  22902675.7924   -2826423.95549  -2184960.36045  22902675.9174   22902681.1694
       217.0004        161.0004
  20138472.2044   -1546005.61249  -1202499.32548  20138472.2064   20138474.9794
       244.0004        220.0004
  24577224.6244    -614355.71249   -494213.94845  24577225.3314   24577230.4934
       207.0004        140.0004
  20935230.8194   -2321830.94149  -1803046.78647  20935230.7414   20935235.7214
       236.0004        197.0004
  21886230.0464    -264595.69749   -213834.39346  21886230.1284   21886235.5584
       231.0004        184.0004
  23071004.5014   -2868400.50449  -2213438.16645  23071004.7064   23071011.8344
       217.0004        160.0004
  22566518.8194    -164155.59749   -342031.79746  22566519.2344   22566524.9574
       225.0004        175.0004
                  -1715827.78349  -1314095.45244                  23511121.8734
       212.0004        105.0004
  20925249.1144   -2254658.84349  -1734442.12247  20925249.4514   20925253.4594
       239.0004        207.0004
 07  2 17 16 31 50.0000000  0  9G30G 2G17G 5G 4G24G 9G10G12
  22899666.8714   -2842235.96749  -2197281.40645  22899667.9204   22899672.9334
       217.0004        161.0004
  20138386.3104   -1546457.07549  -1202851.11548  20138386.3754   20138389.0124
       244.0004        220.0004
  24579549.2114    -602139.87849   -484695.13245  24579550.0424   24579555.3534
       207.0004        141.0004
  20933427.0834   -2331309.55749  -1810432.71847  20933426.6504   20933432.3424
       236.0004        197.0004
  21888877.3384    -250684.00449   -202994.11746  21888878.2854   21888882.9644
       231.0004        184.0004
  23067935.8304   -2884526.54749  -2226003.90845  23067936.0304   23067942.6324
       215.0004        160.0004
  22569325.1564    -149408.28649   -330540.39846  22569325.3514   22569330.9054
       225.0004        175.0004
                  -1732684.82549  -1327230.80544                  23507914.0234
       211.0004        119.0004
  20923601.4044   -2263317.62149  -1741189.22347  20923601.6724   20923605.6464
       239.0004        208.0004
 07  2 17 16 31 55.0000000  0  9G30G 2G17G 5G 4G24G 9G10G12
  22896658.9084   -2858042.94449  -2209598.53745  22896659.1734   22896665.2594
       218.0004        161.0004
  20138303.1464   -1546894.10949  -1203191.66048  20138303.2134   20138305.9024
       244.0004        220.0004
  24581873.9864    -589923.25849   -475175.69745  24581874.4524   24581879.6614
       207.0004        140.0004
  20931625.4934   -2340776.96049  -1817809.91447  20931625.2274   20931630.5254
       236.0004        197.0004
  21891526.2174    -236764.13049   -192147.45946  21891526.9214   21891532.4634
       231.0004        184.0004
  23064868.6184   -2900644.97749  -2238563.72445  23064868.7044   23064876.1494
       217.0004        160.0004
  22572132.9654    -134653.24649   -319042.97246  22572132.9384   22572139.1224
       225.0004        175.0004
                  -1749539.67749  -1340364.45644                  23504706.2784
       211.0004        128.0004
  20921955.5884   -2271966.38749  -1747928.51947  20921956.0514   20921959.9074
       239.0004        208.0004
 07  2 17 16 32  0.0000000  0  9G30G 2G17G 5G 4G24G 9G10G12
  22893651.7534   -2873845.56549  -2221912.26545  22893652.7044   22893657.1924
       217.0004        161.0004
  20138222.6264   -1547317.35049  -1203521.45848  20138222.6894   20138225.2424
       245.0004        220.0004
  24584198.7454    -577706.48149   -465656.13945  24584199.7034   24584203.7544
       207.0004        140.0004
  20929825.9164   -2350233.81649  -1825178.89447  20929825.6634   20929831.1214
       236.0004        197.0004
  21894176.4744    -222836.81049   -181295.01446  21894176.5474   21894182.4024
       231.0004        185.0004
  23061802.7224   -2916756.40349  -2251118.08045  23061802.4864   23061810.3414
       215.0004        160.0004
  22574942.1354    -119891.09349   -307540.00946  22574942.8324   22574948.0184
       224.0004        175.0004
                  -1766392.93449  -1353496.86745                  23501499.4764
       211.0004        133.0004
  20920311.5614   -2280605.78149  -1754660.51347  20920312.1394   20920315.8194
       239.0004        208.0004
 07  2 17 16 32  5.0000000  0  9G30G 2G17G 5G 4G24G 9G10G12
  22890645.5574   -2889643.30049  -2234222.18545  22890645.9964   22890651.4514
       218.0004        162.0004
  20138144.8064   -1547726.29549  -1203840.11748  20138144.9224   20138147.5704
       244.0004        220.0004
  24586523.6554    -565489.00349   -456136.04145  24586524.2034   24586529.5704
       204.0004        140.0004
  20928028.4474   -2359679.58149  -1832539.22647  20928028.1984   20928033.3814
       236.0004        197.0004
  21896828.2984    -208901.39449   -170436.24546  21896828.9614   21896833.3584
       231.0004        185.0004
  23058738.2494   -2932860.34449  -2263666.60545  23058738.6674   23058745.6414
       215.0004        160.0004
  22577752.7144    -105121.38249   -296031.14146  22577752.9674   22577759.0924
       225.0004        175.0004
                  -1783244.09649  -1366627.64445                  23498292.9894
       211.0004        136.0004
  20918669.4294   -2289235.24749  -1761384.77247  20918669.8164   20918673.6364
       239.0004        208.0004
 07  2 17 16 32 10.0000000  0  9G30G 2G17G 5G 4G24G 9G10G12
  22887640.2034   -2905436.47849  -2246528.54945  22887640.5164   22887646.1534
       217.0004        162.0004
  20138069.6474   -1548121.27449  -1204147.89148  20138069.6744   20138072.2914
       244.0004        220.0004
  24588848.6334    -553271.18049   -446615.67745  24588849.2444   24588854.2924
       206.0004        140.0004
  20926233.0304   -2369114.60049  -1839891.18947  20926232.7114   20926238.0974
       236.0004        197.0004
  21899481.5724    -194958.41249   -159571.58846  21899481.9444   21899487.2274
       231.0004        185.0004
  23055675.1644   -2948957.09649  -2276209.52745  23055675.2684   23055682.8254
       216.0004        160.0004
  22580564.7064     -90344.41749   -284516.63146  22580565.4404   22580570.7274
       225.0004        175.0004
  23495080.6804   -1800093.45649  -1379757.02645  23495078.3164   23495086.4534
       211.0004        139.0004
  20917029.1204   -2297855.11449  -1768101.55347  20917029.5324   20917033.3014
       239.0004        208.0004
 07  2 17 16 32 15.0000000  0  9G30G 2G17G 5G 4G24G 9G10G12
  22884635.8124   -2921224.72149  -2258831.07645  22884636.5364   22884641.9084
       217.0004        162.0004
  20137997.2144   -1548501.94649  -1204444.52048  20137997.2154   20137999.7484
       244.0004        220.0004
  24591173.7044    -541052.68149   -437094.77545  24591174.5244   24591179.6714
       207.0004        140.0004
  20924439.7254   -2378538.46549  -1847234.46647  20924439.6824   20924444.7324
       235.0004        197.0004
  21902136.3934    -181007.29349   -148700.58946  21902137.2364   21902141.7884
       231.0004        184.0004
  23052613.5004   -2965046.29149  -2288746.55045  23052613.5184   23052620.7884
       218.0004        161.0004
  22583378.1104     -75559.88449   -272996.22646  22583378.7224   22583383.5614
       225.0004        175.0004
  23491874.7814   -1816940.68749  -1392884.74145  23491872.5454   23491880.3614
       212.0004        141.0004
  20915390.7214   -2306465.02549  -1774810.57547  20915391.2564   20915394.8684
       239.0004        208.0004
 07  2 17 16 32 20.0000000  0  9G30G 2G17G 5G 4G24G 9G10G12
  22881632.3054   -2937008.17849  -2271129.87245  22881632.6754   22881638.7044
       218.0004        162.0004
  20137927.4514   -1548868.49849  -1204730.14148  20137927.5134   20137930.0854
       244.0004        220.0004
  24593498.8804    -528833.64349   -427573.46145  24593499.2354   24593504.5284
       207.0004        140.0004
  20922648.5274   -2387951.34749  -1854569.17447  20922648.4524   20922653.5544
       235.0004        197.0004
  21904792.6954    -167048.39749   -137823.52646  21904793.4574   21904798.4434
       231.0004        184.0004
  23049553.2244   -2981128.10049  -2301277.83245  23049553.3864   23049560.9204
       217.0004        161.0004
  22586192.9334     -60767.96049   -261470.06246  22586192.9044   22586198.8744
       224.0004        175.0004
  23488669.1524   -1833785.92349  -1406010.90145  23488667.0444   23488674.0424
       211.0004        142.0004
  20913754.1754   -2315065.14049  -1781511.96047  20913754.6894   20913758.5244
       239.0004        208.0004
 07  2 17 16 32 25.0000000  0  9G30G 2G17G 5G 4G24G 9G10G12
  22878629.7144   -2952786.86349  -2283424.94645  22878629.7144   22878635.3624
       215.0004        162.0004
  20137860.3764   -1549220.99649  -1205004.81648  20137860.3894   20137863.1214
       244.0004        220.0004
  24595824.1824    -516614.10649   -418051.75945  24595825.1454   24595830.5174
       206.0004        140.0004
  20920859.3984   -2397353.34449  -1861895.40547  20920859.3804   20920864.2934
       236.0004        197.0004
  21907450.4704    -153081.73849   -126940.41946  21907450.9374   21907456.0134
       231.0004        184.0004
  23046494.3524   -2997202.57649  -2313803.39945  23046494.4244   23046501.6264
       217.0004        161.0004
  22589009.1404     -45968.74049   -249938.21046  22589009.7844   22589015.3414
       226.0004        175.0004
  23485463.8684   -1850629.19849  -1419135.53745  23485461.7534   23485469.4494
       211.0004        143.0004
  20912119.4774   -2323655.51749  -1788205.76047  20912119.9814   20912123.6024
       239.0004        208.0004
 07  2 17 16 32 30.0000000  0  9G30G 2G17G 5G 4G24G 9G10G12
  22875627.9784   -2968560.91549  -2295716.41745  22875628.4324   22875633.7404
       218.0004        162.0004
  20137795.9924   -1549559.49149  -1205268.57648  20137796.0844   20137798.7704
       244.0004        220.0004
  24598149.5414    -504394.21849   -408529.78745  24598151.2044   24598156.0154
       209.0004        140.0004
  20919072.3074   -2406744.43949  -1869213.13847  20919071.9284   20919077.6934
       236.0004        197.0004
  21910109.6874    -139107.43949   -116051.35946  21910110.3364   21910115.7384
       230.0004        184.0004
  23043436.8854   -3013269.76949  -2326323.28545  23043436.4514   23043444.1104
       216.0004        161.0004
  22591826.7534     -31162.26249   -238400.70446  22591827.2634   22591832.8264
       225.0004        175.0004
  23482258.8924   -1867470.56149  -1432258.67745  23482257.3914   23482265.2574
       212.0004        144.0004
  20910486.6304   -2332236.21949  -1794892.01947  20910487.0114   20910490.7394
       239.0004        208.0004
 07  2 17 16 32 35.0000000  0  9G30G 2G17G 5G 4G24G 9G10G12
  22872627.2084   -2984330.04249  -2308004.04145  22872628.1694   22872632.6954
       218.0004        162.0004
  20137734.2964   -1549883.72249  -1205521.22348  20137734.2674   20137736.9604
       244.0004        220.0004
  24600475.0694    -492173.64749   -399007.28045  24600475.5254   24600481.3214
       210.0004        140.0004
  20917287.3794   -2416124.39949  -1876522.20047  20917287.1134   20917292.8194
       236.0004        197.0004
  21912770.4624    -125125.16049   -105156.07846  21912770.9344   21912775.9064
       231.0004        184.0004
  23040380.8334   -3029329.42049  -2338837.29945  23040381.2064   23040388.2654
       217.0004        161.0004
  22594645.7684     -16348.32949   -226857.38446  22594646.7524   22594651.8954
       224.0004        175.0004
  23479054.3274   -1884309.73449  -1445380.11145  23479052.7004   23479060.1564
       212.0004        144.0004
  20908855.6944   -2340806.96949  -1801570.52447  20908856.1704   20908859.7674
       239.0004        208.0004
 07  2 17 16 32 40.0000000  0  9G30G 2G17G 5G 4G24G 9G10G12
  22869627.3774   -3000094.22349  -2320287.81645  22869628.0264   22869633.0864
       218.0004        162.0004
  20137675.2764   -1550193.76249  -1205762.81448  20137675.2684   20137677.8644
       244.0004        219.0004
  24602800.7264    -479952.45149   -389484.27745  24602800.9554   24602806.6194
       209.0004        141.0004
  20915504.5344   -2425493.28449  -1883822.62947  20915504.4284   20915509.8284
       236.0004        197.0004
  21915432.6774    -111135.04349    -94254.68846  21915432.9414   21915438.3734
       230.0004        184.0004
  23037326.2084   -3045381.58949  -2351345.48145  23037326.6514   23037333.3454
       216.0004        161.0004
  22597466.1954      -1526.97549   -215308.28946  22597465.9704   22597472.5044
       226.0004        175.0004
  23475850.2294   -1901146.74149  -1458499.86545  23475848.9684   23475856.5684
       210.0004        145.0004
  20907226.6104   -2349367.84449  -1808241.33947  20907227.0384   20907230.9924
       239.0004        208.0004
 07  2 17 16 32 45.0000000  0  9G30G 2G17G 5G 4G24G 9G10G12
  22866628.4734   -3015853.67549  -2332567.91045  22866629.2324   22866634.3204
       217.0004        162.0004
  20137618.9574   -1550489.80049  -1205993.49248  20137618.8474   20137621.5444
       244.0004        219.0004
  24605126.4764    -467730.85649   -379960.95945  24605127.0754   24605132.2884
       209.0004        141.0004
  20913723.7854   -2434851.28149  -1891114.57047  20913723.5104   20913729.1924
       236.0004        197.0004
  21918096.3714     -97137.29849    -83347.35946  21918096.8974   21918101.9524
       232.0004        184.0004
  23034272.9624   -3061426.46749  -2363847.97545  23034272.9354   23034280.2974
       217.0004        162.0004
  22600287.9834      13301.55549   -203753.59246  22600288.9664   22600294.2014
       225.0004        175.0004
  23472646.5024   -1917981.78449  -1471618.07945  23472645.1464   23472652.3974
       213.0004        145.0004
  20905599.3734   -2357918.98349  -1814904.56047  20905599.6754   20905603.5854
       239.0004        208.0004
 07  2 17 16 32 50.0000000  0  9G30G 2G17G 5G 4G24G 9G10G12
  22863630.4764   -3031608.22349  -2344844.17845  22863631.0684   22863636.0634
       218.0004        162.0004
  20137565.3204   -1550771.64649  -1206213.11448  20137565.3944   20137568.0064
       244.0004        219.0004
  24607452.3434    -455508.69249   -370437.20545  24607453.0754   24607458.5144
       208.0004        141.0004
  20911945.1144   -2444198.18549  -1898397.87647  20911945.0524   20911950.2714
       235.0004        197.0004
  21920761.5494     -83131.74649    -72433.94446  21920762.1424   21920767.3514
       231.0004        184.0004
  23031221.1484   -3077463.82849  -2376344.62245  23031220.9874   23031228.5104
       217.0004        162.0004
  22603111.1874      28137.43949   -192193.17146  22603111.9314   22603117.4674
       225.0004        174.0004
  23469443.2604   -1934814.64549  -1484734.59345  23469442.1034   23469449.2944
       213.0004        145.0004
  20903974.0504   -2366460.18849  -1821560.04947  20903974.5304   20903978.1454
       239.0004        208.0004
 07  2 17 16 32 55.0000000  0  9G30G 2G17G 5G 4G24G 9G10G12
  22860633.3764   -3047358.05649  -2357116.77245  22860634.4624   22860639.7104
       218.0004        162.0004
  20137514.3624   -1551039.51649  -1206421.84148  20137514.3694   20137516.9154
       244.0004        219.0004
  24609778.2494    -443286.13949   -360913.14145  24609779.1944   24609784.3364
       209.0004        140.0004
  20910168.5364   -2453534.17549  -1905672.66947  20910168.1824   20910173.7514
       236.0004        197.0004
  21923428.1754     -69118.54749    -61514.57246  21923428.4364   21923433.8974
       231.0004        184.0004
  23028170.7504   -3093493.90149  -2388835.58445  23028171.2894   23028178.2324
       219.0004        162.0004
  22605935.7204      42980.45949   -180627.19146  22605936.5764   22605941.7714
       224.0004        174.0004
  23466240.3864   -1951645.56049  -1497849.59845  23466239.4204   23466246.2734
       212.0004        146.0004
  20902350.5644   -2374991.70049  -1828207.97947  20902350.9144   20902354.6044
       239.0004        208.0004
 07  2 17 16 33  0.0000000  0  9G30G 2G17G 5G 4G24G 9G10G12
  22857637.2404   -3063103.00449  -2369385.56145  22857637.4074   22857643.2124
       218.0004        162.0004
  20137466.0564   -1551293.22449  -1206619.53648  20137465.9824   20137468.6654
       244.0004        219.0004
  24612104.2624    -431062.97949   -351388.60545  24612105.3144   24612109.9054
       206.0004        139.0004
  20908394.0814   -2462859.02749  -1912938.78747  20908393.5004   20908399.0444
       236.0004        197.0004
  21926096.3024     -55097.47049    -50589.06246  21926097.1894   21926101.7354
       231.0004        184.0004
  23025121.7574   -3109516.45449  -2401320.69245  23025121.8004   23025128.4534
       217.0004        162.0004
  22608761.6774      57830.82149   -169055.49346  22608761.6404   22608767.9534
       224.0004        174.0004
  23463037.9594   -1968474.27249  -1510962.88745  23463037.2774   23463044.1794
       212.0004        146.0004
  20900728.9614   -2383513.27149  -1834848.16147  20900729.2464   20900732.8554
       239.0004        208.0004
 07  2 17 16 33  5.0000000  0  9G30G 2G17G 5G 4G24G 9G10G12
  22854641.9664   -3078843.19849  -2381650.65345  22854641.9414   22854647.7914
       219.0004        162.0004
  20137420.4544   -1551532.93349  -1206806.32248  20137420.5344   20137423.1674
       245.0004        219.0004
  24614430.3714    -418839.38349   -341863.72645  24614430.7144   24614436.2144
       206.0004        139.0004
  20906621.7114   -2472172.93349  -1920196.37647  20906621.2174   20906626.8934
       236.0004        197.0004
  21928765.8584     -41068.84849    -39657.67246  21928766.1214   21928771.5644
       232.0004        184.0004
  23022074.1844   -3125531.69549  -2413800.09645  23022073.8404   23022080.6434
       218.0004        162.0004
  22611588.9694      72688.33349   -157478.21746  22611588.8934   22611594.8624
       225.0004        174.0004
  23459835.9454   -1985300.94749  -1524074.58445  23459835.3144   23459842.3464
       213.0004        147.0004
  20899109.2284   -2392025.08549  -1841480.74547  20899109.7674   20899113.1944
       239.0004        208.0004
 07  2 17 16 33 10.0000000  0  9G30G 2G17G 5G 4G24G 9G10G12
  22851647.6334   -3094578.45749  -2393911.88245  22851647.6444   22851652.6384
       217.0004        162.0004
  20137377.5204   -1551758.50849  -1206982.09348  20137377.5144   20137380.2584
       244.0004        219.0004
  24616756.5284    -406615.21649   -332338.40545  24616756.2644   24616762.5434
       206.0004        139.0004
  20904851.4284   -2481475.73649  -1927445.31347  20904851.2134   20904856.7184
       236.0004        197.0004
  21931436.8844     -27032.52449    -28720.27746  21931437.0624   21931442.0704
       231.0004        184.0004
  23019028.0284   -3141539.40449  -2426273.63445  23019028.2784   23019035.1874
       217.0004        162.0004
  22614417.6574      87553.09949   -145895.28646  22614418.2144   22614424.0564
       224.0004        174.0004
  23456634.3284   -2002125.44049  -1537184.57745  23456634.2504   23456640.9174
       213.0004        147.0004
  20897491.3604   -2400526.99749  -1848105.61047  20897491.8774   20897495.3294
       239.0004        208.0004
 07  2 17 16 33 15.0000000  0  8G30G 2G 5G 4G24G 9G10G12
  22848654.3234   -3110308.38849  -2406168.96845  22848654.7554   22848660.7164
       218.0004        162.0004
  20137337.3694   -1551969.60849  -1207146.58848  20137337.4314   20137340.0544
       244.0004        219.0004
  20903083.3474   -2490767.08549  -1934685.32547  20903082.9774   20903088.5354
       236.0004        197.0004
  21934109.4414     -12988.16249    -17776.61946  21934110.5214   21934114.9744
       232.0004        184.0004
  23015983.3514   -3157539.28249  -2438741.06645  23015983.2864   23015990.5804
       217.0004        162.0004
  22617247.7574     102425.45149   -134306.44946  22617247.2064   22617254.4744
       224.0004        174.0004
  23453433.2034   -2018947.38649  -1550292.58545  23453433.3664   23453440.0914
       212.0004        148.0004
  20895875.4624   -2409018.60649  -1854722.44747  20895875.7564   20895879.6274
       239.0004        208.0004
 07  2 17 16 33 20.0000000  0  8G30G 2G 5G 4G24G 9G10G12
  22845661.9764   -3126033.31849  -2418422.15545  22845662.5874   22845668.1604
       220.0004        162.0004
  20137299.8984   -1552166.49049  -1207300.00248  20137299.9874   20137302.4884
       244.0004        219.0004
  20901317.3994   -2500047.26649  -1941916.63447  20901317.1994   20901322.7504
       236.0004        197.0004
  21936783.4904       1064.01349     -6826.87846  21936783.8614   21936788.9634
       232.0004        183.0004
  23012940.1234   -3173531.57549  -2451202.60045  23012939.8234   23012946.9744
       218.0004        162.0004
  22620079.2664     117305.11549   -122711.91746  22620079.4954   22620085.5334
       225.0004        174.0004
  23450232.5104   -2035767.07649  -1563398.84145  23450232.1824   23450239.6394
       213.0004        148.0004
  20894261.4684   -2417500.20649  -1861331.48847  20894262.1234   20894265.4734
       239.0004        208.0004
 07  2 17 16 33 25.0000000  0  8G30G 2G 5G 4G24G 9G10G12
  22842670.5624   -3141753.30449  -2430671.50146  22842671.4984   22842676.1184
       218.0004        163.0004
  20137265.1014   -1552349.25849  -1207442.41948  20137265.1514   20137267.7464
       244.0004        219.0004
  20899553.5354   -2509316.33249  -1949139.28447  20899553.2804   20899558.8714
       236.0004        197.0004
  21939459.0104      15123.92249      4128.89246  21939459.1484   21939464.1944
       231.0004        183.0004
  23009898.3404   -3189516.34149  -2463658.25745  23009898.3394   23009905.4314
       217.0004        162.0004
  22622912.1414     132191.98349   -111111.76446  22622912.5644   22622918.8564
       223.0004        174.0004
  23447032.2184   -2052584.55749  -1576503.37245  23447031.7784   23447038.8134
       213.0004        148.0004
  20892649.3774   -2425971.88149  -1867932.79547  20892649.8694   20892653.3904
       239.0004        208.0004
 07  2 17 16 33 30.0000000  0  8G30G 2G 5G 4G24G 9G10G12
  22839680.0684   -3157468.53649  -2442917.13546  22839681.0984   22839686.0984
       218.0004        163.0004
  20137232.9914   -1552518.09649  -1207573.98148  20137232.9244   20137235.6854
       244.0004        219.0004
  20897791.7784   -2518574.40949  -1956353.37147  20897791.4304   20897796.8174
       236.0004        197.0004
  21942135.9384      29191.22949     15090.42846  21942136.2354   21942141.3984
       232.0004        183.0004
  23006857.9254   -3205493.75549  -2476108.18445  23006858.3234   23006865.3934
       218.0004        162.0004
  22625746.3764     147085.88549    -99506.13646  22625746.4124   22625752.4224
       224.0004        174.0004
  23443832.3464   -2069399.97049  -1589606.29245  23443832.3034   23443839.0994
       214.0004        149.0004
  20891039.1434   -2434433.75349  -1874526.45847  20891039.5344   20891043.2514
       239.0004        208.0004
 07  2 17 16 33 35.0000000  0  8G30G 2G 5G 4G24G 9G10G12
  22836690.4914   -3173178.85549  -2455158.93846  22836691.2684   22836696.8284
       220.0004        163.0004
  20137203.5394   -1552672.87449  -1207694.58648  20137203.6044   20137206.3384
       245.0004        219.0004
  20896032.1354   -2527821.40349  -1963558.81947  20896031.8584   20896037.2084
       236.0004        197.0004
  21944814.3394      43266.18249     26057.92646  21944814.6114   21944820.0804
       232.0004        183.0004
  23003818.9564   -3221463.71349  -2488552.30845  23003819.3874   23003826.5904
       218.0004        162.0004
  22628581.9374     161986.86949    -87894.98446  22628582.2384   22628588.5234
       223.0004        174.0004
  23440632.8814   -2086213.20349  -1602707.51545  23440632.4684   23440639.7764
       215.0004        149.0004
  20889430.7884   -2442885.72149  -1881112.40847  20889431.1484   20889434.9484
       240.0004        208.0004
 07  2 17 16 33 40.0000000  0  8G30G 2G 5G 4G24G 9G10G12
  22833701.8914   -3188884.07749  -2467396.77546  22833702.6974   22833707.8054
       220.0004        163.0004
  20137176.7874   -1552813.41449  -1207804.09848  20137176.8934   20137179.4494
       244.0004        219.0004
  20894274.6464   -2537057.15049  -1970755.50447  20894274.4154   20894279.6704
       236.0004        197.0004
  21947494.2064      57348.99049     37031.54146  21947494.4864   21947499.3834
       231.0004        183.0004
  23000781.4444   -3237426.00049  -2500990.45045  23000781.7404   23000788.5894
       217.0004        162.0004
  22631418.8694     176895.11949    -76278.18146  22631419.7444   22631425.3294
       226.0004        174.0004
  23437433.9144   -2103024.04249  -1615806.87345  23437433.4124   23437440.5764
       214.0004        149.0004
  20887824.3734   -2451327.57849  -1887690.47847  20887824.8904   20887828.5974
       239.0004        208.0004
 07  2 17 16 33 45.0000000  0  8G30G 2G 5G 4G24G 9G10G12
  22830714.1414   -3204584.82649  -2479631.12346  22830714.3954   22830719.6144
       219.0004        163.0004
  20137152.6404   -1552940.38549  -1207903.03348  20137152.7594   20137155.4084
       244.0004        219.0004
  20892519.1854   -2546282.21949  -1977943.86847  20892518.9204   20892524.4544
       236.0004        198.0004
  21950175.4484      71438.92549     48010.70946  21950176.1294   21950180.7144
       231.0004        183.0004
  22997745.2604   -3253381.23749  -2513423.09845  22997745.3824   22997752.2924
       216.0004        162.0004
  22634257.1254     191810.11049    -64656.11446  22634257.3404   22634263.7274
       225.0004        174.0004
  23434235.2664   -2119833.07349  -1628904.82045  23434234.4774   23434241.9514
       213.0004        149.0004
  20886219.7464   -2459759.96149  -1894261.16147  20886220.1914   20886223.8354
       239.0004        208.0004
 07  2 17 16 33 50.0000000  0  8G30G 2G 5G 4G24G 9G10G12
  22827727.3794   -3220280.48549  -2491861.50546  22827728.1034   22827733.3394
       219.0004        163.0004
  20137131.1834   -1553053.16349  -1207990.91348  20137131.2344   20137133.8844
       244.0004        219.0004
  20890765.8604   -2555496.00149  -1985123.43747  20890765.7344   20890771.0564
       235.0004        198.0004
  21952858.1554      85536.54349     58995.86046  21952858.3724   21952863.7424
       230.0004        183.0004
  22994710.5424   -3269328.81549  -2525849.78545  22994710.4934   22994717.5784
       215.0004        162.0004
  22637096.7404     206732.33949    -53028.40746  22637097.4244   22637103.4324
       223.0004        174.0004
  23431037.1024   -2136639.72149  -1642000.90745  23431036.3814   23431043.7854
       214.0004        149.0004
  20884617.0494   -2468182.24249  -1900823.98047  20884617.4104   20884621.2864
       239.0004        208.0004
 07  2 17 16 33 55.0000000  0  8G30G 2G 5G 4G24G 9G10G12
  22824741.5224   -3235971.23549  -2504088.05246  22824741.7804   22824747.3424
       220.0004        163.0004
  20137112.3934   -1553151.96849  -1208067.90348  20137112.5274   20137115.0234
       245.0004        219.0004
  20889014.6534   -2564698.70049  -1992294.37147  20889014.3164   20889019.8484
       236.0004        198.0004
  21955542.2814      99641.70049     69986.89346  21955542.9244   21955548.2314
       231.0004        183.0004
  22991677.2374   -3285268.90649  -2538270.62645  22991676.9534   22991684.5104
       217.0004        162.0004
  22639937.7004     221661.58149    -41395.23446  22639937.9874   22639944.2714
       224.0004        174.0004
  23427839.3464   -2153444.16049  -1655095.27945  23427838.9754   23427845.9594
       214.0004        149.0004
  20883016.2174   -2476594.62349  -1907379.08047  20883016.6984   20883020.1974
       239.0004        208.0004
 07  2 17 16 34  0.0000000  0  8G30G 2G 5G 4G24G 9G10G12
  22821756.5954   -3251657.06749  -2516310.78546  22821756.5374   22821762.2554
       220.0004        164.0004
  20137096.2654   -1553236.82049  -1208134.02248  20137096.4584   20137099.0724
       244.0004        219.0004
  20887265.5424   -2573890.31849  -1999456.66947  20887265.3574   20887270.6324
       236.0004        198.0004
  21958227.8514     113754.36949     80983.77346  21958228.4054   21958233.2544
       231.0004        183.0004
  22988645.3224   -3301201.57749  -2550685.70245  22988645.4224   22988652.1724
       217.0004        162.0004
  22642779.9644     236597.79849    -29756.62846  22642780.0804   22642786.2044
       224.0004        174.0004
  23424642.0024   -2170246.39749  -1668187.93345  23424641.2384   23424648.3764
       214.0004        150.0004
  20881417.2894   -2484997.09349  -1913926.46047  20881417.7554   20881421.4184
       239.0004        208.0004
 07  2 17 16 34  5.0000000  0  8G30G 2G 5G 4G24G 9G10G12
  22818772.6534   -3267337.82249  -2528529.55446  22818772.8824   22818778.9804
       219.0004        164.0004
  20137082.8134   -1553307.59449  -1208189.16948  20137082.8784   20137085.5224
       244.0004        219.0004
  20885518.5704   -2583070.76649  -2006610.26447  20885518.3764   20885523.9744
       236.0004        198.0004
  21960914.8524     127874.63349     91986.57546  21960915.0254   21960920.3394
       231.0004        182.0004
  22985614.9064   -3317126.64949  -2563094.84845  22985614.7904   22985622.8554
       217.0004        162.0004
  22645623.6184     251541.09549    -18112.51246  22645624.1514   22645629.5754
       221.0004        174.0004
  23421445.0924   -2187046.27649  -1681278.74945  23421444.3414   23421451.1384
       214.0004        150.0004
  20879820.2654   -2493389.57149  -1920466.04847  20879820.7614   20879824.2574
       239.0004        208.0004
 07  2 17 16 34 10.0000000  0  8G30G 2G 5G 4G24G 9G10G12
  22815789.6484   -3283013.63349  -2540744.47146  22815790.0974   22815794.7674
       219.0004        164.0004
  20137072.0014   -1553364.40549  -1208233.43948  20137072.0554   20137074.6694
       244.0004        219.0004
  20883773.7104   -2592240.10949  -2013755.20847  20883773.5544   20883778.7904
       237.0004        198.0004
  21963603.2374     142002.27749    102995.12046  21963604.1934   21963608.9684
       232.0004        182.0004
  22982585.8604   -3333044.22849  -2575498.14745  22982586.2874   22982593.0464
       217.0004        161.0004
  22648468.5464     266491.35549     -6462.96246  22648469.3014   22648474.8474
       223.0004        174.0004
  23418248.6254   -2203843.93949  -1694367.83445  23418248.0744   23418255.1454
       214.0004        150.0004
  20878225.1264   -2501772.14449  -1926997.92747  20878225.5654   20878229.1044
       239.0004        208.0004
 07  2 17 16 34 15.0000000  0  8G30G 2G 5G 4G24G 9G10G12
  22812807.5944   -3298684.37849  -2552955.43546  22812808.5714   22812813.2814
       219.0004        164.0004
  20137063.8654   -1553407.13149  -1208266.73348  20137063.9614   20137066.5814
       244.0004        220.0004
  20882030.9944   -2601398.19849  -2020891.38647  20882030.9514   20882036.2004
       236.0004        198.0004
  21966293.1064     156137.58649    114009.64446  21966293.6314   21966298.7564
       230.0004        182.0004
  22979558.3004   -3348954.22549  -2587895.54345  22979557.9034   22979565.0224
       216.0004        161.0004
  22651314.8374     281448.66949      5192.07846  22651315.1714   22651321.3174
       222.0004        174.0004
  23415052.5894   -2220639.23949  -1707455.08145  23415051.8674   23415059.0084
       214.0004        150.0004
  20876631.8834   -2510144.69849  -1933521.99647  20876632.2884   20876635.9624
       239.0004        208.0004
 07  2 17 16 34 20.0000000  0  8G30G 2G 5G 4G24G 9G10G12
  22809826.4544   -3314350.34849  -2565162.67946  22809827.3754   22809832.1694
       220.0004        164.0004
  20137058.3684   -1553436.01949  -1208289.23848  20137058.4154   20137061.0064
       244.0004        220.0004
  20880290.3864   -2610545.30249  -2028018.99247  20880290.1464   20880295.7664
       236.0004        198.0004
  21968984.3964     170280.18249    125029.84746  21968984.8384   21968990.2124
       231.0004        182.0004
  22976532.1374   -3364856.86349  -2600287.21245  22976532.9374   22976538.8544
       216.0004        161.0004
  22654162.4344     296412.79149     16852.42146  22654162.5104   22654169.2764
       223.0004        173.0004
  23411856.9354   -2237432.38349  -1720540.65145  23411856.1694   23411863.6634
       213.0004        151.0004
  20875040.5074   -2518507.43449  -1940038.41147  20875040.9904   20875044.4034
       239.0004        208.0004
 07  2 17 16 34 25.0000000  0  8G30G 2G 5G 4G24G 9G10G12
  22806846.2834   -3330011.20849  -2577365.94846  22806846.4494   22806851.5364
       219.0004        164.0004
  20137055.5984   -1553450.75749  -1208300.72748  20137055.5374   20137058.1974
       244.0004        219.0004
  20878551.8994   -2619681.10349  -2035137.80147  20878551.7694   20878557.0424
       236.0004        198.0004
  21971677.0974     184430.42149    136056.00546  21971677.3344   21971682.9274
       231.0004        182.0004
  22973507.4154   -3380751.82149  -2612672.89745  22973506.7424   22973514.3704
       216.0004        161.0004
  22657011.3654     311384.03449     28518.30946  22657011.3774   22657017.3254
       224.0004        173.0004
  23408661.7824   -2254223.07149  -1733624.31045  23408661.3114   23408669.0344
       212.0004        151.0004
  20873451.0544   -2526860.02149  -1946546.92147  20873451.4004   20873455.0154
       238.0004        208.0004
 07  2 17 16 34 30.0000000  0  8G30G 2G 5G 4G24G 9G10G12
  22803867.0674   -3345667.16349  -2589565.39446  22803867.3514   22803872.6784
       220.0004        164.0004
  20137055.4304   -1553451.62749  -1208301.40548  20137055.4174   20137058.0174
       245.0004        219.0004
  20876815.5194   -2628805.83049  -2042247.97947  20876815.1924   20876820.4844
       236.0004        198.0004
  21974371.2104     198587.98449    147087.86946  21974371.3294   21974376.3814
       231.0004        182.0004
  22970484.1214   -3396639.36749  -2625052.79145  22970483.6054   22970491.7274
       216.0004        161.0004
  22659861.6014     326362.12349     40189.54846  22659862.4344   22659867.5274
       224.0004        173.0004
  23405467.0514   -2271011.51049  -1746706.20845  23405466.8424   23405474.0824
       213.0004        151.0004
  20871863.5094   -2535202.72249  -1953047.72847  20871863.9694   20871867.7524
       239.0004        208.0004
 07  2 17 16 34 35.0000000  0  8G30G 2G 5G 4G24G 9G10G12
  22800888.8214   -3361317.90549  -2601760.77946  22800889.1534   22800894.2754
       220.0004        164.0004
  20137057.9564   -1553438.32549  -1208291.04048  20137057.9354   20137060.4734
       244.0004        219.0004
  20875081.3154   -2637919.17049  -2049349.28447  20875081.1624   20875086.3064
       236.0004        198.0004
  21977066.7784     212753.16049    158125.66646  21977067.1234   21977071.9314
       230.0004        182.0004
  22967462.2724   -3412519.17849  -2637426.66845  22967462.5074   22967469.4004
       217.0004        161.0004
  22662713.1884     341347.27549     51866.27246  22662713.2204   22662719.1454
       224.0004        173.0004
  23402272.7874   -2287797.41449  -1759786.13645  23402271.9544   23402279.3054
       213.0004        151.0004
  20870277.8754   -2543535.23949  -1959540.59847  20870278.4274   20870282.0294
       239.0004        208.0004
 07  2 17 16 34 40.0000000  0  8G30G 2G 5G 4G24G 9G10G12
  22797911.5314   -3376963.53449  -2613952.17246  22797911.9744   22797917.4244
       220.0004        164.0004
  20137063.1664   -1553410.97649  -1208269.73048  20137063.1514   20137065.7234
       245.0004        219.0004
  20873349.2554   -2647021.25849  -2056441.82047  20873348.9914   20873354.3334
       236.0004        198.0004
  21979763.7434     226925.81049    169169.28446  21979764.1764   21979769.2734
       231.0004        182.0004
  22964441.9044   -3428391.34849  -2649794.59345  22964441.7384   22964449.1744
       215.0004        160.0004
  22665566.1114     356339.43349     63548.46646  22665566.5254   22665573.1114
       223.0004        173.0004
  23399079.0054   -2304580.87249  -1772864.15545  23399078.2354   23399085.6724
       213.0004        151.0004
  20868694.1624   -2551857.66249  -1966025.60447  20868694.5034   20868698.2524
       239.0004        208.0004
 07  2 17 16 34 45.0000000  0  8G30G 2G 5G 4G24G 9G10G12
  22794935.2324   -3392604.19249  -2626139.69246  22794935.7244   22794940.7984
       219.0004        164.0004
  20137071.0274   -1553369.67149  -1208237.54348  20137071.0964   20137073.5824
       244.0004        219.0004
  20871619.3034   -2656112.20249  -2063525.67247  20871619.0994   20871624.0904
       236.0004        198.0004
  21982462.1224     241105.86549    180218.67246  21982462.4284   21982467.1994
       231.0004        182.0004
  22961422.9324   -3444256.03649  -2662156.68245  22961423.0384   22961429.4954
       217.0004        160.0004
  22668420.3104     371338.40649     75235.96646  22668420.9994   22668426.9764
       223.0004        173.0004
  23395885.6724   -2321361.97849  -1785940.34345  23395884.8164   23395892.7704
       213.0004        151.0004
  20867112.3664   -2560170.13049  -1972502.84747  20867112.5594   20867116.5664
       239.0004        208.0004
 07  2 17 16 34 50.0000000  0  8G30G 2G 5G 4G24G 9G10G12
  22791959.8734   -3408239.89249  -2638323.35946  22791960.6444   22791966.2264
       220.0004        164.0004
  20137081.5174   -1553314.52049  -1208194.56948  20137081.6484   20137084.1814
       244.0004        219.0004
  20869891.4724   -2665192.03549  -2070600.86747  20869891.3354   20869896.3974
       235.0004        198.0004
  21985161.8934     255293.18849    191273.72646  21985161.4894   21985166.8044
       230.0004        182.0004
  22958405.4074   -3460113.22849  -2674512.93345  22958405.1174   22958412.5294
       216.0004        160.0004
  22671275.8214     386344.12949     86928.73146  22671275.5924   22671282.0724
       223.0004        173.0004
  23392692.7794   -2338140.81849  -1799014.76445  23392692.1464   23392700.1984
       211.0004        151.0004
  20865532.4304   -2568472.73349  -1978972.41047  20865532.8324   20865536.5104
       238.0004        208.0004
 07  2 17 16 34 55.0000000  0  8G30G 2G 5G 4G24G 9G10G12
  22788985.4944   -3423870.36449  -2650502.95146  22788986.2534   22788991.4784
       220.0004        165.0004
  20137094.6984   -1553245.24349  -1208140.58848  20137094.7194   20137097.3834
       244.0004        219.0004
  20868165.7794   -2674260.50049  -2077667.20447  20868165.6104   20868171.0594
       235.0004        198.0004
  21987863.1114     269488.06349    202334.66646  21987863.3994   21987868.5464
       230.0004        182.0004
  22955389.3484   -3475962.70449  -2686863.16945  22955389.5644   22955396.8224
       217.0004        160.0004
  22674132.6464     401356.89249     98626.97546  22674132.6754   22674138.8814
       224.0004        173.0004
  23389500.3484   -2354917.05949  -1812087.15845  23389499.4764   23389507.1594
       211.0004        151.0004
  20863954.4164   -2576765.13149  -1985434.02047  20863954.7554   20863958.5304
       239.0004        208.0004
 07  2 17 16 35  0.0000000  0  8G30G 2G 5G 4G24G 9G10G12
  22786012.0754   -3439495.70649  -2662678.53846  22786012.2524   22786017.9604
       221.0004        165.0004
  20137110.5664   -1553161.98449  -1208075.71148  20137110.5784   20137113.2844
       244.0004        219.0004
  20866442.2494   -2683317.69849  -2084724.75747  20866442.1934   20866447.2704
       236.0004        198.0004
  21990565.7064     283690.34849    213401.38046  21990565.9984   21990571.4954
       230.0004        182.0004
  22952374.7454   -3491804.57149  -2699207.48045  22952375.7214   22952381.7354
       216.0004        160.0004
  22676990.7834     416376.48249    110330.54446  22676992.0054   22676996.5184
       223.0004        173.0004
  23386308.3764   -2371690.86449  -1825157.64945  23386307.5864   23386314.9394
       211.0004        151.0004
  20862378.3464   -2585047.45849  -1991887.77847  20862378.8964   20862382.3194
       239.0004        208.0004
 07  2 17 16 35  5.0000000  0  8G30G 2G 5G 4G24G 9G10G12
  22783039.6704   -3455115.91649  -2674850.12546  22783039.9604   22783045.2884
       220.0004        165.0004
  20137129.0804   -1553064.73449  -1207999.93248  20137129.1964   20137131.6174
       244.0004        219.0004
  20864720.8834   -2692363.60349  -2091773.51847  20864720.9944   20864725.9974
       236.0004        198.0004
  21993269.7374     297900.05949    224473.88446  21993270.2464   21993276.0214
       230.0004        182.0004
  22949361.5864   -3507638.77149  -2711545.81445  22949361.5484   22949367.9044
       216.0004        160.0004
  22679850.2284     431402.97849    122039.48946  22679850.6164   22679856.7134
       224.0004        173.0004
  23383116.8934   -2388462.17549  -1838226.20345  23383116.0264   23383123.4274
       212.0004        151.0004
  20860804.2014   -2593319.66349  -1998333.65447  20860804.6854   20860808.3454
       238.0004        208.0004
 07  2 17 16 35 10.0000000  0  8G30G 2G 5G 4G24G 9G10G12
  22780068.2014   -3470731.10049  -2687017.80646  22780068.5974   22780073.6844
       221.0004        165.0004
  20137150.2454   -1552953.57749  -1207913.31648  20137150.2114   20137152.9444
       244.0004        219.0004
  20863001.6454   -2701398.30949  -2098813.54747  20863001.2354   20863006.7744
       236.0004        198.0004
  21995975.1404     312117.04849    235552.04646  21995975.7834   21995980.9664
       230.0004        182.0004
  22946349.8804   -3523465.46049  -2723878.30245  22946350.4324   22946356.6084
       215.0004        160.0004
  22682710.9604     446436.18149    133753.66946  22682711.0564   22682717.2684
       224.0004        173.0004
  23379925.8474   -2405231.14049  -1851292.93345  23379924.8854   23379932.4494
       211.0004        151.0004
  20859231.9624   -2601581.86549  -2004771.73347  20859232.2144   20859236.1154
       238.0004        208.0004
 07  2 17 16 35 15.0000000  0  8G30G 2G 5G 4G24G 9G10G12
  22777097.6954   -3486341.16449  -2699181.49646  22777097.7134   22777103.4754
       221.0004        165.0004
  20137174.0694   -1552828.41249  -1207815.78748  20137174.1044   20137176.7244
       244.0004        219.0004
  20861284.5614   -2710421.70649  -2105844.76647  20861284.3234   20861289.7304
       236.0004        198.0004
  21998681.9074     326341.39649    246635.94946  21998682.4294   21998687.6284
       230.0004        181.0004
  22943339.6174   -3539284.43049  -2736204.76545  22943339.3174   22943346.9724
       217.0004        160.0004
  22685572.9704     461476.20049    145473.15246  22685573.6844   22685578.9964
       224.0004        173.0004
  23376735.3084   -2421997.54349  -1864357.66145  23376734.5834   23376742.1704
       211.0004        151.0004
  20857661.6294   -2609833.94949  -2011201.92947  20857661.9314   20857665.9614
       239.0004        208.0004
 07  2 17 16 35 20.0000000  0  8G30G 2G 5G 4G24G 9G10G12
  22774128.1694   -3501946.05749  -2711341.14546  22774128.8094   22774134.1364
       220.0004        165.0004
  20137200.5524   -1552689.25649  -1207707.35348  20137200.5764   20137203.1924
       244.0004        219.0004
  20859569.6144   -2719433.77849  -2112867.15847  20859569.3314   20859574.8014
       236.0004        198.0004
  22001390.1274     340573.19149    257725.65846  22001390.4244   22001395.7734
       230.0004        181.0004
  22940330.8064   -3555095.73349  -2748525.25145  22940330.6904   22940338.3134
       216.0004        160.0004
  22688436.3264     476523.05249    157197.96846  22688436.6424   22688443.3994
       224.0004        173.0004
  23373545.2264   -2438761.40049  -1877420.40845  23373544.4024   23373551.8524
       211.0004        151.0004
  20856093.2404   -2618075.90749  -2017624.23447  20856093.6874   20856097.3364
       239.0004        208.0004
 07  2 17 16 35 25.0000000  0  8G30G 2G 5G 4G24G 9G10G12
  22771159.6484   -3517545.79349  -2723496.78446  22771160.2344   22771165.8134
       220.0004        165.0004
  20137229.6904   -1552536.14149  -1207588.04548  20137229.8064   20137232.3094
       244.0004        219.0004
  20857856.8284   -2728434.52849  -2119880.72847  20857856.7664   20857861.9454
       236.0004        198.0004
  22004099.7304     354812.29449    268821.06046  22004099.5594   22004105.4374
       230.0004        181.0004
  22937323.4824   -3570899.36749  -2760839.77245  22937323.6814   22937330.9794
       215.0004        160.0004
  22691300.9474     491576.74849    168928.11446  22691301.7294   22691307.1024
       224.0004        173.0004
  23370355.6384   -2455522.75449  -1890481.20245  23370355.2704   23370361.7624
       213.0004        151.0004
  20854526.7634   -2626307.72349  -2024038.63847  20854527.1214   20854531.0564
       238.0004        208.0004
 07  2 17 16 35 30.0000000  0  8G30G 2G 5G 4G24G 9G10G12
  22768192.0884   -3533140.30449  -2735648.34646  22768192.5884   22768197.8374
       220.0004        165.0004
  20137261.5034   -1552369.00449  -1207457.81048  20137261.4044   20137264.0664
       244.0004        219.0004
  20856146.2124   -2737423.89749  -2126885.43347  20856145.9114   20856151.3704
       236.0004        198.0004
  22006810.7554     369058.78049    279922.21246  22006811.1524   22006816.4974
       229.0004        181.0004
  22934317.5914   -3586695.26949  -2773148.26145  22934317.8724   22934324.9574
       215.0004        160.0004
  22694166.8834     506637.27649    180663.58246  22694167.0854   22694173.0784
       224.0004        173.0004
  23367166.5514   -2472281.49049  -1903539.95545  23367165.8684   23367172.6714
       211.0004        151.0004
  20852962.2504   -2634529.36249  -2030445.11147  20852962.5644   20852966.4794
       239.0004        208.0004
 07  2 17 16 35 35.0000000  0  8G30G 2G 5G 4G24G 9G10G12
  22765225.5154   -3548729.75849  -2747795.97546  22765226.5024   22765231.8434
       219.0004        165.0004
  20137295.9514   -1552187.98049  -1207316.75348  20137296.0004   20137298.6794
       244.0004        219.0004
  20854437.7354   -2746401.98449  -2133881.34547  20854437.3634   20854443.0994
       236.0004        198.0004
  22009523.1484     383312.48349    291028.98846  22009523.5544   22009528.4744
       230.0004        181.0004
  22931313.1634   -3602483.57949  -2785450.83745  22931313.2024   22931320.2964
       216.0004        160.0004
  22697034.0874     521704.48149    192404.25246  22697035.0204   22697040.4454
       224.0004        173.0004
  23363977.9224   -2489037.73149  -1916596.76245  23363976.7654   23363983.8724
       211.0004        151.0004
  20851399.6504   -2642740.92349  -2036843.73047  20851400.0464   20851403.9244
       239.0004        208.0004
 07  2 17 16 35 40.0000000  0  8G30G 2G 5G 4G24G 9G10G12
  22762259.9254   -3564314.01649  -2759939.55446  22762260.6554   22762265.3554
       220.0004        165.0004
  20137333.0524   -1551992.98949  -1207164.80948  20137332.9644   20137335.7994
       244.0004        219.0004
  20852731.4184   -2755368.71449  -2140868.40447  20852731.0054   20852736.6994
       236.0004        198.0004
  22012236.9614     397573.60249    302141.54746  22012237.6654   22012243.0094
       230.0004        181.0004
  22928310.2354   -3618264.20349  -2797747.42645  22928309.7914   22928317.3284
       215.0004        160.0004
  22699902.5794     536778.44849    204150.19446  22699903.1344   22699909.0084
       224.0004        173.0004
  23360789.7804   -2505791.40249  -1929651.56845  23360788.9524   23360795.9564
       211.0004        151.0004
  20849838.9734   -2650942.32849  -2043234.43347  20849839.4764   20849843.0654
       239.0004        208.0004
 07  2 17 16 35 45.0000000  0  8G30G 2G 5G 4G24G 9G10G12
  22759295.3124   -3579893.01149  -2772079.03246  22759295.2884   22759301.9764
       221.0004        165.0004
  20137372.8164   -1551784.02449  -1207001.98148  20137372.6574   20137375.4254
       244.0004        219.0004
  20851027.2604   -2764324.10349  -2147846.63047  20851026.6854   20851032.6534
       236.0004        198.0004
  22014952.1174     411841.97149    313259.75146  22014952.4964   22014957.8104
       230.0004        181.0004
  22925308.7304   -3634037.10549  -2810038.00445  22925308.8994   22925316.1594
       216.0004        160.0004
  22702772.3584     551859.15149    215901.37846  22702772.8974   22702778.6694
       223.0004        173.0004
  23357602.1454   -2522542.48449  -1942704.35745  23357601.0494   23357608.4024
       212.0004        151.0004
  20848280.2354   -2659133.56149  -2049617.21447  20848280.4064   20848284.3364
       239.0004        208.0004
 07  2 17 16 35 50.0000000  0  8G30G 2G 5G 4G24G 9G10G12
  22756331.6754   -3595466.95449  -2784214.56446  22756332.3794   22756337.7794
       220.0004        165.0004
  20137415.2164   -1551561.27349  -1206828.40848  20137415.1384   20137417.9054
       244.0004        219.0004
  20849325.2364   -2773268.26149  -2154816.10347  20849324.9434   20849330.5384
       236.0004        198.0004
  22017668.6744     426117.46549    324383.51046  22017669.2454   22017674.2354
       230.0004        181.0004
  22922308.6854   -3649802.45749  -2822322.67845  22922308.6964   22922316.1934
       217.0004        160.0004
  22705643.3814     566946.41749    227657.68746  22705644.1304   22705649.4764
       224.0004        173.0004
  23354414.9604   -2539291.09249  -1955755.22145  23354414.5854   23354421.3944
       211.0004        151.0004
  20846723.4144   -2667314.73249  -2055992.15047  20846723.8234   20846727.6084
       239.0004        208.0004
 07  2 17 16 35 55.0000000  0  8G30G 2G 5G 4G24G 9G10G12
  22753369.0904   -3611035.46949  -2796345.86846  22753370.1604   22753375.3314
       221.0004        166.0004
  20137460.2924   -1551324.34749  -1206643.79148  20137460.0764   20137462.9804
       244.0004        219.0004
  20847625.4254   -2782200.84349  -2161776.55647  20847625.1194   20847630.8294
       236.0004        198.0004
  22020386.6424     440400.48749    335513.13546  22020387.5534   22020392.6054
       230.0004        181.0004
  22919310.1654   -3665559.86149  -2834601.17145  22919310.3824   22919317.6764
       216.0004        160.0004
  22708515.7274     582040.63849    239419.40646  22708515.9024   22708521.9244
       224.0004        173.0004
  23351228.3454   -2556036.82149  -1968803.83645  23351228.1814   23351235.1204
       211.0004        151.0004
  20845168.5604   -2675485.49049  -2062358.97747  20845168.8604   20845172.8724
       238.0004        208.0004
 07  2 17 16 36  0.0000000  0  8G30G 2G 5G 4G24G 9G10G12
  22750407.4964   -3626598.70149  -2808473.06746  22750409.1394   22750413.5574
       220.0004        166.0004
  20137508.0334   -1551073.38349  -1206448.23848  20137507.9834   20137510.7384
       244.0004        219.0004
  20845927.8074   -2791121.95449  -2168728.07347  20845927.5754   20845933.0784
       236.0004        198.0004
  22023106.0194     454690.81849    346648.45246  22023106.5214   22023111.9704
       230.0004        181.0004
  22916313.1234   -3681309.52649  -2846873.63045  22916312.6974   22916320.5824
       217.0004        160.0004
  22711389.3694     597141.60949    251186.38046  22711389.5924   22711395.7474
       223.0004        173.0004
  23348042.2254   -2572779.88449  -1981850.37645  23348041.9574   23348048.5834
       212.0004        150.0004
  20843615.6474   -2683645.99749  -2068717.81547  20843616.0854   20843619.8224
       239.0004        208.0004
 07  2 17 16 36  5.0000000  0  8G30G 2G 5G 4G24G 9G10G12
  22747446.8874   -3642156.77649  -2820596.23946  22747447.7604   22747452.8564
       220.0004        166.0004
  20137558.4274   -1550808.61149  -1206241.92148  20137558.3184   20137561.1844
       243.0004        219.0004
  20844232.3144   -2800031.80949  -2175670.81647  20844231.9194   20844237.1924
       236.0004        198.0004
  22025826.7274     468988.30249    357789.34146  22025826.5984   22025832.4644
       230.0004        181.0004
  22913317.5234   -3697051.56949  -2859140.15645  22913317.8904   22913325.0364
       218.0004        160.0004
  22714264.2434     612249.10249    262958.44946  22714264.4524   22714270.8354
       223.0004        173.0004
  23344856.6114   -2589520.42749  -1994894.95045  23344856.5424   23344863.5134
       210.0004        151.0004
  20842064.6954   -2691796.43049  -2075068.80147  20842065.0794   20842068.9064
       239.0004        208.0004
 07  2 17 16 36 10.0000000  0  8G30G 2G 5G 4G24G 9G10G12
  22744487.3054   -3657709.58549  -2832715.30646  22744488.1784   22744493.2174
       221.0004        166.0004
  20137611.4454   -1550529.93049  -1206024.76948  20137611.4424   20137614.1634
       244.0004        219.0004
  20842539.0004   -2808930.26249  -2182604.67547  20842538.7214   20842543.9114
       236.0004        198.0004
  22028548.8304     483292.94549    368935.81946  22028548.9534   22028554.2334
       230.0004        181.0004
  22910323.3914   -3712785.89349  -2871400.67045  22910323.9834   22910330.2554
       217.0004        161.0004
  22717140.3834     627363.21949    274735.67946  22717140.7814   22717146.8234
       222.0004        173.0004
  23341671.4744   -2606258.28749  -2007937.43545  23341670.8284   23341678.6874
       211.0004        151.0004
  20840515.6614   -2699936.66549  -2081411.84247  20840516.1714   20840519.9744
       239.0004        208.0004
 07  2 17 16 36 15.0000000  0  8G30G 2G 5G 4G24G 9G10G12
  22741528.7094   -3673257.15749  -2844830.30046  22741528.9874   22741534.9454
       221.0004        166.0004
  20137667.1224   -1550237.30449  -1205796.74848  20137667.0534   20137669.7294
       244.0004        219.0004
  20840847.8644   -2817817.30149  -2189529.64047  20840847.7414   20840852.8884
       236.0004        198.0004
  22031272.3054     497604.79549    380087.90146  22031272.6874   22031278.1714
       230.0004        181.0004
  22907330.7164   -3728512.52649  -2883655.19145  22907330.4354   22907338.0414
       217.0004        161.0004
  22720017.7854     642483.99949    286518.10146  22720018.3394   22720024.3764
       223.0004        173.0004
  23338486.8674   -2622993.51349  -2020977.86445  23338486.1324   23338493.8834
       212.0004        151.0004
  20838968.5674   -2708066.70649  -2087746.93847  20838968.9424   20838972.7164
       239.0004        208.0004
 07  2 17 16 36 20.0000000  0  8G30G 2G 5G 4G24G 9G10G12
  22738571.1244   -3688799.44649  -2856941.17246  22738572.6444   22738577.2094
       221.0004        166.0004
  20137725.4624   -1549930.78149  -1205557.90148  20137725.3934   20137728.1694
       243.0004        219.0004
  20839158.8854   -2826692.97549  -2196445.75147  20839158.8614   20839164.1734
       236.0004        198.0004
  22033997.1404     511923.87649    391245.62546  22033997.2014   22034002.6364
       230.0004        182.0004
  22904339.5034   -3744231.41749  -2895903.66445  22904339.2864   22904346.7714
       216.0004        161.0004
  22722896.4304     657611.38549    298305.66046  22722896.6164   22722902.9894
       223.0004        173.0004
  23335302.7664   -2639726.05449  -2034016.20045  23335302.3364   23335309.9784
       211.0004        151.0004
  20837423.4124   -2716186.50949  -2094074.06047  20837423.8424   20837427.4974
       239.0004        208.0004
 07  2 17 16 36 25.0000000  0  8G30G 2G 5G 4G24G 9G10G12
  22735614.5114   -3704336.48649  -2869047.95946  22735615.5514   22735620.1524
       221.0004        166.0004
  20137786.4224   -1549610.39349  -1205308.24748  20137786.3714   20137789.0594
       244.0004        219.0004
  20837472.0614   -2835557.29549  -2203353.01347  20837471.7784   20837477.2884
       237.0004        198.0004
  22036723.3484     526250.04949    402408.87146  22036724.0534   22036728.2444
       230.0004        182.0004
  22901349.7684   -3759942.63749  -2908146.17245  22901349.8454   22901356.4084
       216.0004        161.0004
  22725776.3374     672745.31449    310098.32246  22725776.5124   22725782.8584
       224.0004        173.0004
  23332119.1564   -2656455.96449  -2047052.49345  23332118.3014   23332126.5564
       211.0004        151.0004
  20835880.1904   -2724296.14149  -2100393.25347  20835880.7804   20835884.3654
       239.0004        208.0004
 07  2 17 16 36 30.0000000  0  8G30G 2G 5G 4G24G 9G10G12
  22732658.9314   -3719868.17849  -2881150.58046  22732659.9874   22732664.8094
       221.0004        166.0004
  20137850.0714   -1549276.02549  -1205047.70248  20137850.1364   20137852.8554
       244.0004        219.0004
  20835787.4174   -2844410.09949  -2210251.30047  20835787.2454   20835792.5224
       236.0004        198.0004
  22039450.9014     540583.43149    413577.73146  22039451.3254   22039456.0984
       230.0004        182.0004
  22898361.5214   -3775646.03749  -2920382.59345  22898361.8144   22898369.0484
       217.0004        161.0004
  22728657.4824     687885.87149    321896.15146  22728657.8484   22728664.1184
       224.0004        173.0004
  23328936.1144   -2673183.06549  -2060086.59245  23328935.2244   23328943.2074
       210.0004        151.0004
  20834338.9514   -2732395.45149  -2106704.40247  20834339.3374   20834343.0994
       239.0004        208.0004
 07  2 17 16 36 35.0000000  0  8G30G 2G 5G 4G24G 9G10G12
  22729704.4074   -3735394.44349  -2893248.96746  22729705.6824   22729710.3104
       221.0004        166.0004
  20137916.3404   -1548927.64649  -1204776.23848  20137916.4214   20137919.0664
       244.0004        219.0004
  20834105.0114   -2853251.32849  -2217140.57147  20834104.8994   20834110.6164
       236.0004        198.0004
  22042179.8484     554924.17049    424752.33246  22042180.5764   22042185.8054
       230.0004        182.0004
  22895374.7784   -3791341.54249  -2932612.83945  22895374.7424   22895381.8354
       216.0004        161.0004
  22731539.9344     703033.14349    333699.20146  22731540.5924   22731545.8204
       222.0004        173.0004
  23325753.5984   -2689907.33649  -2073118.48945  23325752.9574   23325760.5124
       211.0004        151.0004
  20832799.6904   -2740484.40549  -2113007.48547  20832800.1734   20832804.0164
       239.0004        208.0004
 07  2 17 16 36 40.0000000  0  8G30G 2G 5G 4G24G 9G10G12
  22726750.8584   -3750915.50549  -2905343.30046  22726751.7374   22726756.8084
       221.0004        166.0004
  20137985.2894   -1548565.45249  -1204494.00948  20137985.3734   20137987.8824
       244.0004        219.0004
  20832424.7424   -2862081.19249  -2224020.98647  20832424.5034   20832429.9474
       236.0004        198.0004
  22044910.1524     569271.95749    435932.42346  22044910.3964   22044915.9134
       230.0004        182.0004
  22892389.4744   -3807029.37249  -2944837.12645  22892389.5884   22892396.8254
       216.0004        161.0004
  22734423.6244     718186.90449    345507.32546  22734424.4454   22734429.6964
       224.0004        172.0004
  23322571.5694   -2706628.92649  -2086148.28945  23322571.1704   23322578.5664
       211.0004        151.0004
  20831262.3344   -2748563.17549  -2119302.63047  20831262.7174   20831266.6424
       239.0004        208.0004
 07  2 17 16 36 45.0000000  0  8G30G 2G 5G 4G24G 9G10G12
  22723798.3334   -3766431.18849  -2917433.44246  22723799.8014   22723804.1694
       221.0004        167.0004
  20138056.8674   -1548189.27349  -1204200.88348  20138056.8434   20138059.4924
       244.0004        219.0004
  20830746.6574   -2870899.49549  -2230892.38747  20830746.5044   20830752.0824
       237.0004        198.0004
  22047641.8114     583626.90049    447118.08346  22047642.1354   22047647.6564
       230.0004        181.0004
  22889405.6404   -3822709.35549  -2957055.29145  22889405.5144   22889413.0694
       215.0004        161.0004
  22737308.5444     733347.27949    357320.59546  22737309.5584   22737314.8994
       223.0004        173.0004
  23319390.0954   -2723347.67549  -2099175.88345  23319390.1024   23319396.4774
       211.0004        151.0004
  20829726.9804   -2756631.60749  -2125589.72047  20829727.2704   20829731.2794
       239.0004        208.0004
 07  2 17 16 36 50.0000000  0  8G30G 2G 5G 4G24G 9G10G12
  22720846.8084   -3781941.42149  -2929519.33546  22720847.7444   22720852.5734
       221.0004        167.0004
  20138131.1344   -1547799.08149  -1203896.83948  20138131.2524   20138133.8414
       244.0004        219.0004
  20829070.7984   -2879706.21449  -2237754.76847  20829070.7244   20829076.1974
       237.0004        199.0004
  22050374.8544     597989.18149    458309.47546  22050375.2234   22050380.5954
       231.0004        181.0004
  22886423.3324   -3838381.45249  -2969267.30645  22886423.6594   22886430.8734
       217.0004        161.0004
  22740194.7434     748514.28249    369139.02646  22740195.3604   22740200.7344
       223.0004        173.0004
  23316209.2004   -2740063.50049  -2112201.19345  23316208.8544   23316216.1544
       211.0004        151.0004
  20828193.5814   -2764689.61449  -2131868.68847  20828194.1014   20828197.7934
       239.0004        208.0004
 07  2 17 16 36 55.0000000  0  8G30G 2G 5G 4G24G 9G10G12
  22717896.2854   -3797446.57749  -2941601.27546  22717896.9174   22717902.1284
       221.0004        167.0004
  20138207.9654   -1547395.30449  -1203582.20848  20138208.0594   20138210.6734
       244.0004        219.0004
  20827397.0724   -2888501.77349  -2244608.45247  20827396.9234   20827402.4544
       236.0004        199.0004
  22053109.1964     612358.23349    469506.12946  22053109.8704   22053115.0974
       230.0004        181.0004
  22883442.4554   -3854046.07249  -2981473.49945  22883442.3134   22883449.6664
       216.0004        161.0004
  22743082.1094     763687.46849    380962.27746  22743082.2424   22743088.4924
       223.0004        173.0004
  23313028.7344   -2756776.86049  -2125224.58445  23313027.9674   23313036.0004
       211.0004        151.0004
  20826662.1094   -2772737.62649  -2138139.86847  20826662.6114   20826666.4754
       239.0004        208.0004
 07  2 17 16 37  0.0000000  0  8G30G 2G 5G 4G24G 9G10G12
  22714946.8004   -3812946.27149  -2953678.96046  22714946.8404   22714952.3254
       222.0004        167.0004
  20138287.4724   -1546977.54249  -1203256.67748  20138287.5644   20138290.2224
       244.0004        219.0004
  20825725.5524   -2897285.71749  -2251453.08147  20825725.2504   20825730.4624
       237.0004        199.0004
  22055844.9224     626734.52749    480708.43746  22055845.5364   22055850.4494
       230.0004        181.0004
  22880463.0554   -3869702.79049  -2993673.53345  22880462.7954   22880470.2264
       216.0004        161.0004
  22745970.7464     778867.25949    392790.68246  22745970.5324   22745976.5924
       223.0004        173.0004
  23309848.8544   -2773487.28949  -2138245.68545  23309847.7084   23309855.8874
       211.0004        151.0004
  20825132.6154   -2780775.24649  -2144402.94547  20825133.1604   20825136.7254
       239.0004        208.0004
 07  2 17 16 37  5.0000000  0  8G30G 2G 5G 4G24G 9G10G12
  22711998.4074   -3828440.35749  -2965752.26346  22711998.8904   22712004.5904
       222.0004        167.0004
  20138369.6504   -1546545.66549  -1202920.15448  20138369.7074   20138372.3404
       244.0004        219.0004
  20824056.2684   -2906057.91649  -2258288.56247  20824056.0364   20824061.3814
       237.0004        199.0004
  22058582.0224     641118.07349    491916.39046  22058582.1014   22058588.0534
       231.0004        181.0004
  22877485.2184   -3885351.46649  -3005867.30745  22877485.1674   22877492.2664
       217.0004        161.0004
  22748860.6724     794053.76749    404624.31146  22748861.4314   22748866.7714
       223.0004        173.0004
  23306669.5534   -2790194.66749  -2151264.41245  23306668.6194   23306676.3554
       210.0004        151.0004
  20823605.1074   -2788802.36149  -2150657.84247  20823605.5684   20823609.3664
       239.0004        208.0004
 07  2 17 16 37 10.0000000  0  8G30G 2G 5G 4G24G 9G10G12
  22709050.9684   -3843929.28849  -2977821.56246  22709051.7514   22709057.1194
       221.0004        167.0004
  20138454.4344   -1546100.17149  -1202573.01448  20138454.4584   20138457.0074
       244.0004        219.0004
  20822389.1304   -2914818.84849  -2265115.25847  20822388.7704   20822394.4384
       236.0004        199.0004
  22061320.4604     655508.57249    503129.76446  22061321.0954   22061325.9814
       231.0004        181.0004
  22874508.7954   -3900992.55749  -3018055.17145  22874508.7374   22874516.8184
       217.0004        161.0004
  22751751.7424     809246.49449    416462.79746  22751752.5394   22751758.3654
       223.0004        173.0004
  23303490.7404   -2806899.43149  -2164281.10745  23303490.2494   23303498.2864
       211.0004        151.0004
  20822079.5094   -2796819.36849  -2156904.86047  20822080.1044   20822083.8144
       239.0004        208.0004
 07  2 17 16 37 15.0000000  0  8G30G 2G 5G 4G24G 9G10G12
  22706104.5724   -3859412.66449  -2989886.53046  22706105.0014   22706110.1414
       221.0004        167.0004
  20138541.9004   -1545640.57549  -1202214.88848  20138541.9084   20138544.6434
       244.0004        219.0004
  20820724.2304   -2923568.03849  -2271932.80847  20820724.0834   20820729.1804
       236.0004        199.0004
  22064060.2464     669906.32249    514348.78046  22064060.8694   22064066.0394
       230.0004        181.0004
  22871533.9264   -3916625.62249  -3030236.76345  22871534.1364   22871540.9474
       216.0004        161.0004
  22754644.1164     824445.84649    428306.43246  22754644.0684   22754649.9574
       223.0004        173.0004
  23300312.4964   -2823601.12949  -2177295.41045  23300312.4494   23300320.3394
       211.0004        151.0004
  20820555.9254   -2804825.83649  -2163143.66947  20820556.5594   20820560.1204
       239.0004        208.0004
 07  2 17 16 37 20.0000000  0  8G30G 2G 5G 4G24G 9G10G12
  22703159.2264   -3874890.61749  -3001947.27746  22703159.8694   22703164.7114
       221.0004        167.0004
  20138631.9834   -1545167.09149  -1201845.93948  20138632.0554   20138634.5964
       244.0004        219.0004
  20819061.5054   -2932305.68649  -2278741.36647  20819061.3144   20819066.7124
       236.0004        199.0004
  22066801.3884     684311.08249    525573.27346  22066801.5714   22066807.3114
       230.0004        181.0004
  22868560.5294   -3932250.84849  -3042412.25745  22868561.4244   22868567.1534
       216.0004        161.0004
  22757537.6934     839651.61549    440155.07946  22757537.9044   22757543.6774
       223.0004        172.0004
  23297134.8144   -2840299.96749  -2190307.48645  23297134.1404   23297142.3974
       212.0004        151.0004
  20819034.3364   -2812821.96549  -2169374.41547  20819034.8724   20819038.4794
       239.0004        208.0004
 07  2 17 16 37 25.0000000  0  8G30G 2G 5G 4G24G 9G10G12
  22700214.8554   -3890363.38049  -3014003.97646  22700215.1884   22700220.7514
       221.0004        167.0004
  20138724.6934   -1544679.95249  -1201466.34948  20138724.7814   20138727.4544
       244.0004        219.0004
  20817400.9324   -2941032.02649  -2285541.11347  20817400.8534   20817406.0614
       236.0004        199.0004
  22069543.8404     698722.68049    536803.07946  22069544.4024   22069550.0654
       230.0004        181.0004
  22865588.5934   -3947868.42249  -3054581.79945  22865589.2524   22865595.9664
       217.0004        161.0004
  22760432.4424     854863.57549    452008.54546  22760432.4904   22760438.5014
       223.0004        172.0004
  23293957.6524   -2856996.11449  -2203317.46345  23293956.7594   23293965.0734
       210.0004        151.0004
  20817514.6734   -2820807.93149  -2175597.24847  20817515.3144   20817519.0514
       239.0004        209.0004
 07  2 17 16 37 30.0000000  0  8G30G 2G 5G 4G24G 9G10G12
  22697271.5604   -3905830.48849  -3026056.26146  22697272.1854   22697277.1694
       221.0004        167.0004
  20138820.0854   -1544178.72849  -1201075.78848  20138820.1754   20138822.7044
       244.0004        219.0004
  20815742.6224   -2949746.57849  -2292331.67547  20815742.2524   20815748.1044
       237.0004        199.0004
  22072287.6444     713141.53949    548038.55046  22072287.7134   22072293.3194
       229.0004        181.0004
  22862618.2164   -3963477.92649  -3066745.05045  22862617.8294   22862625.1934
       216.0004        161.0004
  22763328.4284     870082.14249    463867.16246  22763328.9354   22763334.8024
       223.0004        172.0004
  23290781.0684   -2873689.16749  -2216325.02745  23290780.5784   23290788.4864
       210.0004        152.0004
  20815997.0014   -2828783.30149  -2181811.82447  20815997.4654   20816001.3724
       239.0004        209.0004
 07  2 17 16 37 35.0000000  0  8G30G 2G 5G 4G24G 9G10G12
  22694329.2584   -3921292.26949  -3038104.39746  22694330.5624   22694335.0894
       222.0004        167.0004
  20138918.0924   -1543663.76949  -1200674.52148  20138918.1174   20138920.7334
       244.0004        219.0004
  20814086.4604   -2958449.70749  -2299113.33247  20814086.1384   20814091.3744
       237.0004        199.0004
  22075032.7804     727567.31949    559279.40946  22075033.5724   22075038.3904
       230.0004        181.0004
  22859649.2874   -3979079.69649  -3078902.26345  22859649.1344   22859656.0314
       217.0004        161.0004
  22766225.6384     885306.98749    475730.66246  22766225.8004   22766231.7194
       223.0004        172.0004
  23287605.0124   -2890379.41749  -2229330.40445  23287604.7574   23287612.7764
       211.0004        152.0004
  20814481.3154   -2836748.43849  -2188018.42347  20814481.7744   20814485.4454
       239.0004        209.0004
 07  2 17 16 37 40.0000000  0  8G30G 2G 5G 4G24G 9G10G12
  22691388.0844   -3936748.36649  -3050148.10946  22691389.0584   22691393.6344
       221.0004        167.0004
  20139018.7664   -1543134.75449  -1200262.30248  20139018.7874   20139021.4684
       244.0004        219.0004
  20812432.5604   -2967141.03249  -2305885.79647  20812432.3334   20812437.6374
       237.0004        199.0004
  22077779.2754     742000.27349    570525.86646  22077779.9114   22077784.5654
       229.0004        181.0004
  22856681.8784   -3994673.37749  -3091053.18245  22856681.7884   22856688.5804
       215.0004        161.0004
  22769124.1174     900538.46349    487599.34046  22769124.3734   22769130.2184
       223.0004        172.0004
  23284429.5564   -2907066.53349  -2242333.34245  23284429.0254   23284436.7614
       212.0004        152.0004
  20812967.5974   -2844703.00449  -2194216.78647  20812968.1824   20812971.6694
       239.0004        209.0004
 07  2 17 16 37 45.0000000  0  8G30G 2G 5G 4G24G 9G10G12
  22688447.9474   -3952199.06849  -3062187.61346  22688449.5634   22688453.5844
       221.0004        167.0004
  20139122.0594   -1542591.95449  -1199839.34248  20139122.1564   20139124.7944
       244.0004        219.0004
  20810780.8254   -2975820.83949  -2312649.27947  20810780.6864   20810785.8594
       236.0004        199.0004
  22080527.0944     756440.18749    581777.74046  22080527.2094   22080533.0964
       230.0004        181.0004
  22853715.9774   -4010259.27549  -3103198.02645  22853716.0024   22853722.7444
       219.0004        161.0004
  22772023.7654     915776.20749    499472.89646  22772023.9364   22772030.1764
       222.0004        172.0004
  23281254.6514   -2923750.76149  -2255334.03745  23281254.3134   23281261.5584
       213.0004        152.0004
  20811455.8774   -2852647.24749  -2200407.10747  20811456.3294   20811460.0464
       239.0004        209.0004
 07  2 17 16 37 50.0000000  0  8G30G 2G 5G 4G24G 9G10G12
  22685508.8204   -3967644.32749  -3074222.88546  22685509.8284   22685514.5894
       223.0004        167.0004
  20139227.9744   -1542035.32349  -1199405.60348  20139228.0434   20139230.6414
       244.0004        219.0004
  20809131.3304   -2984489.06649  -2319403.74447  20809130.9584   20809136.4714
       237.0004        199.0004
  22083276.2424     770887.09449    593035.06446  22083277.3254   22083281.7574
       229.0004        181.0004
  22850751.5754   -4025837.30349  -3115336.74545  22850751.9244   22850758.7924
       217.0004        161.0004
  22774924.6124     931020.28249    511351.38146  22774924.3984   22774931.2724
       223.0004        172.0004
  23278080.3294   -2940432.04749  -2268332.43545  23278079.6914   23278086.7444
       211.0004        152.0004
  20809946.1274   -2860581.11949  -2206589.34747  20809946.6044   20809950.3184
       239.0004        209.0004
 07  2 17 16 37 55.0000000  0  8G30G 2G 5G 4G24G 9G10G12
  22682570.7834   -3983084.00949  -3086253.80546  22682571.5924   22682576.8624
       222.0004        167.0004
  20139336.5314   -1541464.89049  -1198961.10948  20139336.6574   20139339.2034
       244.0004        219.0004
  20807484.0694   -2993145.62049  -2326149.10847  20807483.8994   20807489.0994
       237.0004        199.0004
  22086026.7674     785341.06749    604297.89146  22086026.9024   22086031.9984
       229.0004        181.0004
  22847788.6914   -4041407.39449  -3127469.27945  22847788.9854   22847796.4054
       219.0004        161.0004
  22777826.6634     946270.74849    523234.86346  22777827.8284   22777832.9824
       222.0004        172.0004
  23274906.5794   -2957110.29149  -2281328.45745  23274906.1184   23274912.9504
       212.0004        152.0004
  20808438.3574   -2868504.48449  -2212763.39547  20808438.8584   20808442.5894
       239.0004        209.0004
 07  2 17 16 38  0.0000000  0  8G30G 2G 5G 4G24G 9G10G12
  22679633.8014   -3998518.07749  -3098280.34546  22679634.4664   22679640.2554
       221.0004        167.0004
  20139447.7384   -1540880.50449  -1198505.74348  20139447.9104   20139450.4494
       244.0004        219.0004
  20805839.0164   -3001790.47349  -2332885.35647  20805838.9974   20805844.1994
       236.0004        199.0004
  22088778.6054     799802.05149    615566.20046  22088778.6974   22088784.1764
       229.0004        181.0004
  22844827.3294   -4056969.48449  -3139595.58245  22844827.6654   22844834.8164
       218.0004        162.0004
  22780729.9794     961527.67049    535123.36546  22780729.8794   22780736.6144
       222.0004        172.0004
  23271733.3884   -2973785.45649  -2294322.08445  23271733.1744   23271739.9804
       213.0004        152.0004
  20806932.6094   -2876417.33849  -2218929.25447  20806933.2104   20806936.7984
       239.0004        209.0004
 07  2 17 16 38  5.0000000  0  9G30G 2G 6G 5G 4G24G 9G10G12
  22676697.8264   -4013946.90149  -3110302.80546  22676698.9584   22676703.4004
       221.0004        167.0004
  20139561.5294   -1540282.56549  -1198039.81848  20139561.6824   20139564.0924
       244.0004        219.0004
                  -1543455.32159  -1193667.96343
       204.0004         74.0004
  20804196.1054   -3010423.98349  -2339612.76747  20804195.7154   20804201.1354
       237.0004        199.0004
  22091531.6894     814269.63649    626839.62946  22091531.9614   22091537.3354
       230.0004        180.0004
  22841867.4084   -4072523.95849  -3151715.94045  22841868.0844   22841874.5434
       220.0004        162.0004
  22783634.4094     976790.57749    547016.52646  22783634.3884   22783641.2424
       223.0004        172.0004
  23268560.7514   -2990457.88449  -2307313.57745  23268560.4114   23268567.5824
       212.0004        152.0004
  20805428.7584   -2884320.06149  -2225087.22247  20805429.2714   20805432.8444
       239.0004        209.0004
 07  2 17 16 38 10.0000000  0  8G30G 2G 5G 4G24G 9G10G12
  22673762.8554   -4029370.26649  -3122321.00446  22673763.4504   22673768.9074
       222.0004        168.0004
  20139677.9624   -1539670.80849  -1197563.12448  20139678.1514   20139680.5934
       244.0004        219.0004
  20802555.4354   -3019045.87949  -2346331.12947  20802555.2514   20802560.4214
       237.0004        199.0004
  22094286.1284     828744.23049    638118.53246  22094286.5144   22094291.6824
       229.0004        180.0004
  22838909.0394   -4088070.53749  -3163830.15245  22838909.3424   22838916.0754
       218.0004        162.0004
  22786540.0424     992059.74949    558914.57846  22786540.0674   22786546.1504
       223.0004        172.0004
  23265388.6644   -3007127.32849  -2320302.74245  23265388.3674   23265395.2274
       212.0004        152.0004
  20803926.9074   -2892212.35949  -2231237.06647  20803927.3714   20803931.2814
       239.0004        209.0004
 07  2 17 16 38 15.0000000  0  8G30G 2G 5G 4G24G 9G10G12
  22670828.9874   -4044787.88149  -3134334.72946  22670830.0414   22670834.0264
       222.0004        168.0004
  20139797.0804   -1539044.93549  -1197075.43048  20139797.1994   20139799.7574
       244.0004        219.0004
  20800916.9904   -3027655.88649  -2353040.22547  20800916.6754   20800922.1744
       237.0004        199.0004
  22097041.9114     843225.94349    649402.98046  22097042.3564   22097047.5604
       230.0004        180.0004
  22835952.2014   -4103608.93549  -3175937.99045  22835952.4594   22835959.1594
       219.0004        162.0004
  22789446.9114    1007335.41349    570817.68646  22789447.2144   22789453.2774
       223.0004        172.0004
  23262217.1934   -3023793.47649  -2333289.34045  23262216.7124   23262224.3894
       212.0004        152.0004
  20802427.1154   -2900093.95249  -2237378.56747  20802427.4794   20802431.3444
       239.0004        209.0004
 07  2 17 16 38 20.0000000  0  9G30G 2G 6G 5G 4G24G 9G10G12
  22667896.1944   -4060199.96149  -3146344.14146  22667896.7524   22667901.7214
       222.0004        168.0004
  20139918.8114   -1538405.26149  -1196576.98448  20139918.9744   20139921.4724
       244.0004        219.0004
                  -1578673.79749  -1221112.49843
       204.0004         74.0004
  20799280.7944   -3036254.28649  -2359740.27747  20799280.2584   20799285.9334
       237.0004        199.0004
  22099799.0054     857714.52949    660692.78646  22099799.0374   22099804.6814
       230.0004        180.0004
  22832996.8474   -4119139.44749  -3188039.69145  22832997.1054   22833003.8534
       218.0004        162.0004
  22792354.9324    1022617.27349    582725.61746  22792355.6514   22792361.4904
       222.0004        172.0004
  23259046.3124   -3040456.63549  -2346273.61345  23259046.0184   23259053.0734
       212.0004        152.0004
  20800929.2614   -2907965.12749  -2243511.95247  20800929.8664   20800933.5564
       239.0004        209.0004
 07  2 17 16 38 25.0000000  0  9G30G 2G 6G 5G 4G24G 9G10G12
  22664964.4344   -4075606.57249  -3158349.28846  22664964.3324   22664969.3994
       223.0004        168.0004
  20140043.1524   -1537751.83449  -1196067.81848  20140043.2084   20140045.6874
       244.0004        219.0004
                  -1590412.13849  -1230259.76343
       205.0004         74.0004
  20797646.7834   -3044841.09949  -2366431.29847  20797646.7194   20797651.8534
       237.0004        199.0004
  22102557.4074     872209.94649    671987.91046  22102557.7284   22102562.6384
       229.0004        180.0004
  22830042.9934   -4134662.10649  -3200135.26445  22830043.6404   22830049.9554
       219.0004        162.0004
  22795264.1644    1037905.31049    594638.36846  22795264.7174   22795270.4954
       222.0004        172.0004
  23255876.0034   -3057116.78849  -2359255.53945  23255875.7724   23255882.5044
       212.0004        152.0004
  20799433.4174   -2915825.88049  -2249637.21247  20799433.8424   20799437.4824
       239.0004        209.0004
 07  2 17 16 38 30.0000000  0  8G30G 2G 5G 4G24G 9G10G12
  22662033.6864   -4091007.87949  -3170350.30546  22662034.1304   22662039.8294
       222.0004        168.0004
  20140170.0724   -1537084.85949  -1195548.09648  20140170.0804   20140172.7174
       244.0004        219.0004
  20796014.9384   -3053416.53349  -2373113.45247  20796014.5294   20796019.9114
       237.0004        199.0004
  22105317.0494     886711.98549    683288.19446  22105317.6774   22105322.9944
       229.0004        180.0004
  22827090.5944   -4150177.10649  -3212224.87345  22827090.8044   22827097.6694
       219.0004        162.0004
  22798174.5364    1053199.30349    606555.75746  22798175.2224   22798180.5214
       223.0004        172.0004
  23252706.2264   -3073774.11449  -2372235.26045  23252705.9174   23252712.2874
       212.0004        152.0004
  20797939.5044   -2923676.41649  -2255754.51247  20797939.9164   20797943.5854
       239.0004        209.0004
 07  2 17 16 38 35.0000000  0  8G30G 2G 5G 4G24G 9G10G12
  22659104.0744   -4106403.02249  -3182346.52046  22659104.5284   22659109.5884
       222.0004        168.0004
  20140299.7554   -1536403.40249  -1195017.09548  20140299.6514   20140302.4454
       244.0004        219.0004
  20794385.4374   -3061979.62349  -2379785.99447  20794385.2474   20794390.8374
       237.0004        199.0004
  22108078.1414     901221.56149    694594.34946  22108079.1254   22108083.5444
       229.0004        180.0004
  22824139.8264   -4165683.52049  -3224307.78445  22824139.8274   22824147.0404
       218.0004        162.0004
  22801086.1794    1068500.12949    618478.46246  22801085.6074   22801092.6714
       223.0004        172.0004
  23249537.1624   -3090427.72149  -2385212.09145  23249536.9314   23249543.5184
       212.0004        152.0004
  20796447.7274   -2931515.84749  -2261863.16447  20796448.2684   20796451.7854
       239.0004        209.0004
 07  2 17 16 38 40.0000000  0  9G30G 2G 6G 5G 4G24G 9G10G12
  22656175.5284   -4121792.73449  -3194338.50546  22656175.9764   22656181.8414
       222.0004        168.0004
  20140432.0494   -1535708.33849  -1194475.48648  20140432.0094   20140434.7044
       244.0004        219.0004
                  -1625623.46849  -1257698.67743
       204.0004         74.0004
  20792758.1274   -3070531.18949  -2386449.54947  20792757.8234   20792763.3124
       237.0004        199.0004
  22110840.5044     915737.79849    705905.69246  22110840.8734   22110845.7104
       229.0004        180.0004
  22821190.5764   -4181182.13949  -3236384.62245  22821190.4394   22821197.8654
       220.0004        162.0004
  22803998.9834    1083806.98049    630405.87246  22803999.6804   22804005.5264
       223.0004        172.0004
  23246368.6354   -3107078.39149  -2398186.63145  23246367.8844   23246375.1124
       211.0004        152.0004
  20794957.8784   -2939344.93349  -2267963.75247  20794958.3304   20794962.0274
       239.0004        209.0004
 07  2 17 16 38 45.0000000  0  8G30G 2G 5G 4G24G 9G10G12
  22653248.0304   -4137176.99949  -3206326.23346  22653247.9034   22653253.7784
       222.0004        169.0004
  20140566.9094   -1534999.65449  -1193923.26548  20140566.8864   20140569.4294
       244.0004        219.0004
  20791133.0114   -3079071.23549  -2393104.13147  20791132.7984   20791138.1054
       237.0004        199.0004
  22113604.1244     930260.73349    717222.26946  22113604.2704   22113609.6584
       229.0004        180.0004
  22818242.7644   -4196672.93749  -3248455.37345  22818242.9394   22818250.4334
       218.0004        162.0004
  22806912.9404    1099119.81749    642337.94246  22806913.4524   22806919.1774
       223.0004        172.0004
  23243200.6634   -3123726.08849  -2411158.85145  23243200.7574   23243207.5964
       211.0004        152.0004
  20793470.0114   -2947163.68949  -2274056.28847  20793470.5204   20793474.2264
       240.0004        209.0004
 07  2 17 16 38 50.0000000  0  8G30G 2G 5G 4G24G 9G10G12
  22650321.6004   -4152555.46149  -3218309.44846  22650321.8684   22650327.5984
       222.0004        169.0004
  20140704.4154   -1534276.98449  -1193360.14348  20140704.3114   20140706.8874
       244.0004        219.0004
  20789510.1804   -3087599.36149  -2399749.42647  20789509.9324   20789515.3314
       237.0004        199.0004
  22116369.0734     944790.70949    728544.32146  22116369.2264   22116374.5744
       229.0004        180.0004
  22815296.5374   -4212155.58849  -3260519.75945  22815296.6094   22815303.4714
       218.0004        162.0004
  22809828.0724    1114438.99949    654274.96346  22809828.1554   22809834.3424
       222.0004        172.0004
  23240033.3294   -3140370.45849  -2424128.48645  23240033.5404   23240039.7284
       212.0004        152.0004
  20791984.1944   -2954971.74549  -2280140.48547  20791984.4494   20791988.3184
       239.0004        209.0004
 07  2 17 16 38 55.0000000  0  9G30G 2G 6G 5G 4G24G 9G10G12
  22647396.1864   -4167928.60749  -3230288.52446  22647397.0034   22647402.1034
       221.0004        169.0004
  20140844.5234   -1533540.83149  -1192786.52048  20140844.5534   20140847.1374
       244.0004        219.0004
                  -1660829.78649  -1116375.93043
       204.0004         74.0004
  20787889.4884   -3096116.07049  -2406385.82347  20787889.0744   20787894.6154
       237.0004        199.0004
  22119135.2954     959327.16949    739871.42346  22119135.4714   22119140.4784
       229.0004        180.0004
  22812351.7654   -4227630.54849  -3272578.17746  22812352.2874   22812359.4144
       219.0004        163.0004
  22812744.3474    1129764.05049    666216.54846  22812744.5364   22812750.1224
       222.0004        172.0004
  23236866.5434   -3157011.97149  -2437095.89045  23236866.2924   23236872.6394
       211.0004        152.0004
  20790500.3164   -2962769.56449  -2286216.71047  20790500.8064   20790504.4884
       239.0004        209.0004
 07  2 17 16 39  0.0000000  0  8G30G 2G 5G 4G24G 9G10G12
  22644471.9064   -4183295.88249  -3242263.01946  22644472.6184   22644477.5464
       223.0004        169.0004
  20140987.2624   -1532790.65149  -1192201.96548  20140987.2854   20140990.0014
       244.0004        219.0004
  20786271.0844   -3104620.82449  -2413012.90347  20786270.6744   20786276.3784
       237.0004        199.0004
  22121902.8254     973870.71749    751204.05546  22121902.9154   22121908.4054
       228.0004        180.0004
  22809408.5254   -4243097.29349  -3284630.18146  22809408.3554   22809415.5254
       219.0004        163.0004
  22815661.8424    1145095.49549    678163.11746  22815662.4464   22815668.7594
       222.0004        172.0004
  23233700.3924   -3173650.09749  -2450060.65245  23233699.8544   23233706.6084
       211.0004        152.0004
  20789018.4914   -2970556.62549  -2292284.54847  20789018.8724   20789022.5964
       239.0004        209.0004
 07  2 17 16 39  5.0000000  0  8G30G 2G 5G 4G24G 9G10G12
  22641548.7184   -4198657.35149  -3254232.99346  22641549.0724   22641554.7494
       222.0004        169.0004
  20141132.6904   -1532026.50949  -1191606.52948  20141132.7444   20141135.3614
       244.0004        219.0004
  20784654.9484   -3113113.63449  -2419630.67747  20784654.9134   20784660.0954
       237.0004        199.0004
  22124671.7044     988421.25349    762542.12646  22124672.0384   22124677.1104
       229.0004        180.0004
  22806466.8594   -4258555.87549  -3296675.81746  22806466.4324   22806474.2594
       220.0004        163.0004
  22818580.5054    1160433.22649    690114.59746  22818580.8354   22818586.7424
       223.0004        171.0004
  23230534.9134   -3190284.84149  -2463022.77845  23230534.8254   23230541.4904
       213.0004        152.0004
  20787538.7074   -2978332.96349  -2298344.03647  20787539.1864   20787542.7774
       239.0004        209.0004
 07  2 17 16 39 10.0000000  0  9G30G 2G 6G 5G 4G24G 9G10G12
  22638626.5644   -4214013.40149  -3266198.73746  22638626.9654   22638631.5334
       221.0004        169.0004
  20141280.6854   -1531248.82549  -1191000.54048  20141280.6324   20141283.3244
       244.0004        219.0004
                  -1696030.49249  -1143805.04343
       204.0004         74.0004
  20783041.0204   -3121594.93149  -2426239.48147  20783040.8604   20783045.9574
       237.0004        199.0004
  22127441.8184    1002978.27049    773885.25546  22127442.2704   22127447.0924
       228.0004        180.0004
  22803526.6454   -4274006.64249  -3308715.37046  22803526.3974   22803534.0304
       218.0004        163.0004
  22821500.3104    1175776.80449    702070.62146  22821500.2744   22821506.7974
       222.0004        171.0004
  23227369.9914   -3206916.60149  -2475982.57845  23227369.4674   23227377.2524
       213.0004        152.0004
  20786060.8834   -2986098.98349  -2304395.47847  20786061.2394   20786065.0224
       240.0004        209.0004
 07  2 17 16 39 15.0000000  0  8G30G 2G 5G 4G24G 9G10G12
  22635705.4994   -4229363.71449  -3278160.02646  22635705.8774   22635710.9554
       222.0004        169.0004
  20141431.2784   -1530457.35849  -1190383.81548  20141431.2774   20141433.8324
       244.0004        219.0004
  20781429.3194   -3130064.44649  -2432839.10347  20781428.9964   20781434.4254
       237.0004        199.0004
  22130213.2414    1017542.13249    785233.71346  22130213.3424   22130219.2144
       228.0004        180.0004
  22800587.9844   -4289449.39749  -3320748.68646  22800587.8914   22800595.5184
       221.0004        163.0004
  22824421.2704    1191126.48549    714031.40246  22824422.3214   22824427.0944
       223.0004        171.0004
  23224205.6954   -3223545.11449  -2488939.84945  23224205.0374   23224212.3414
       213.0004        153.0004
  20784585.1034   -2993854.41849  -2310438.67847  20784585.7214   20784589.1284
       239.0004        209.0004
 07  2 17 16 39 20.0000000  0  8G30G 2G 5G 4G24G 9G10G12
  22632785.4904   -4244708.43549  -3290116.94646  22632786.5584   22632791.9074
       222.0004        169.0004
  20141584.4774   -1529652.25549  -1189756.46048  20141584.4714   20141587.1004
       244.0004        219.0004
  20779819.8534   -3138522.34149  -2439429.66847  20779819.8004   20779824.9444
       237.0004        199.0004
  22132985.9484    1032112.70749    796587.40246  22132986.3024   22132992.6164
       229.0004        179.0004
  22797650.8464   -4304884.27549  -3332775.85946  22797651.0954   22797658.3324
       220.0004        163.0004
  22827343.3734    1206482.09649    725996.80546  22827343.0194   22827350.3734
       223.0004        171.0004
  23221042.0194   -3240170.49249  -2501894.67445  23221041.3884   23221048.6744
       212.0004        153.0004
  20783111.2794   -3001599.36549  -2316473.70147  20783111.5814   20783115.2764
       239.0004        209.0004
 07  2 17 16 39 25.0000000  0  8G30G 2G 5G 4G24G 9G10G12
  22629866.5454   -4260047.56349  -3302069.50846  22629867.9584   22629872.2424
       222.0004        169.0004
  20141740.3114   -1528833.44049  -1189118.42248  20141740.4234   20141743.0034
       244.0004        219.0004
  20778212.5974   -3146968.46449  -2446011.06647  20778212.5834   20778217.6034
       237.0004        199.0004
  22135759.9024    1046689.96249    807946.29646  22135760.5824   22135765.7614
       228.0004        179.0004
  22794715.2154   -4320311.15049  -3344796.78846  22794715.1974   22794721.9774
       219.0004        163.0004
  22830266.5874    1221843.67349    737966.84446  22830267.2254   22830272.8824
       222.0004        171.0004
  23217878.9164   -3256792.68949  -2514847.03045  23217878.3974   23217886.1374
       212.0004        153.0004
  20781639.4544   -3009333.78649  -2322500.52647  20781639.9004   20781643.6274
       239.0004        209.0004
 07  2 17 16 39 30.0000000  0  9G30G 2G 6G 5G 4G24G 9G10G12
  22626948.7764   -4275380.44749  -3314017.20946  22626948.9394   22626953.8784
       222.0004        169.0004
  20141898.8524   -1528000.31749  -1188469.23248  20141898.8644   20141901.4744
       244.0004        219.0004
                  -1742957.07249  -1180371.74943
       204.0004         74.0004
  20776607.7304   -3155402.25749  -2452582.85047  20776607.5544   20776612.6234
       237.0004        199.0004
  22138535.2464    1061274.42549    819310.80946  22138535.9704   22138541.0944
       228.0004        179.0004
  22791781.2654   -4335729.43049  -3356811.02946  22791781.2784   22791788.3154
       220.0004        164.0004
  22833191.0814    1237211.80449    749942.00946  22833191.5504   22833197.1674
       222.0004        171.0004
  23214716.5394   -3273411.07449  -2527796.41445  23214715.4974   23214723.5034
       213.0004        153.0004
  20780169.7954   -3017057.05649  -2328518.65447  20780170.3474   20780173.7704
       239.0004        209.0004
 07  2 17 16 39 35.0000000  0  8G30G 2G 5G 4G24G 9G10G12
  22624032.0294   -4290708.03749  -3325960.78246  22624032.5884   22624037.6694
       222.0004        169.0004
  20142059.9324   -1527153.87049  -1187809.66648  20142059.8824   20142062.4824
       244.0004        219.0004
  20775004.9924   -3163824.66049  -2459145.76247  20775004.8934   20775010.2144
       237.0004        200.0004
  22141311.7994    1075865.28249    830680.30046  22141312.3184   22141316.8404
       228.0004        179.0004
  22788848.7294   -4351140.09749  -3368819.33946  22788849.1284   22788855.7454
       220.0004        164.0004
  22836116.5964    1252585.54249    761921.53346  22836117.0454   22836122.9024
       222.0004        171.0004
  23211554.7124   -3290026.60149  -2540743.56745  23211553.1664   23211561.5754
       212.0004        153.0004
  20778702.0324   -3024770.13649  -2334528.85147  20778702.2944   20778705.9694
       239.0004        209.0004
 07  2 17 16 39 40.0000000  0  9G30G 2G 6G 5G 4G24G 9G10G12
  22621116.4434   -4306029.58049  -3337899.64346  22621117.7964   22621122.7004
       223.0004        169.0004
  20142223.7014   -1526293.34149  -1187139.12548  20142223.7494   20142226.2564
       245.0004        219.0004
                  -1766416.69649  -1198652.21343
       204.0004         74.0004
  20773404.5784   -3172234.93749  -2465699.22847  20773404.3914   20773409.8274
       238.0004        200.0004
  22144089.6824    1090463.14049    842055.24946  22144089.5664   22144096.0364
       229.0004        179.0004
  22785917.7834   -4366542.37949  -3380821.11546  22785917.9674   22785925.0234
       220.0004        164.0004
  22839043.3404    1267965.60949    773905.99246  22839043.7094   22839050.0654
       222.0004        171.0004
  23208393.5514   -3306638.50649  -2553687.90345  23208392.6044   23208400.5304
       212.0004        153.0004
  20777236.3674   -3032472.25749  -2340530.50747  20777236.7884   20777240.2854
       240.0004        209.0004
 07  2 17 16 39 45.0000000  0  8G30G 2G 5G 4G24G 9G10G12
  22618201.9124   -4321345.60049  -3349834.19746  22618202.5244   22618207.6624
       222.0004        169.0004
  20142390.0194   -1525419.26849  -1186458.02848  20142390.0144   20142392.6694
       244.0004        219.0004
  20771806.3874   -3180633.59249  -2472243.63447  20771806.3184   20771811.5374
       237.0004        200.0004
  22146868.7974    1105067.46349    853435.23046  22146869.7214   22146875.1234
       229.0004        179.0004
  22782988.3194   -4381936.80849  -3392816.76846  22782988.3054   22782995.3804
       219.0004        164.0004
  22841971.1924    1283351.47449    785894.97246  22841972.0524   22841977.7454
       222.0004        171.0004
  23205232.9824   -3323247.30149  -2566629.81145  23205231.8924   23205239.4784
       212.0004        153.0004
  20775772.7004   -3040163.92449  -2346524.01147  20775773.0824   20775776.6914
       239.0004        209.0004
 07  2 17 16 39 50.0000000  0  8G30G 2G 5G 4G24G 9G10G12
  22615288.5174   -4336655.67349  -3361764.13046  22615289.4414   22615294.1984
       223.0004        169.0004
  20142559.0134   -1524531.23049  -1185766.05048  20142559.0374   20142561.6654
       244.0004        219.0004
  20770210.4634   -3189020.19849  -2478778.64947  20770210.2834   20770215.4794
       238.0004        200.0004
  22149649.2154    1119678.73449    864820.64346  22149649.0674   22149654.6274
       229.0004        179.0004
  22780060.4334   -4397322.96049  -3404805.96846  22780060.6824   22780066.5254
       220.0004        164.0004
  22844900.2154    1298743.53949    797888.77246  22844900.6944   22844906.8224
       222.0004        171.0004
  23202073.0794   -3339852.54649  -2579568.95745  23202072.1704   23202079.8444
       213.0004        153.0004
  20774311.1044   -3047844.74449  -2352509.06847  20774311.5634   20774315.2464
       239.0004        209.0004
 07  2 17 16 39 55.0000000  0  8G30G 2G 5G 4G24G 9G10G12
  22612376.2004   -4351960.04149  -3373689.60746  22612376.8974   22612382.2644
       223.0004        170.0004
  20142730.6264   -1523629.52849  -1185063.42448  20142730.6084   20142733.2804
       244.0004        219.0004
  20768616.7924   -3197395.03349  -2485304.49647  20768616.5864   20768621.9204
       237.0004        200.0004
  22152430.9204    1134296.62849    876211.20146  22152431.5614   22152436.6894
       228.0004        179.0004
  22777134.0624   -4412701.11649  -3416788.94546  22777133.4194   22777140.4744
       221.0004        164.0004
  22847830.3794    1314141.48049    809887.16446  22847829.9664   22847837.4664
       222.0004        171.0004
  23198913.8244   -3356454.56249  -2592505.58545  23198913.3464   23198920.3324
       212.0004        153.0004
  20772851.4954   -3055514.98849  -2358485.88047  20772851.9344   20772855.6584
       239.0004        209.0004
 07  2 17 16 40  0.0000000  0  8G30G 2G 5G 4G24G 9G10G12
  22609464.9724   -4367258.78449  -3385610.70246  22609464.8034   22609470.4834
       222.0004        170.0004
  20142904.7884   -1522714.24449  -1184350.21648  20142904.7874   20142907.3664
       244.0004        219.0004
  20767025.3474   -3205758.15749  -2491821.21847  20767025.1684   20767030.3604
       238.0004        200.0004
  22155213.8584    1148921.04649    887606.84246  22155214.4444   22155219.9534
       229.0004        179.0004
  22774209.1854   -4428071.28549  -3428765.69446  22774209.5434   22774216.3204
       220.0004        164.0004
  22850761.6364    1329545.25049    821890.08146  22850761.9374   22850768.8064
       223.0004        171.0004
  23195755.1534   -3373053.33049  -2605439.67745  23195754.5834   23195761.6664
       213.0004        152.0004
  20771393.8964   -3063174.72749  -2364454.51347  20771394.4034   20771398.0834
       239.0004        209.0004
 07  2 17 16 40  5.0000000  0  8G30G 2G 5G 4G24G 9G10G12
  22606554.8404   -4382551.63949  -3397527.20846  22606555.8574   22606560.1564
       223.0004        170.0004
  20143081.5994   -1521785.11649  -1183626.21948  20143081.6954   20143084.1524
       244.0004        219.0004
  20765436.1854   -3214109.32049  -2498328.61647  20765436.0284   20765441.1214
       237.0004        200.0004
  22157998.1114    1163552.27249    899007.79746  22157998.5574   22158003.9114
       228.0004        179.0004
  22771285.9064   -4443433.28449  -3440736.07246  22771286.2374   22771292.7864
       221.0004        164.0004
  22853694.0364    1344955.03549    833897.69746  22853694.1174   22853700.6004
       223.0004        171.0004
  23192597.1474   -3389648.62849  -2618371.06745  23192596.5104   23192602.9944
       213.0004        152.0004
  20769938.3604   -3070823.71049  -2370414.75847  20769938.7914   20769942.3624
       239.0004        209.0004
 07  2 17 16 40 10.0000000  0  8G30G 2G 5G 4G24G 9G10G12
  22603645.8824   -4397838.39049  -3409438.95946  22603646.6714   22603651.8494
       223.0004        170.0004
  20143261.1014   -1520841.94049  -1182891.27848  20143261.0914   20143263.5974
       244.0004        219.0004
  20763849.3384   -3222448.32849  -2504826.54547  20763849.1964   20763854.5284
       238.0004        200.0004
  22160783.6544    1178190.43349    910414.15046  22160783.8994   22160789.0024
       228.0004        179.0004
  22768364.2354   -4458786.85049  -3452699.88246  22768364.3994   22768371.0834
       220.0004        164.0004
  22856627.6204    1360371.05949    845910.17446  22856628.1264   22856634.3484
       222.0004        171.0004
  23189439.8904   -3406240.19249  -2631299.55145  23189439.2754   23189446.3504
       213.0004        152.0004
  20768484.9054   -3078461.69049  -2376366.43547  20768485.3374   20768489.1444
       239.0004        209.0004
 07  2 17 16 40 15.0000000  0  8G30G 2G 5G 4G24G 9G10G12
  22600737.9604   -4413119.69249  -3421346.46946  22600738.4744   22600743.1044
       223.0004        170.0004
  20143443.1074   -1519885.43349  -1182145.94648  20143443.0654   20143445.6874
       244.0004        219.0004
  20762264.6774   -3230775.79449  -2511315.47747  20762264.7034   20762269.5594
       237.0004        200.0004
  22163570.4014    1192834.83749    921825.36546  22163570.3504   22163575.8054
       228.0004        179.0004
  22765444.0254   -4474132.69549  -3464657.67746  22765443.6114   22765451.1824
       219.0004        164.0004
  22859562.2514    1375792.59949    857926.95346  22859562.8844   22859568.8644
       222.0004        171.0004
  23186283.1934   -3422828.73349  -2644225.68445  23186282.4914   23186290.2064
       212.0004        152.0004
  20767033.4074   -3086089.36349  -2382310.07747  20767033.8624   20767037.6704
       239.0004        209.0004
 07  2 17 16 40 20.0000000  0  8G30G 2G 5G 4G24G 9G10G12
  22597831.1494   -4428395.07249  -3433249.35746  22597831.5974   22597836.8584
       223.0004        170.0004
  20143627.7534   -1518915.11049  -1181389.85048  20143627.7074   20143630.3354
       244.0004        219.0004
  20760682.2794   -3239091.29049  -2517795.08947  20760681.8594   20760687.2764
       237.0004        200.0004
  22166358.4194    1207486.00149    933241.85146  22166358.8394   22166364.0304
       228.0004        179.0004
  22762525.3524   -4489470.31649  -3476609.07246  22762525.1024   22762532.8144
       221.0004        165.0004
  22862498.0384    1391220.10749    869948.38146  22862498.6624   22862504.5554
       222.0004        170.0004
  23183127.1764   -3439413.76149  -2657149.07545  23183126.6054   23183133.7804
       213.0004        152.0004
  20765583.9664   -3093706.25749  -2388245.31847  20765584.3654   20765588.1394
       239.0004        209.0004
 07  2 17 16 40 25.0000000  0  8G30G 2G 5G 4G24G 9G10G12
  22594925.4924   -4443664.48149  -3445147.59946  22594925.7684   22594931.1484
       223.0004        170.0004
  20143815.0394   -1517930.92949  -1180622.95548  20143815.0474   20143817.5934
       244.0004        219.0004
  20759102.1884   -3247394.74249  -2524265.31147  20759101.8934   20759107.2004
       238.0004        200.0004
  22169147.7354    1222143.86349    944663.55846  22169148.1984   22169153.6604
       227.0004        178.0004
  22759608.2874   -4504799.65249  -3488554.00546  22759608.7214   22759615.2924
       221.0004        165.0004
  22865434.9524    1406653.63649    881974.49046  22865435.9084   22865440.9574
       222.0004        170.0004
  23179971.8264   -3455995.22149  -2670069.68145  23179971.5604   23179978.4484
       213.0004        152.0004
  20764136.5694   -3101312.30849  -2394172.11547  20764137.1774   20764140.7034
       239.0004        209.0004
 07  2 17 16 40 30.0000000  0  8G30G 2G 5G 4G24G 9G10G12
  22592020.8774   -4458928.35549  -3457041.51746  22592021.1394   22592026.3224
       223.0004        170.0004
  20144004.8634   -1516933.32149  -1179845.59948  20144004.7564   20144007.4754
       244.0004        219.0004
  20757524.3184   -3255686.57949  -2530726.48247  20757524.1454   20757529.3914
       237.0004        200.0004
  22171938.2274    1236808.01949    956090.16646  22171938.4864   22171944.8314
       228.0004        178.0004
  22756692.6824   -4520121.14649  -3500492.82946  22756693.0894   22756699.9514
       219.0004        165.0004
  22868372.9364    1422092.73749    894004.95146  22868373.3354   22868379.5864
       222.0004        170.0004
  23176817.0484   -3472573.52649  -2682987.83245  23176817.1134   23176823.9854
       213.0004        152.0004
  20762691.1864   -3108907.94449  -2400090.79147  20762691.5784   20762695.2834
       240.0004        209.0004
 07  2 17 16 40 35.0000000  0  8G30G 2G 5G 4G24G 9G10G12
  22589117.3364   -4474186.58649  -3468931.05246  22589118.2194   22589122.5954
       222.0004        170.0004
  20144197.2704   -1515922.21849  -1179057.72548  20144197.1924   20144199.7394
       244.0004        219.0004
  20755948.6574   -3263966.71449  -2537178.53647  20755948.1664   20755953.7644
       237.0004        200.0004
  22174729.9414    1251478.56949    967521.75246  22174730.4844   22174734.9484
       228.0004        178.0004
  22753778.6194   -4535434.72049  -3512425.47146  22753778.3874   22753785.8024
       219.0004        165.0004
  22871311.9744    1437537.47949    906039.80646  22871311.9304   22871317.5054
       221.0004        170.0004
  23173662.9284   -3489148.53049  -2695903.41645  23173662.7274   23173670.0674
       212.0004        152.0004
  20761247.7754   -3116493.10549  -2406001.30847  20761248.1074   20761251.8424
       239.0004        209.0004
 07  2 17 16 40 40.0000000  0  8G30G 2G 5G 4G24G 9G10G12
  22586214.9404   -4489438.69749  -3480815.80346  22586215.8384   22586220.5634
       223.0004        170.0004
  20144392.3444   -1514897.15549  -1178258.97348  20144392.2674   20144394.8814
       244.0004        219.0004
  20754375.3414   -3272234.66149  -2543621.09247  20754375.0954   20754380.3534
       237.0004        200.0004
  22177522.9424    1266155.99449    978958.70846  22177522.9004   22177529.0884
       227.0004        178.0004
  22750866.1324   -4550739.89949  -3524351.58846  22750866.1734   22750872.5544
       219.0004        165.0004
  22874252.2074    1452988.34649    918079.43846  22874252.3854   22874258.6574
       222.0004        170.0004
  23170509.5194   -3505719.80649  -2708816.09245  23170509.3304   23170516.9614
       212.0004        152.0004
  20759806.4644   -3124067.28149  -2411903.26347  20759806.7054   20759810.5814
       239.0004        209.0004
 07  2 17 16 40 45.0000000  0  8G30G 2G 5G 4G24G 9G10G12
  22583313.8104   -4504684.27649  -3492695.48346  22583314.4774   22583320.2404
       222.0004        170.0004
  20144590.1514   -1513857.74149  -1177449.04448  20144590.1304   20144592.7604
       244.0004        219.0004
  20752804.3974   -3280490.00549  -2550053.82747  20752804.0334   20752809.4154
       238.0004        200.0004
  22180317.3264    1280840.62949    990401.27446  22180317.8064   22180322.8614
       228.0004        178.0004
  22747955.3074   -4566036.27649  -3536270.82546  22747955.5784   22747962.0844
       219.0004        165.0004
  22877193.6414    1468445.66949    930124.09846  22877194.3984   22877200.1974
       222.0004        170.0004
  23167356.9204   -3522286.93849  -2721725.54645  23167355.7834   23167364.1084
       211.0004        152.0004
  20758367.2994   -3131630.06449  -2417796.34547  20758367.7614   20758371.4304
       240.0004        209.0004
 07  2 17 16 40 50.0000000  0  8G30G 2G 5G 4G24G 9G10G12
  22580413.7454   -4519924.23949  -3504570.77646  22580413.7754   22580419.1754
       222.0004        170.0004
  20144790.4954   -1512804.88649  -1176628.63548  20144790.5124   20144793.0304
       244.0004        219.0004
  20751235.6724   -3288733.65049  -2556477.44947  20751235.3994   20751240.6544
       237.0004        200.0004
  22183112.9094    1295531.56149   1001848.74646  22183113.6404   22183119.5614
       228.0004        178.0004
  22745045.9994   -4581324.72649  -3548183.90946  22745046.4524   22745052.5154
       220.0004        165.0004
  22880136.1444    1483908.54649    942173.08246  22880136.4114   22880142.8554
       221.0004        170.0004
  23164204.9234   -3538850.78949  -2734632.43145  23164204.2154   23164211.7834
       213.0004        152.0004
  20756930.1794   -3139182.31549  -2423681.21847  20756930.7664   20756934.1944
       240.0004        209.0004
 07  2 17 16 40 55.0000000  0  8G30G 2G 5G 4G24G 9G10G12
  22577514.7804   -4535158.43449  -3516441.57046  22577515.5014   22577520.3254
       222.0004        170.0004
  20144993.4194   -1511738.47649  -1175797.66548  20144993.3214   20144996.0054
       244.0004        219.0004
  20749669.2214   -3296965.44449  -2562891.82847  20749669.1634   20749674.3444
       237.0004        200.0004
  22185909.7174    1310228.91149   1013301.22346  22185910.6444   22185914.8314
       227.0004        178.0004
  22742138.2184   -4596605.14949  -3560090.71646  22742137.3864   22742144.6794
       219.0004        165.0004
  22883079.6864    1499377.05849    954226.46546  22883080.3434   22883085.4614
       221.0004        170.0004
  23161053.5844   -3555411.25549  -2747536.67945  23161052.7374   23161060.0124
       213.0004        152.0004
  20755495.0564   -3146723.95249  -2429557.81647  20755495.4494   20755499.2244
       239.0004        209.0004
 07  2 17 16 41  0.0000000  0  8G30G 2G 5G 4G24G 9G10G12
  22574616.9734   -4550386.42249  -3528307.53146  22574617.9474   22574623.1044
       221.0004        170.0004
  20145199.0154   -1510658.11449  -1174955.82748  20145198.9494   20145201.5484
       244.0004        219.0004
  20748105.1004   -3305185.01349  -2569296.69147  20748104.8464   20748110.1414
       237.0004        200.0004
  22188707.8384    1324933.02749   1024758.96846  22188708.9664   22188713.7704
       228.0004        178.0004
  22739232.0364   -4611877.11249  -3571990.94846  22739231.8874   22739238.6014
       219.0004        165.0004
  22886024.4024    1514851.58849    966284.52546  22886024.8454   22886029.8854
       221.0004        170.0004
  23157902.9234   -3571967.91849  -2760437.96745  23157902.2784   23157909.7034
       211.0004        152.0004
  20754062.0354   -3154254.55349  -2435425.82047  20754062.5914   20754066.2864
       239.0004        209.0004
 07  2 17 16 41  5.0000000  0  8G30G 2G 5G 4G24G 9G10G12
  22571720.2794   -4565608.60649  -3540168.97146  22571721.1434   22571726.1684
       222.0004        170.0004
  20145407.1924   -1509564.24149  -1174103.45948  20145407.3054   20145409.7294
       243.0004        219.0004
  20746543.2364   -3313392.75849  -2575692.33947  20746543.1074   20746548.2364
       237.0004        200.0004
  22191507.1784    1339643.62049   1036221.76546  22191507.4394   22191513.0734
       228.0004        178.0004
  22736327.3914   -4627141.05949  -3583884.92646  22736327.3484   22736334.4364
       220.0004        165.0004
  22888970.1754    1530331.71949    978346.95346  22888970.4554   22888977.5044
       221.0004        170.0004
  23154752.9394   -3588521.16949  -2773336.58945  23154752.4484   23154759.4494
       212.0004        152.0004
  20752631.0274   -3161774.52149  -2441285.53847  20752631.3224   20752635.0994
       239.0004        210.0004
 07  2 17 16 41 10.0000000  0  8G30G 2G 5G 4G24G 9G10G12
  22568824.6494   -4580825.21249  -3552026.06246  22568825.2674   22568830.6204
       222.0004        170.0004
  20145617.8784   -1508457.03749  -1173240.70348  20145617.9394   20145620.5814
       244.0004        219.0004
  20744983.5614   -3321588.89749  -2582078.94147  20744983.2574   20744988.8744
       237.0004        200.0004
  22194307.6574    1354360.28849   1047689.28846  22194308.3104   22194313.3664
       228.0004        178.0004
  22733424.2384   -4642397.11949  -3595772.75846  22733424.1584   22733431.0674
       219.0004        165.0004
  22891916.9614    1545817.25349    990413.59546  22891917.5054   22891923.2874
       222.0004        170.0004
  23151603.5764   -3605071.20449  -2786232.71545  23151602.5894   23151610.4764
       212.0004        152.0004
  20751201.9894   -3169284.06449  -2447137.13147  20751202.4814   20751206.2334
       240.0004        210.0004
 07  2 17 16 41 15.0000000  0  8G30G 2G 5G 4G24G 9G10G12
  22565930.2074   -4596035.68549  -3563878.37546  22565930.9814   22565935.9544
       222.0004        170.0004
  20145831.2014   -1507335.95649  -1172367.13248  20145831.1214   20145833.8164
       244.0004        219.0004
  20743426.1954   -3329772.80249  -2588456.00947  20743425.8954   20743431.4284
       237.0004        200.0004
  22197109.4594    1369083.66349   1059162.05046  22197109.3614   22197115.1544
       227.0004        178.0004
  22730522.7124   -4657644.80749  -3607654.07346  22730522.1674   22730530.2734
       220.0004        165.0004
  22894864.8944    1561308.68249   1002484.82646  22894865.2754   22894870.9144
       222.0004        170.0004
  23148454.8954   -3621617.42949  -2799125.86945  23148454.3784   23148460.9904
       212.0004        152.0004
  20749775.0904   -3176782.59649  -2452980.14347  20749775.5894   20749779.2234
       239.0004        210.0004
 07  2 17 16 41 20.0000000  0  8G30G 2G 5G 4G24G 9G10G12
  22563036.8784   -4611240.13649  -3575726.00146  22563037.4444   22563042.1444
       223.0004        170.0004
  20146047.1524   -1506201.16549  -1171482.87848  20146047.0924   20146049.7404
       244.0004        219.0004
  20741871.1614   -3337944.65749  -2594823.68747  20741871.0214   20741876.1994
       237.0004        200.0004
  22199912.4494    1383813.57349   1070639.89946  22199912.7804   22199918.3774
       229.0004        178.0004
  22727622.7214   -4672884.26049  -3619528.97546  22727622.7844   22727630.0254
       222.0004        165.0004
  22897813.9444    1576805.90149   1014560.57246  22897814.3634   22897819.9744
       222.0004        170.0004
  23145306.9354   -3638159.99249  -2812016.17545  23145306.7384   23145312.9764
       212.0004        152.0004
  20748350.2244   -3184270.25749  -2458814.68347  20748350.7064   20748354.4974
       239.0004        210.0004
 07  2 17 16 41 25.0000000  0  8G30G 2G 5G 4G24G 9G10G12
  22560144.6634   -4626438.84549  -3587569.14546  22560145.5864   22560150.6254
       222.0004        170.0004
  20146265.6324   -1505052.99449  -1170588.20148  20146265.6704   20146268.2094
       244.0004        219.0004
  20740318.3414   -3346104.73949  -2601182.19247  20740317.9474   20740323.4864
       237.0004        200.0004
  22202716.6504    1398549.67449   1082122.56446  22202717.3394   22202722.1054
       229.0004        178.0004
  22724724.2484   -4688115.73149  -3631397.64146  22724724.6604   22724731.1684
       220.0004        166.0004
  22900763.9944    1592308.51349   1026640.53246  22900763.5114   22900771.8414
       221.0004        170.0004
  23142159.6174   -3654699.22349  -2824903.88045  23142159.0974   23142165.8664
       214.0004        152.0004
  20746927.4034   -3191747.35049  -2464640.99347  20746927.7714   20746931.4944
       240.0004        210.0004
 07  2 17 16 41 30.0000000  0  8G30G 2G 5G 4G24G 9G10G12
  22557253.6774   -4641631.00649  -3599407.18746  22557254.5084   22557259.3264
       221.0004        170.0004
  20146486.8444   -1503890.56949  -1169682.41648  20146487.0074   20146489.4274
       244.0004        219.0004
  20738767.9284   -3354252.21549  -2607530.87647  20738767.7204   20738772.7274
       237.0004        200.0004
  22205522.2004    1413292.85449   1093610.75046  22205523.0964   22205528.4934
       228.0004        178.0004
  22721827.4794   -4703338.40949  -3643259.45746  22721827.6164   22721834.9114
       221.0004        165.0004
  22903715.2414    1607817.38649   1038725.35346  22903715.5684   22903721.6184
       220.0004        170.0004
  23139013.0854   -3671234.21749  -2837788.27645  23139012.0554   23139019.9274
       213.0004        152.0004
  20745506.7214   -3199213.04849  -2470458.42147  20745507.2644   20745510.9794
       239.0004        210.0004
 07  2 17 16 41 35.0000000  0  8G30G 2G 5G 4G24G 9G10G12
  22554363.7684   -4656817.57949  -3611240.88446  22554363.2494   22554369.6334
       222.0004        170.0004
  20146710.5804   -1502714.90449  -1168766.31148  20146710.6224   20146713.2534
       244.0004        219.0004
  20737219.7364   -3362388.06749  -2613870.50247  20737219.6224   20737224.7864
       237.0004        200.0004
  22208328.8874    1428042.08249   1105103.65446  22208329.4234   22208334.1334
       229.0004        178.0004
  22718932.2144   -4718553.25149  -3655115.17946  22718931.8314   22718938.9004
       222.0004        166.0004
  22906667.4824    1623331.51349   1050814.27246  22906667.4144   22906674.2564
       221.0004        170.0004
  23135867.2064   -3687765.93149  -2850670.12545  23135866.8134   23135874.6014
       212.0004        152.0004
  20744088.0264   -3206668.30049  -2476267.70947  20744088.4664   20744092.3004
       240.0004        210.0004
 07  2 17 16 41 40.0000000  0  9G30G 2G 6G 5G 4G24G 9G10G12
  22551475.0224   -4671998.14749  -3623069.89046  22551475.6184   22551480.8994
       222.0004        170.0004
  20146936.9034   -1501525.60449  -1167839.58148  20146936.8164   20146939.3954
       244.0004        219.0004
                  -1605837.53659  -1235080.44143
       205.0004         74.0004
  20735673.8534   -3370511.82349  -2620200.70147  20735673.6224   20735678.8134
       237.0004        200.0004
  22211136.8314    1442797.79849   1116601.60646  22211137.6694   22211142.8594
       229.0004        178.0004
  22716038.5184   -4733759.79349  -3666964.42246  22716038.6544   22716046.3564
       222.0004        166.0004
  22909620.8054    1638851.29349   1062907.59646  22909620.5504   22909627.1664
       220.0004        170.0004
  23132722.0144   -3704293.94549  -2863549.09045  23132722.2604   23132728.6394
       213.0004        152.0004
  20742671.4174   -3214112.66649  -2482068.51447  20742671.7674   20742675.4624
       240.0004        210.0004
 07  2 17 16 41 45.0000000  0  8G30G 2G 5G 4G24G 9G10G12
  22548587.3644   -4687172.80549  -3634894.29346  22548587.5684   22548592.9114
       223.0004        170.0004
  20147165.7854   -1500322.78949  -1166902.32548  20147165.7674   20147168.3234
       244.0004        219.0004
  20734130.2104   -3378623.65149  -2626521.60747  20734129.8714   20734135.2764
       238.0004        200.0004
  22213945.9494    1457559.81649   1128104.47946  22213946.7854   22213951.6424
       228.0004        178.0004
  22713146.3634   -4748958.23749  -3678807.36946  22713146.8864   22713154.0424
       221.0004        166.0004
  22912575.1524    1654376.56949   1075005.20346  22912575.3944   22912582.2114
       221.0004        169.0004
  23129577.5454   -3720818.39149  -2876425.27745  23129577.7374   23129583.7734
       213.0004        152.0004
  20741256.8674   -3221546.28149  -2487860.94047  20741257.3164   20741260.9004
       240.0004        210.0004
 07  2 17 16 41 50.0000000  0  8G30G 2G 5G 4G24G 9G10G12
  22545700.9174   -4702341.21649  -3646713.83646  22545702.4254   22545707.0344
       223.0004        170.0004
  20147397.3094   -1499106.10349  -1165954.25548  20147397.2074   20147399.8374
       244.0004        219.0004
  20732588.9264   -3386723.16349  -2632832.91447  20732588.5784   20732594.1154
       237.0004        200.0004
  22216756.3454    1472328.46449   1139612.50546  22216757.5794   22216762.0974
       229.0004        178.0004
  22710255.8524   -4764148.18149  -3690643.67846  22710255.8674   22710262.6314
       221.0004        166.0004
  22915530.6364    1669907.73149   1087107.39146  22915531.0484   22915536.8854
       220.0004        169.0004
  23126433.8274   -3737338.89149  -2889298.39245  23126432.9444   23126439.9104
       214.0004        153.0004
  20739844.4204   -3228968.77449  -2493644.70547  20739844.9944   20739848.6364
       239.0004        210.0004
 07  2 17 16 41 55.0000000  0  8G30G 2G 5G 4G24G 9G10G12
  22542815.6404   -4717503.49349  -3658528.59446  22542815.8434   22542822.1124
       222.0004        170.0004
  20147631.4554   -1497875.68849  -1164995.49048  20147631.5554   20147634.0154
       244.0004        219.0004
  20731049.9564   -3394810.50749  -2639134.74247  20731049.6234   20731055.1924
       237.0004        200.0004
  22219567.9864    1487103.58649   1151125.58246  22219568.2534   22219573.7264
       227.0004        178.0004
  22707366.8724   -4779329.76449  -3702473.48246  22707367.3674   22707374.0864
       220.0004        166.0004
  22918487.2154    1685444.57649   1099214.01646  22918487.2714   22918492.6294
       221.0004        169.0004
  23123290.8134   -3753855.61549  -2902168.56945  23123290.5194   23123297.4864
       213.0004        153.0004
  20738434.0344   -3236380.31249  -2499419.93247  20738434.6204   20738438.1484
       239.0004        210.0004
 07  2 17 16 42  0.0000000  0  8G30G 2G 5G 4G24G 9G10G12
  22539931.5224   -4732659.57349  -3670338.53046  22539931.4204   22539936.6494
       221.0004        170.0004
  20147868.2334   -1496631.53749  -1164026.02248  20147868.2714   20147870.7844
       244.0004        219.0004
  20729513.3034   -3402885.68849  -2645427.09247  20729512.9774   20729518.2724
       237.0004        200.0004
  22222380.8284    1501885.17949   1162643.70046  22222381.9254   22222386.6324
       227.0004        178.0004
  22704479.5284   -4794502.98949  -3714296.76046  22704478.9864   22704486.1904
       221.0004        166.0004
  22921444.8814    1700987.09649   1111325.06146  22921444.7844   22921451.6634
       221.0004        169.0004
  23120148.4994   -3770368.51949  -2915035.76245  23120148.5144   23120155.6114
       212.0004        153.0004
  20737025.7614   -3243780.87149  -2505186.60247  20737026.2554   20737030.0314
       240.0004        210.0004
 07  2 17 16 42  5.0000000  0  8G30G 2G 5G 4G24G 9G10G12
  22537048.5604   -4747809.66849  -3682143.79346  22537049.5454   22537054.1204
       223.0004        170.0004
  20148107.5464   -1495373.86449  -1163046.01748  20148107.5954   20148110.1384
       244.0004        219.0004
  20727978.9554   -3410948.85549  -2651710.08147  20727978.7594   20727983.9264
       237.0004        200.0004
  22225194.9024    1516673.07049   1174166.73246  22225195.5974   22225200.4754
       228.0004        178.0004
  22701593.7184   -4809668.02949  -3726113.67846  22701594.0834   22701600.6214
       221.0004        166.0004
  22924403.5864    1716535.12849   1123440.40846  22924403.5564   22924410.4954
       221.0004        169.0004
  23117006.8864   -3786877.73749  -2927900.08345  23117006.6594   23117014.0114
       213.0004        153.0004
  20735619.5534   -3251170.62249  -2510944.85347  20735620.1094   20735623.7664
       240.0004        210.0004
 07  2 17 16 42 10.0000000  0  8G30G 2G 5G 4G24G 9G10G12
  22534166.6744   -4762954.08349  -3693944.63546  22534167.4014   22534172.1314
       222.0004        170.0004
  20148349.3964   -1494102.92549  -1162055.67348  20148349.4384   20148351.9764
       244.0004        219.0004
  20726446.8264   -3419000.26349  -2657983.90447  20726446.8194   20726451.6444
       238.0004        200.0004
  22228010.0824    1531466.94949   1185694.42546  22228010.3494   22228015.9724
       227.0004        177.0004
  22698709.4114   -4824825.12349  -3737924.38946  22698709.7804   22698716.4584
       221.0004        166.0004
  22927363.2794    1732088.35249   1135559.79446  22927363.5274   22927370.0224
       221.0004        169.0004
  23113865.9084   -3803383.55749  -2940761.75545  23113865.4944   23113872.7334
       214.0004        153.0004
  20734215.3524   -3258549.79249  -2516694.85647  20734215.9414   20734219.6934
       239.0004        210.0004
 07  2 17 16 42 15.0000000  0  8G30G 2G 5G 4G24G 9G10G12
  22531285.9684   -4778092.24849  -3705740.60446  22531286.6954   22531291.1314
       223.0004        170.0004
  20148593.8924   -1492818.16049  -1161054.55848  20148593.9194   20148596.5194
       244.0004        219.0004
  20724917.0314   -3427039.38549  -2664248.15847  20724917.0094   20724922.1214
       238.0004        200.0004
  22230826.5324    1546267.35049   1197227.20046  22230826.8094   22230832.0274
       227.0004        177.0004
  22695826.7114   -4839973.76549  -3749728.52246  22695826.7964   22695834.1054
       221.0004        166.0004
  22930324.0474    1747647.26349   1147683.60646  22930324.0074   22930330.6974
       221.0004        169.0004
  23110725.6874   -3819885.44949  -2953620.36945  23110725.0784   23110732.2064
       213.0004        153.0004
  20732813.2564   -3265917.85949  -2522436.20947  20732813.7824   20732817.3364
       240.0004        210.0004
 07  2 17 16 42 20.0000000  0  8G30G 2G 5G 4G24G 9G10G12
  22528406.3784   -4793224.68349  -3717532.11346  22528406.7694   22528412.4774
       223.0004        170.0004
  20148840.8954   -1491520.10649  -1160043.08548  20148840.9184   20148843.3214
       244.0004        219.0004
  20723389.5134   -3435066.71049  -2670503.21547  20723389.2064   20723394.6564
       238.0004        200.0004
  22233644.1444    1561073.83449   1208764.72246  22233644.2584   22233649.4764
       228.0004        177.0004
  22692945.5584   -4855114.43549  -3761526.44246  22692945.5214   22692952.3624
       223.0004        166.0004
  22933285.8114    1763211.38549   1159811.48446  22933286.4664   22933292.0994
       221.0004        169.0004
  23107586.1494   -3836383.86349  -2966476.26445  23107585.3524   23107592.4934
       213.0004        153.0004
  20731413.1964   -3273275.28949  -2528169.27047  20731413.7814   20731417.3574
       239.0004        210.0004
 07  2 17 16 42 25.0000000  0  8G30G 2G 5G 4G24G 9G10G12
  22525528.0444   -4808350.47549  -3729318.44246  22525528.7914   22525533.6444
       222.0004        170.0004
  20149090.6014   -1490207.92049  -1159020.60248  20149090.5854   20149093.1844
       244.0004        219.0004
  20721864.3624   -3443081.38449  -2676748.41447  20721864.1024   20721869.4334
       238.0004        200.0004
  22236463.0374    1575887.12149   1220307.52846  22236463.8364   22236469.1034
       227.0004        177.0004
  22690066.0574   -4870246.25649  -3773317.47646  22690066.1944   22690073.0424
       221.0004        166.0004
  22936248.7104    1778781.49949   1171944.03946  22936248.3864   22936255.5234
       220.0004        169.0004
  23104447.4304   -3852877.94149  -2979328.79045  23104446.5844   23104453.9874
       214.0004        153.0004
  20730015.2904   -3280621.25849  -2533893.40347  20730015.7894   20730019.3934
       240.0004        210.0004
 07  2 17 16 42 30.0000000  0  8G30G 2G 5G 4G24G 9G10G12
  22522650.8374   -4823470.41049  -3741100.20846  22522651.5634   22522656.4594
       223.0004        170.0004
  20149342.8484   -1488882.37949  -1157987.71548  20149342.8304   20149345.4514
       244.0004        219.0004
  20720341.4914   -3451084.18449  -2682984.36247  20720341.2464   20720346.5854
       237.0004        201.0004
  22239283.0534    1590706.44949   1231855.05846  22239283.3554   22239288.6914
       227.0004        177.0004
  22687188.0974   -4885370.05749  -3785102.24346  22687187.8274   22687195.7644
       221.0004        166.0004
  22939212.5834    1794356.83649   1184080.65246  22939212.4344   22939218.5264
       220.0004        169.0004
  23101309.3804   -3869368.47349  -2992178.55045  23101308.5074   23101315.8184
       215.0004        153.0004
  20728619.4494   -3287956.56249  -2539609.22647  20728620.0154   20728623.5944
       239.0004        210.0004
 07  2 17 16 42 35.0000000  0  8G30G 2G 5G 4G24G 9G10G12
  22519774.5884   -4838585.31849  -3752878.05846  22519774.9344   22519779.6424
       223.0004        170.0004
  20149597.4624   -1487544.35549  -1156945.09648  20149597.4444   20149600.1354
       244.0004        219.0004
  20718820.7144   -3459075.93049  -2689211.69747  20718820.5194   20718825.7114
       237.0004        201.0004
  22242104.0754    1605530.98049   1243406.63146  22242104.2824   22242110.2874
       226.0004        177.0004
  22684311.5054   -4900486.64049  -3796881.40046  22684311.6184   22684318.5004
       221.0004        167.0004
  22942177.3024    1809936.56449   1196220.69446  22942177.5314   22942183.5984
       221.0004        169.0004
  23098171.8764   -3885856.26249  -3005026.17245  23098171.7184   23098178.6584
       214.0004        153.0004
  20727225.4444   -3295282.03949  -2545317.39247  20727225.9504   20727229.6774
       239.0004        210.0004
 07  2 17 16 42 40.0000000  0  8G30G 2G 5G 4G24G 9G10G12
  22516899.6974   -4853693.04949  -3764650.31146  22516899.5654   22516905.3994
       223.0004        170.0004
  20149854.8574   -1486191.71349  -1155891.09048  20149854.7564   20149857.4454
       244.0004        219.0004
  20717302.4724   -3467054.45749  -2695428.73147  20717302.1904   20717307.2904
       239.0004        201.0004
  22244926.5184    1620362.87349   1254963.94546  22244926.7684   22244931.6364
       228.0004        177.0004
  22681436.7124   -4915593.80649  -3808653.21446  22681436.9084   22681443.1654
       220.0004        167.0004
  22945143.2594    1825522.79049   1208365.79646  22945143.3184   22945149.5674
       220.0004        169.0004
  23095035.2974   -3902339.13749  -3017869.96645  23095035.2004   23095042.1634
       214.0004        154.0004
  20725833.7334   -3302595.50149  -2551016.19247  20725834.1044   20725837.8274
       239.0004        210.0004
 07  2 17 16 42 45.0000000  0  8G30G 2G 5G 4G24G 9G10G12
  22514026.1174   -4868793.81549  -3776417.13446  22514026.8944   22514031.0564
       222.0004        170.0004
  20150115.0014   -1484824.69249  -1154825.88148  20150115.0064   20150117.7434
       244.0004        219.0004
  20715786.6664   -3475020.02949  -2701635.67547  20715786.2904   20715791.5844
       239.0004        201.0004
  22247750.2884    1635201.88149   1266526.80246  22247750.8734   22247756.5994
       226.0004        177.0004
  22678563.6684   -4930691.84549  -3820417.91846  22678563.4274   22678571.0134
       220.0004        167.0004
  22948110.4334    1841115.28649   1220515.77346  22948110.8434   22948117.2524
       220.0004        169.0004
  23091899.5934   -3918817.32749  -3030710.11045  23091899.3414   23091905.7664
       215.0004        154.0004
  20724444.2724   -3309897.21449  -2556705.84347  20724444.7454   20724448.4704
       240.0004        210.0004
 07  2 17 16 42 50.0000000  0  8G30G 2G 5G 4G24G 9G10G12
  22511153.5874   -4883889.17549  -3788179.75346  22511154.0424   22511159.2944
       224.0004        170.0004
  20150377.5784   -1483444.80049  -1153750.63848  20150377.5044   20150380.1244
       244.0004        219.0004
  20714273.0724   -3482974.13449  -2707833.67647  20714272.6374   20714278.1804
       239.0004        201.0004
  22250575.0974    1650046.36449   1278093.93246  22250575.7574   22250580.9604
       227.0004        177.0004
  22675692.0624   -4945782.25149  -3832176.67146  22675691.8354   22675698.8404
       222.0004        167.0004
  22951078.4854    1856712.50749   1232669.44546  22951079.2084   22951084.6634
       220.0004        169.0004
  23088764.5124   -3935292.33649  -3043547.77645  23088764.0514   23088770.6694
       215.0004        154.0004
  20723056.7634   -3317188.64149  -2562387.47347  20723057.2164   20723060.9204
       240.0004        210.0004
 07  2 17 16 42 55.0000000  0  8G30G 2G 5G 4G24G 9G10G12
  22508282.4044   -4898977.33349  -3799936.76246  22508282.1214   22508287.5564
       225.0004        171.0004
  20150642.9414   -1482050.33849  -1152664.04548  20150643.0604   20150645.6614
       245.0004        219.0004
  20712761.9614   -3490915.04849  -2714021.40147  20712761.8034   20712766.9774
       240.0004        201.0004
  22253401.3014    1664898.12349   1289666.72346  22253401.6014   22253407.4824
       228.0004        177.0004
  22672822.2254   -4960863.34049  -3843928.16246  22672822.6414   22672829.1214
       222.0004        167.0004
  22954047.7594    1872316.11549   1244828.09446  22954048.1434   22954053.8444
       221.0004        168.0004
  23085630.3594   -3951762.45449  -3056381.63445  23085630.0514   23085637.0724
       215.0004        154.0004
  20721671.5314   -3324468.06349  -2568059.75447  20721671.9654   20721675.8004
       240.0004        210.0004
 07  2 17 16 43  0.0000000  0  8G30G 2G 5G 4G24G 9G10G12
  22505412.0384   -4914061.32049  -3811690.51246  22505412.8974   22505417.4894
       223.0004        171.0004
  20150910.4834   -1480644.34949  -1151568.46848  20150910.5054   20150913.1024
       244.0004        219.0004
  20711252.7744   -3498845.77249  -2720201.18747  20711252.3784   20711257.5694
       239.0004        201.0004
  22256228.3254    1679754.10049   1301242.80546  22256228.7034   22256234.1654
       226.0004        176.0004
  22669953.5774   -4975938.07749  -3855674.70946  22669954.1374   22669960.4084
       221.0004        167.0004
  22957017.6554    1887923.10949   1256989.38646  22957018.1574   22957024.1664
       220.0004        168.0004
  23082496.5614   -3968230.70549  -3069214.03345  23082495.5714   23082503.5814
       214.0004        154.0004
  20720288.0104   -3331738.54449  -2573725.06247  20720288.4234   20720292.0184
       239.0004        210.0004
 07  2 17 16 43  5.0000000  0  8G30G 2G 5G 4G24G 9G10G12
  22502543.0724   -4929137.80949  -3823438.42746  22502543.4334   22502548.7454
       224.0004        171.0004
  20151180.8634   -1479223.51649  -1150461.32948  20151180.8584   20151183.6524
       244.0004        219.0004
  20709746.1654   -3506762.99449  -2726370.45347  20709745.9814   20709751.4044
       239.0004        201.0004
  22259056.7634    1694617.64349   1312824.77946  22259057.1554   22259062.5934
       227.0004        176.0004
  22667086.7974   -4991003.12949  -3867413.70846  22667086.9524   22667093.4314
       222.0004        167.0004
  22959988.8154    1903536.74949   1269155.83946  22959988.9204   22959995.8814
       220.0004        168.0004
  23079363.7334   -3984693.72049  -3082042.35545  23079362.8604   23079370.1614
       214.0004        154.0004
  20718906.8274   -3338996.71749  -2579380.78747  20718907.4894   20718911.0754
       240.0004        210.0004
 07  2 17 16 43 10.0000000  0  8G30G 2G 5G 4G24G 9G10G12
  22499675.2444   -4944208.33649  -3835181.68646  22499675.1094   22499681.5914
       222.0004        171.0004
  20151453.7784   -1477789.37049  -1149343.80948  20151453.6394   20151456.3944
       244.0004        219.0004
  20708241.8374   -3514668.25649  -2732530.39547  20708241.4134   20708247.0424
       239.0004        201.0004
  22261886.3144    1709487.10649   1324411.36946  22261887.0764   22261892.0434
       226.0004        176.0004
  22664221.5744   -5006060.06749  -3879146.37846  22664221.8064   22664228.3774
       221.0004        167.0004
  22962960.9594    1919155.55249   1281326.32946  22962961.4234   22962967.4964
       220.0004        168.0004
  23076231.6334   -4001153.03949  -3094867.80145  23076230.8984   23076238.1304
       212.0004        154.0004
  20717527.7204   -3346244.11549  -2585028.10747  20717528.1444   20717531.7234
       240.0004        210.0004
 07  2 17 16 43 15.0000000  0  8G30G 2G 5G 4G24G 9G10G12
  22496808.6704   -4959272.33449  -3846919.87546  22496808.9134   22496814.5644
       223.0004        171.0004
  20151729.3174   -1476341.39149  -1148215.51648  20151729.1784   20151732.0014
       244.0004        219.0004
  20706739.9254   -3522560.97649  -2738680.56947  20706739.6624   20706744.7904
       239.0004        201.0004
  22264717.1404    1724363.10049   1336003.04146  22264717.4774   22264722.5984
       225.0004        176.0004
  22661357.9864   -5021108.29749  -3890872.27346  22661357.7384   22661364.6464
       222.0004        167.0004
  22965934.1944    1934779.98949   1293501.20446  22965933.7754   22965940.2024
       220.0004        168.0004
  23073100.3204   -4017608.07549  -3107689.90445  23073099.6854   23073107.1534
       214.0004        154.0004
  20716150.7474   -3353480.19049  -2590666.60747  20716151.0174   20716154.9104
       241.0004        210.0004
 07  2 17 16 43 20.0000000  0  8G30G 2G 5G 4G24G 9G10G12
  22493943.1484   -4974330.59649  -3858653.57446  22493944.1274   22493948.9064
       224.0004        171.0004
  20152007.3634   -1474880.27749  -1147076.98348  20152007.2964   20152010.0204
       244.0004        219.0004
  20705240.2114   -3530441.89749  -2744821.54447  20705240.1314   20705245.1544
       240.0004        201.0004
  22267549.0124    1739244.79349   1347599.17446  22267549.4364   22267554.6164
       226.0004        176.0004
  22658495.9284   -5036148.56749  -3902591.95746  22658495.6204   22658502.9764
       222.0004        167.0004
  22968908.3894    1950409.38149   1305679.94646  22968908.0464   22968914.8614
       220.0004        168.0004
  23069969.7104   -4034059.57049  -3120509.24145  23069969.0734   23069975.9284
       215.0004        154.0004
  20714775.7954   -3360705.65849  -2596296.84247  20714776.3194   20714779.9204
       241.0004        210.0004
 07  2 17 16 43 25.0000000  0  9G30G 2G 6G 5G 4G24G 9G10G12
  22491078.9034   -4989382.23849  -3870382.12946  22491078.9804   22491084.1864
       224.0004        171.0004
  20152288.0374   -1473405.31049  -1145927.66148  20152288.1114   20152290.6304
       245.0004        219.0004
                  -1592142.79159  -1230142.95343
       204.0004         74.0004
  20703742.9264   -3538310.23549  -2750952.71647  20703742.8174   20703748.0214
       240.0004        201.0004
  22270382.1594    1754132.99649   1359200.35946  22270382.2054   22270387.8114
       226.0004        176.0004
  22655635.5024   -5051180.10549  -3914304.84446  22655634.7604   22655642.7834
       222.0004        167.0004
  22971883.6404    1966044.42149   1317863.07946  22971883.9364   22971890.3754
       220.0004        168.0004
  23066839.9294   -4050506.75949  -3133325.23745  23066839.8094   23066846.6794
       215.0004        154.0004
  20713402.9884   -3367919.73549  -2601918.20447  20713403.3594   20713407.1564
       242.0004        210.0004
 07  2 17 16 43 30.0000000  0  8G30G 2G 5G 4G24G 9G10G12
  22488215.9784   -5004427.08949  -3882105.38646  22488216.7124   22488221.7694
       223.0004        171.0004
  20152571.3914   -1471916.29049  -1144767.39048  20152571.4154   20152574.0604
       244.0004        219.0004
  20702248.0794   -3546165.83349  -2757073.96747  20702247.7824   20702253.3474
       239.0004        201.0004
  22273216.5734    1769027.97949   1370806.82546  22273217.9424   22273222.7804
       226.0004        176.0004
  22652776.7964   -5066202.74649  -3926010.79646  22652776.4494   22652783.8164
       221.0004        168.0004
  22974860.0044    1981685.26549   1330050.73546  22974860.3654   22974866.7184
       219.0004        168.0004
  23063711.0144   -4066949.39949  -3146137.68245  23063711.1754   23063718.1514
       216.0004        154.0004
  20712032.4234   -3375122.20549  -2607530.52347  20712033.0084   20712036.5964
       241.0004        210.0004
 07  2 17 16 43 35.0000000  0  8G30G 2G 5G 4G24G 9G10G12
  22485354.1214   -5019466.22049  -3893824.19046  22485354.4134   22485359.3644
       225.0004        171.0004
  20152857.2294   -1470414.26949  -1143596.98148  20152857.3574   20152859.9024
       244.0004        219.0004
  20700755.4454   -3554009.65749  -2763186.03647  20700755.2954   20700760.7204
       240.0004        201.0004
  22276052.0674    1783928.60549   1382417.70446  22276052.4804   22276058.0664
       226.0004        176.0004
  22649919.5824   -5081217.46849  -3937710.57946  22649919.7574   22649927.1524
       223.0004        168.0004
  22977837.2814    1997330.91449   1342242.14246  22977837.7544   22977844.0254
       221.0004        167.0004
  23060582.7544   -4083388.54549  -3158947.40445  23060582.3914   23060589.1414
       215.0004        155.0004
  20710663.8374   -3382314.14149  -2613134.62947  20710664.1564   20710668.0744
       241.0004        210.0004
 07  2 17 16 43 40.0000000  0  8G30G 2G 5G 4G24G 9G10G12
  22482493.5084   -5034498.99149  -3905538.03646  22482494.3934   22482498.6574
       225.0004        172.0004
  20153145.6264   -1468898.69249  -1142416.01148  20153145.6984   20153148.2264
       244.0004        219.0004
  20699265.1714   -3561841.14949  -2769288.49647  20699265.0274   20699270.2404
       239.0004        201.0004
  22278888.7654    1798835.47149   1394033.43246  22278888.6964   22278894.2344
       226.0004        176.0004
  22647063.9654   -5096223.72749  -3949403.75946  22647064.0544   22647071.1514
       222.0004        168.0004
  22980815.5754    2012981.85749   1354437.67546  22980816.2224   22980821.8604
       220.0004        167.0004
  23057455.3124   -4099823.63749  -3171753.96645  23057455.6764   23057460.9574
       215.0004        155.0004
  20709297.3684   -3389494.95349  -2618730.06647  20709297.7614   20709301.5664
       241.0004        210.0004
 07  2 17 16 43 45.0000000  0  8G30G 2G 5G 4G24G 9G10G12
  22479634.1014   -5049525.33749  -3917246.87346  22479634.4934   22479639.6534
       224.0004        172.0004
  20153436.6554   -1467369.44749  -1141224.39248  20153436.7064   20153439.3434
       244.0004        219.0004
  20697777.2644   -3569660.21149  -2775381.27347  20697776.8874   20697782.4214
       239.0004        201.0004
  22281726.6144    1813748.54849   1405654.01746  22281726.9814   22281732.3974
       225.0004        176.0004
  22644209.9914   -5111221.38249  -3961090.24146  22644209.5804   22644217.2744
       221.0004        168.0004
  22983794.8984    2028638.21049   1366637.41546  22983795.4104   22983801.2504
       220.0004        167.0004
  23054328.6284   -4116254.51049  -3184557.24545  23054328.4214   23054334.9244
       215.0004        155.0004
  20707933.0404   -3396664.50849  -2624316.73447  20707933.5864   20707937.2964
       241.0004        210.0004
 07  2 17 16 43 50.0000000  0  8G30G 2G 5G 4G24G 9G10G12
  22476775.8224   -5064545.77649  -3928951.11146  22476775.7324   22476781.2554
       227.0004        172.0004
  20153730.1624   -1465827.08249  -1140022.55048  20153730.2334   20153732.7924
       244.0004        219.0004
  20696291.6244   -3577467.38849  -2781464.78747  20696291.5654   20696296.7504
       239.0004        201.0004
  22284565.5744    1828667.33149   1417279.03146  22284565.8964   22284571.5424
       226.0004        175.0004
  22641357.5224   -5126211.04249  -3972770.49446  22641357.9844   22641364.8204
       221.0004        168.0004
  22986775.1344    2044299.39849   1378840.93046  22986776.1264   22986782.3554
       221.0004        167.0004
  23051202.6374   -4132681.73549  -3197357.67745  23051201.7354   23051208.7904
       215.0004        155.0004
  20706570.7694   -3403823.37849  -2629895.07747  20706571.1794   20706574.8694
       241.0004        210.0004
 07  2 17 16 43 55.0000000  0  8G30G 2G 5G 4G24G 9G10G12
  22473918.8034   -5079559.60949  -3940650.19346  22473919.2494   22473923.4714
       226.0004        172.0004
  20154026.2824   -1464270.91349  -1138809.95248  20154026.4584   20154028.8254
       244.0004        219.0004
  20694808.3434   -3585261.97649  -2787538.49447  20694807.9234   20694813.4264
       240.0004        201.0004
  22287405.7554    1843592.58049   1428909.09146  22287405.8904   22287411.4874
       225.0004        175.0004
  22638506.7664   -5141191.94849  -3984443.92846  22638506.5084   22638513.3224
       219.0004        168.0004
  22989756.4204    2059966.12149   1391048.76146  22989756.9324   22989763.4864
       221.0004        167.0004
  23048077.4524   -4149104.57749  -3210154.69345  23048077.4484   23048083.8484
       215.0004        155.0004
  20705210.6414   -3410970.87249  -2635464.55147  20705211.1114   20705214.7894
       242.0004        210.0004
 07  2 17 16 44  0.0000000  0  8G30G 2G 5G 4G24G 9G10G12
  22471063.0194   -5094566.97449  -3952344.25146  22471063.4564   22471068.2204
       224.0004        172.0004
  20154325.0354   -1462701.06849  -1137586.69648  20154325.1414   20154327.6164
       244.0004        219.0004
  20693327.4604   -3593044.08449  -2793602.47947  20693327.4874   20693332.4144
       239.0004        201.0004
  22290247.1274    1858524.05049   1440543.99546  22290247.5334   22290252.3544
       224.0004        175.0004
  22635657.6154   -5156164.24249  -3996110.64746  22635657.7604   22635664.2924
       219.0004        168.0004
  22992738.7524    2075638.21549   1403260.76846  22992739.8674   22992745.8574
       221.0004        167.0004
  23044953.1044   -4165523.15049  -3222948.38745  23044952.6814   23044959.4434
       216.0004        155.0004
  20703852.6674   -3418107.09549  -2641025.24447  20703853.1114   20703856.7924
       242.0004        210.0004
 07  2 17 16 44  5.0000000  0  8G30G 2G 5G 4G24G 9G10G12
  22468208.4334   -5109567.98649  -3964033.34946  22468209.5824   22468214.1564
       226.0004        172.0004
  20154626.3164   -1461117.70849  -1136352.90948  20154626.4024   20154628.8254
       244.0004        219.0004
  20691848.9424   -3600813.89849  -2799656.87847  20691848.6714   20691853.7464
       240.0004        201.0004
  22293089.6384    1873461.56849   1452183.60846  22293090.3154   22293095.7274
       226.0004        175.0004
  22632810.0664   -5171128.11149  -4007770.80646  22632809.3724   22632816.6884
       221.0004        168.0004
  22995722.0634    2091315.55549   1415476.87346  22995722.1434   22995728.4864
       221.0004        167.0004
  23041829.5134   -4181937.60849  -3235738.87245  23041828.2444   23041835.9684
       215.0004        156.0004
  20702496.8114   -3425232.19249  -2646577.27147  20702497.1794   20702500.9294
       242.0004        210.0004
 07  2 17 16 44 10.0000000  0  8G30G 2G 5G 4G24G 9G10G12
  22465354.9724   -5124563.09949  -3975717.85046  22465355.2584   22465359.6294
       225.0004        172.0004
  20154930.1314   -1459521.28449  -1135108.94148  20154930.1224   20154932.7374
       244.0004        219.0004
  20690372.6634   -3608571.80649  -2805702.00147  20690372.6734   20690377.7784
       239.0004        201.0004
  22295933.2444    1888404.79649   1463827.68046  22295934.2064   22295938.8974
       226.0004        175.0004
  22629964.0824   -5186083.91049  -4019424.67246  22629964.1024   22629970.7824
       222.0004        168.0004
  22998706.3024    2106997.67849   1427696.69446  22998706.3374   22998713.3524
       220.0004        167.0004
  23038706.6344   -4198348.35149  -3248526.46645  23038705.9364   23038712.9154
       215.0004        156.0004
  20701143.0104   -3432346.56749  -2652120.93947  20701143.4674   20701147.1344
       242.0004        210.0004
 07  2 17 16 44 15.0000000  0  8G30G 2G 5G 4G24G 9G10G12
  22462502.7124   -5139551.82949  -3987397.37546  22462503.1234   22462508.2424
       225.0004        172.0004
  20155236.4904   -1457911.40949  -1133854.49348  20155236.5404   20155238.8804
       244.0004        219.0004
  20688898.7204   -3616317.38449  -2811737.51447  20688898.5944   20688903.6704
       239.0004        201.0004
  22298777.9864    1903354.03749   1475476.43546  22298778.6974   22298783.2864
       225.0004        175.0004
  22627119.6674   -5201031.28949  -4031071.97446  22627119.6114   22627127.0364
       222.0004        168.0004
  23001691.5024    2122684.93949   1439920.52646  23001691.7604   23001698.0084
       221.0004        167.0004
  23035584.5534   -4214754.98649  -3261310.86145  23035584.3174   23035590.8124
       216.0004        156.0004
  20699791.3144   -3439449.81149  -2657655.93547  20699791.8224   20699795.5234
       241.0004        210.0004
 07  2 17 16 44 20.0000000  0  8G30G 2G 5G 4G24G 9G10G12
  22459651.7164   -5154533.99949  -3999071.79846  22459651.7374   22459656.7264
       225.0004        172.0004
  20155545.4344   -1456287.82849  -1132589.36648  20155545.3264   20155548.0894
       243.0004        219.0004
  20687427.1744   -3624050.41149  -2817763.25147  20687426.8524   20687432.2674
       239.0004        201.0004
  22301623.9184    1918309.53749   1487130.05946  22301623.8474   22301629.9084
       225.0004        175.0004
  22624276.9214   -5215969.99349  -4042712.52546  22624277.4594   22624284.1474
       220.0004        168.0004
  23004677.7334    2138377.55949   1452148.53546  23004678.6524   23004684.6514
       221.0004        167.0004
  23032463.2944   -4231157.25449  -3274091.84445  23032462.8484   23032469.8234
       216.0004        156.0004
  20698441.7534   -3446541.70049  -2663182.08447  20698442.3074   20698445.8744
       241.0004        210.0004
 07  2 17 16 44 25.0000000  0  8G30G 2G 5G 4G24G 9G10G12
  22456801.9224   -5169509.78849  -4010741.24746  22456802.5094   22456807.4714
       224.0004        172.0004
  20155856.9454   -1454650.80549  -1131313.76548  20155856.9014   20155859.4654
       243.0004        219.0004
  20685957.9614   -3631771.11849  -2823779.38947  20685957.7794   20685963.1624
       239.0004        201.0004
  22304471.0434    1933271.11949   1498788.43046  22304471.2164   22304476.5354
       226.0004        175.0004
  22621435.7934   -5230900.22449  -4054346.46546  22621435.7264   22621442.3884
       220.0004        168.0004
  23007664.8954    2154075.28949   1464380.52946  23007665.5154   23007671.9604
       220.0004        167.0004
  23029342.8544   -4247555.37249  -3286869.59745  23029342.0084   23029348.7904
       216.0004        156.0004
  20697094.3364   -3453622.45949  -2668699.56247  20697094.7994   20697098.5444
       241.0004        210.0004
 07  2 17 16 44 30.0000000  0  8G30G 2G 5G 4G24G 9G10G12
  22453953.4044   -5184478.91549  -4022405.49846  22453953.8814   22453958.6034
       226.0004        172.0004
  20156171.0964   -1453000.01149  -1130027.43148  20156171.0534   20156173.6304
       243.0004        218.0004
  20684491.1684   -3639479.16249  -2829785.65347  20684490.8954   20684496.1724
       240.0004        201.0004
  22307319.3514    1948238.98049   1510451.69846  22307319.6344   22307325.2604
       225.0004        175.0004
  22618596.3394   -5245821.63949  -4065973.54346  22618596.3624   22618603.4504
       222.0004        168.0004
  23010653.1154    2169778.42149   1476616.72146  23010652.9464   23010660.5794
       219.0004        167.0004
  23026223.2574   -4263949.00349  -3299643.85445  23026222.4884   23026229.8444
       216.0004        156.0004
  20695749.1114   -3460691.74449  -2674208.09547  20695749.6014   20695753.1464
       241.0004        210.0004
 07  2 17 16 44 35.0000000  0  8G30G 2G 5G 4G24G 9G10G12
  22451106.1264   -5199441.52849  -4034064.67546  22451106.5124   22451112.1164
       224.0004        172.0004
  20156487.7974   -1451335.61149  -1128730.49748  20156487.7244   20156490.3184
       245.0004        218.0004
  20683026.7664   -3647174.67249  -2835782.15747  20683026.4694   20683031.8844
       240.0004        201.0004
  22310168.7964    1963212.94649   1522119.71146  22310169.6414   22310174.8334
       226.0004        175.0004
  22615758.5044   -5260734.43849  -4077593.90246  22615758.7364   22615764.9424
       222.0004        168.0004
  23013642.3204    2185486.78649   1488856.98546  23013642.1774   23013649.3144
       221.0004        167.0004
  23023104.4674   -4280338.31949  -3312414.75145  23023103.8374   23023111.5304
       217.0004        156.0004
  20694406.0284   -3467749.71449  -2679707.81447  20694406.6204   20694410.0914
       242.0004        210.0004
 07  2 17 16 44 40.0000000  0  8G30G 2G 5G 4G24G 9G10G12
  22448259.8464   -5214398.85349  -4045719.73346  22448260.2834   22448264.6854
       225.0004        172.0004
  20156806.8484   -1449658.92449  -1127423.99148  20156806.8534   20156809.4104
       244.0004        218.0004
  20681564.4884   -3654858.95749  -2841769.91347  20681564.2914   20681569.6154
       239.0004        201.0004
  22313019.2064    1978191.80849   1533791.54646  22313020.0984   22313025.8344
       225.0004        175.0004
  22612922.1004   -5275639.86349  -4089208.52246  22612922.4604   22612928.9464
       221.0004        168.0004
  23016632.2934    2201199.08549   1501100.34046  23016632.3674   23016638.5094
       219.0004        167.0004
  23019986.2794   -4296724.56349  -3325183.25345  23019985.9054   23019993.1474
       215.0004        156.0004
  20693064.8394   -3474797.64849  -2685199.71347  20693065.4394   20693068.9474
       241.0004        210.0004
 07  2 17 16 44 45.0000000  0  8G30G 2G 5G 4G24G 9G10G12
  22445414.9124   -5229348.91449  -4057369.12546  22445416.0324   22445420.9984
       224.0004        172.0004
  20157128.6514   -1447967.87649  -1126106.29048  20157128.6504   20157131.3394
       244.0004        218.0004
  20680104.7444   -3662529.97449  -2847747.33147  20680104.3624   20680109.8624
       240.0004        201.0004
  22315870.9174    1993177.55849   1545468.74846  22315870.7644   22315876.4154
       226.0004        175.0004
  22610087.4934   -5290535.90149  -4100815.82246  22610087.6824   22610094.5244
       220.0004        168.0004
  23019623.3514    2216917.34249   1513348.31546  23019623.7264   23019630.0054
       220.0004        166.0004
  23016869.0714   -4313105.67649  -3337947.76445  23016868.4244   23016875.4874
       216.0004        156.0004
  20691725.9814   -3481833.49649  -2690682.19247  20691726.5064   20691730.1164
       242.0004        210.0004
 07  2 17 16 44 50.0000000  0  8G30G 2G 5G 4G24G 9G10G12
  22442571.4064   -5244291.70949  -4069012.86546  22442571.8414   22442576.4894
       224.0004        172.0004
  20157453.1474   -1446262.58149  -1124777.49048  20157453.1464   20157455.8544
       244.0004        218.0004
  20678647.5184   -3670187.79349  -2853714.46447  20678647.4004   20678652.5074
       240.0004        201.0004
  22318723.8904    2008170.08449   1557151.22946  22318724.3094   22318729.5234
       226.0004        175.0004
  22607254.6444   -5305422.60549  -4112415.85846  22607254.6434   22607262.0834
       221.0004        168.0004
  23022615.5614    2232641.40149   1525600.81446  23022615.5654   23022622.2064
       220.0004        166.0004
  23013752.7994   -4329481.77049  -3350708.35545  23013752.6514   23013759.7994
       216.0004        156.0004
  20690389.3784   -3488857.41049  -2696155.37547  20690389.8214   20690393.5404
       242.0004        210.0004
 07  2 17 16 44 55.0000000  0  8G30G 2G 5G 4G24G 9G10G12
  22439728.9464   -5259228.78249  -4080652.14646  22439729.4494   22439734.6784
       225.0004        172.0004
  20157780.0964   -1444544.56649  -1123438.77648  20157780.0994   20157782.6934
       245.0004        218.0004
  20677192.5094   -3677833.92249  -2859672.48647  20677192.2984   20677197.6694
       241.0004        201.0004
  22321577.8824    2023167.80849   1568837.76346  22321578.3034   22321584.0814
       226.0004        175.0004
  22604423.2844   -5320301.55349  -4124009.84046  22604423.0444   22604430.6384
       222.0004        169.0004
  23025608.5544    2248369.75649   1537856.66546  23025609.6824   23025614.9474
       219.0004        166.0004
  23010637.2114   -4345854.31649  -3363466.17845  23010637.3574   23010644.0304
       217.0004        156.0004
  20689054.7634   -3495870.81149  -2701620.36147  20689055.2354   20689058.8404
       242.0004        211.0004
 07  2 17 16 45  0.0000000  0  8G30G 2G 5G 4G24G 9G10G12
  22436887.6494   -5274159.98049  -4092286.84046  22436887.2964   22436893.0274
       225.0004        172.0004
  20158109.4434   -1442813.71549  -1122090.06448  20158109.2714   20158112.1504
       243.0004        218.0004
  20675739.7344   -3685468.24549  -2865621.31047  20675739.8334   20675744.9064
       239.0004        201.0004
  22324432.8764    2038170.94249   1580528.51346  22324433.5264   22324438.6394
       225.0004        175.0004
  22601593.4104   -5335172.57849  -4135597.64546  22601593.3334   22601600.4664
       221.0004        169.0004
  23028602.4194    2264102.54949   1550115.97846  23028602.2704   23028609.2784
       219.0004        166.0004
  23007522.3584   -4362223.18749  -3376221.13745  23007521.9444   23007528.7584
       216.0004        156.0004
  20687722.1884   -3502873.56649  -2707077.05747  20687722.5084   20687726.3364
       241.0004        211.0004
 07  2 17 16 45  5.0000000  0  8G30G 2G 5G 4G24G 9G10G12
  22434047.5724   -5289084.50449  -4103916.33746  22434047.8424   22434053.0584
       224.0004        172.0004
  20158441.4314   -1441069.24049  -1120730.73448  20158441.3814   20158443.9774
       243.0004        218.0004
  20674289.3894   -3693089.92549  -2871560.28247  20674289.0184   20674294.2454
       239.0004        201.0004
  22327289.0654    2053180.19349   1592224.02646  22327290.2194   22327294.6864
       225.0004        174.0004
  22598765.2134   -5350034.85749  -4147178.64146  22598765.1504   22598772.3284
       222.0004        169.0004
  23031597.2614    2279840.59349   1562379.38046  23031597.6474   23031603.9724
       220.0004        166.0004
  23004408.3154   -4378587.55149  -3388972.59045  23004408.5394   23004414.9304
       216.0004        156.0004
  20686391.7964   -3509864.90449  -2712524.85247  20686392.2694   20686395.9414
       241.0004        210.0004
 07  2 17 16 45 10.0000000  0  8G30G 2G 5G 4G24G 9G10G12
  22431208.8464   -5304002.07649  -4115540.42946  22431208.8074   22431214.1404
       223.0004        172.0004
  20158776.0454   -1439310.86549  -1119360.57448  20158776.0704   20158778.7794
       243.0004        218.0004
  20672841.4914   -3700698.67749  -2877489.18647  20672841.2604   20672846.5564
       239.0004        201.0004
  22330146.4434    2068195.88849   1603924.55846  22330146.3714   22330152.0444
       225.0004        174.0004
  22595938.7344   -5364888.13549  -4158752.63046  22595938.9774   22595946.1314
       222.0004        169.0004
  23034593.1404    2295584.10549   1574647.04446  23034593.0534   23034599.8584
       221.0004        166.0004
  23001295.1994   -4394947.11049  -3401720.30045  23001294.4754   23001302.2634
       215.0004        156.0004
  20685063.6114   -3516844.47049  -2717963.48247  20685064.0684   20685067.9104
       241.0004        210.0004
 07  2 17 16 45 15.0000000  0  8G30G 2G 5G 4G24G 9G10G12
  22428371.3804   -5318913.03149  -4127159.34346  22428371.8414   22428376.7554
       224.0004        172.0004
  20159113.2424   -1437538.90949  -1117979.82748  20159113.2764   20159115.7814
       244.0004        218.0004
  20671395.9734   -3708294.87749  -2883408.29847  20671395.5414   20671401.1194
       240.0004        201.0004
  22333005.0024    2083217.63549   1615629.81146  22333005.4624   22333010.1974
       226.0004        174.0004
  22593113.9144   -5379732.73049  -4170319.84346  22593113.8834   22593120.6734
       221.0004        169.0004
  23037590.0204    2311332.75749   1586918.70246  23037590.3184   23037596.9904
       220.0004        166.0004
  22998182.9474   -4411302.21349  -3414464.54145  22998182.6894   22998189.1584
       217.0004        157.0004
  20683737.6204   -3523812.66949  -2723393.24347  20683738.0264   20683741.7274
       241.0004        211.0004
 07  2 17 16 45 20.0000000  0  8G30G 2G 5G 4G24G 9G10G12
  22425535.1844   -5333817.28349  -4138773.04346  22425535.1454   22425540.5314
       224.0004        172.0004
  20159453.0234   -1435753.36649  -1116588.49648  20159453.1214   20159455.5764
       244.0004        218.0004
  20669952.8874   -3715878.40549  -2889317.54247  20669952.2504   20669957.8184
       239.0004        201.0004
  22335864.7174    2098245.48749   1627339.82346  22335865.5124   22335870.7514
       225.0004        174.0004
  22590290.7474   -5394568.59949  -4181880.25746  22590290.8874   22590298.1694
       222.0004        169.0004
  23040587.8954    2327086.58849   1599194.41746  23040589.0224   23040594.5054
       220.0004        166.0004
  22995071.5134   -4427652.80649  -3427205.26145  22995070.9944   22995078.7064
       216.0004        157.0004
  20682413.7974   -3530769.42449  -2728814.09547  20682414.2934   20682417.9694
       241.0004        211.0004
 07  2 17 16 45 25.0000000  0  8G30G 2G 5G 4G24G 9G10G12
  22422700.0304   -5348716.06549  -4150382.47946  22422701.1474   22422705.2104
       225.0004        172.0004
  20159795.1344   -1433955.46149  -1115187.53248  20159795.2444   20159797.7194
       244.0004        218.0004
  20668511.9494   -3723450.51449  -2895217.88647  20668511.8074   20668517.0464
       239.0004        201.0004
  22338725.3374    2113278.14949   1639053.58146  22338725.5324   22338731.3024
       225.0004        174.0004
  22587469.0134   -5409396.93449  -4193434.79646  22587468.9114   22587476.6364
       222.0004        169.0004
  23043586.4904    2342844.30849   1611473.15046  23043587.2474   23043593.6724
       220.0004        166.0004
  22991960.7244   -4444000.09549  -3439943.40745  22991960.0174   22991967.8844
       216.0004        157.0004
  20681091.9314   -3537715.95049  -2734226.97347  20681092.1784   20681096.1794
       241.0004        211.0004
 07  2 17 16 45 30.0000000  0  8G30G 2G 5G 4G24G 9G10G12
  22419866.2314   -5363607.79649  -4161986.43146  22419866.4294   22419871.4164
       225.0004        172.0004
  20160139.9344   -1432143.62749  -1113775.71248  20160139.9464   20160142.4584
       244.0004        218.0004
  20667073.5014   -3731009.65149  -2901108.12247  20667073.1634   20667078.4984
       239.0004        201.0004
  22341587.1814    2128317.20749   1650772.32246  22341587.4114   22341593.2394
       226.0004        174.0004
  22584649.0204   -5424216.16449  -4204982.25346  22584648.7634   22584656.5694
       220.0004        169.0004
  23046586.1494    2358607.50749   1623756.15446  23046587.0004   23046593.3774
       219.0004        166.0004
  22988850.8564   -4460342.46649  -3452677.72045  22988849.8804   22988857.1364
       217.0004        157.0004
  20679772.3064   -3544650.65049  -2739630.63647  20679772.7914   20679776.5354
       241.0004        211.0004
 07  2 17 16 45 35.0000000  0  8G30G 2G 5G 4G24G 9G10G12
  22417033.7504   -5378492.66549  -4173585.02346  22417033.4814   22417038.6564
       224.0004        172.0004
  20160487.3134   -1430318.05949  -1112353.19548  20160487.3754   20160489.9214
       244.0004        218.0004
  20665637.4884   -3738555.95049  -2906988.36247  20665637.3974   20665642.7304
       239.0004        201.0004
  22344450.2024    2143362.46749   1662495.89746  22344450.9984   22344456.0734
       227.0004        174.0004
  22581830.7124   -5439026.50349  -4216522.77346  22581831.0444   22581837.6234
       221.0004        169.0004
  23049586.7694    2374375.91349   1636043.21646  23049587.5034   23049593.4864
       220.0004        166.0004
  22985741.8934   -4476680.13949  -3465408.37045  22985741.5424   22985748.1714
       216.0004        157.0004
  20678454.8724   -3551573.79949  -2745025.29847  20678455.3234   20678459.0714
       241.0004        210.0004
 07  2 17 16 45 40.0000000  0  8G30G 2G 5G 4G24G 9G10G12
  22414202.5134   -5393370.90149  -4185178.45446  22414202.5704   22414207.5024
       226.0004        172.0004
  20160837.3024   -1428478.93649  -1110920.11048  20160837.2034   20160839.8324
       243.0004        218.0004
  20664203.8534   -3746089.63649  -2912858.76247  20664203.5204   20664209.0934
       239.0004        201.0004
  22347314.3764    2158413.69749   1674224.11446  22347314.5264   22347320.5614
       225.0004        174.0004
  22579014.0704   -5453828.13049  -4228056.50446  22579014.1044   22579022.0354
       222.0004        169.0004
  23052588.3634    2390149.33149   1648334.17746  23052589.3544   23052595.0724
       220.0004        166.0004
  22982633.8124   -4493013.29449  -3478135.51145  22982634.4334   22982640.5464
       218.0004        157.0004
  20677139.6284   -3558485.50249  -2750411.04147  20677140.0144   20677143.6844
       241.0004        210.0004
 07  2 17 16 45 45.0000000  0  8G30G 2G 5G 4G24G 9G10G12
  22411372.4424   -5408243.07349  -4196767.15946  22411372.3504   22411377.4984
       225.0004        172.0004
  20161189.7414   -1426626.97249  -1109477.02348  20161189.7294   20161192.2774
       244.0004        218.0004
  20662772.5414   -3753611.37149  -2918719.85747  20662772.3704   20662777.4524
       239.0004        201.0004
  22350179.5724    2173470.28949   1685956.52746  22350180.5424   22350185.0864
       226.0004        174.0004
  22576198.9374   -5468621.66449  -4239583.93546  22576199.0534   22576205.8094
       221.0004        169.0004
  23055590.7814    2405927.11049   1660628.53846  23055591.6264   23055597.5334
       221.0004        166.0004
  22979526.4754   -4509342.52549  -3490859.58545  22979525.1364   22979533.3754
       217.0004        157.0004
  20675826.4414   -3565386.40349  -2755788.36847  20675826.9534   20675830.6934
       241.0004        210.0004
 07  2 17 16 45 50.0000000  0  8G30G 2G 5G 4G24G 9G10G12
  22408543.6894   -5423108.27749  -4208350.44046  22408544.0184   22408548.6534
       225.0004        172.0004
  20161544.7594   -1424761.24249  -1108023.20948  20161544.9234   20161547.2634
       243.0004        218.0004
  20661343.6464   -3761120.15649  -2924570.86047  20661343.3204   20661348.8234
       239.0004        201.0004
  22353045.9564    2188533.13549   1697693.80846  22353046.2584   22353052.0454
       226.0004        174.0004
  22573385.5294   -5483406.19949  -4251104.34646  22573385.8004   22573392.6974
       221.0004        169.0004
  23058594.1914    2421710.14049   1672927.00146  23058594.4074   23058601.2104
       221.0004        166.0004
  22976420.0814   -4525666.91249  -3503579.87845  22976419.2264   22976427.1534
       217.0004        157.0004
  20674515.4654   -3572275.58849  -2761156.56647  20674515.9904   20674519.7394
       241.0004        210.0004
 07  2 17 16 45 55.0000000  0  8G30G 2G 5G 4G24G 9G10G12
  22405716.1504   -5437967.09749  -4219928.73346  22405716.6754   22405721.6394
       224.0004        172.0004
  20161902.3144   -1422882.37149  -1106559.15348  20161902.1864   20161904.7784
       243.0004        218.0004
  20659917.1274   -3768616.67049  -2930412.29747  20659916.8474   20659922.0624
       239.0004        201.0004
  22355913.3704    2203601.53149   1709435.40846  22355913.2034   22355919.7754
       226.0004        174.0004
  22570573.7134   -5498182.35949  -4262618.23746  22570573.5674   22570580.7794
       222.0004        170.0004
  23061598.4894    2437497.83749   1685229.08446  23061598.6274   23061605.7134
       220.0004        166.0004
  22973314.4514   -4541987.07649  -3516296.89045  22973314.0664   22973320.5364
       216.0004        157.0004
  20673206.6014   -3579153.66749  -2766516.10547  20673206.8874   20673210.6884
       241.0004        211.0004
 07  2 17 16 46  0.0000000  0  8G30G 2G 5G 4G24G 9G10G12
  22402889.8934   -5452819.31949  -4231501.89546  22402890.6224   22402894.8384
       224.0004        172.0004
  20162262.3934   -1420990.12749  -1105084.67948  20162262.3864   20162264.9014
       244.0004        218.0004
  20658492.9544   -3776100.64249  -2936243.96647  20658492.3534   20658498.0064
       239.0004        201.0004
  22358781.9164    2218675.75549   1721181.55446  22358782.3074   22358786.9974
       225.0004        174.0004
  22567763.5604   -5512949.88049  -4274125.39346  22567763.3734   22567770.2864
       221.0004        170.0004
  23064603.7284    2453290.42549   1697534.99146  23064604.1974   23064610.3374
       220.0004        166.0004
  22970209.6814   -4558302.78349  -3529010.43345  22970208.8454   22970215.9944
       216.0004        157.0004
  20671899.9104   -3586020.43049  -2771866.83247  20671900.2114   20671904.0084
       242.0004        211.0004
 07  2 17 16 46  5.0000000  0  8G30G 2G 5G 4G24G 9G10G12
  22400064.9004   -5467664.61849  -4243069.65446  22400065.2584   22400070.3814
       224.0004        172.0004
  20162625.0984   -1419084.20449  -1103599.54648  20162625.0154   20162627.6854
       243.0004        218.0004
  20657071.2624   -3783571.76949  -2942065.62447  20657070.8274   20657076.4234
       239.0004        201.0004
  22361651.6174    2233756.14949   1732932.50846  22361652.4604   22361656.8934
       226.0004        174.0004
  22564955.1044   -5527708.46749  -4285625.59446  22564954.6174   22564961.9954
       221.0004        170.0004
  23067609.9674    2469088.15249   1709844.89746  23067610.2164   23067616.1024
       219.0004        166.0004
  22967105.8074   -4574613.68949  -3541720.23045  22967104.7944   22967112.7974
       216.0004        157.0004
  20670595.4344   -3592875.52949  -2777208.46847  20670595.8444   20670599.6724
       241.0004        211.0004
 07  2 17 16 46 10.0000000  0  8G30G 2G 5G 4G24G 9G10G12
  22397241.1454   -5482503.46449  -4254632.39346  22397241.1834   22397246.3014
       224.0004        172.0004
  20162990.2894   -1417165.07849  -1102104.12348  20162990.2524   20162992.8224
       243.0004        218.0004
  20655651.9114   -3791030.47749  -2947877.60447  20655651.4904   20655656.9834
       239.0004        201.0004
  22364522.3944    2248842.09349   1744687.77946  22364523.0934   22364527.6774
       225.0004        174.0004
  22562148.2454   -5542458.59649  -4297119.19746  22562148.2604   22562155.2064
       222.0004        170.0004
  23070617.0724    2484890.53849   1722158.42946  23070617.6444   23070623.2444
       220.0004        166.0004
  22964002.7854   -4590920.26049  -3554426.63745  22964002.3024   22964008.8874
       216.0004        157.0004
  20669293.0924   -3599719.44349  -2782541.39147  20669293.6064   20669297.2694
       241.0004        211.0004
 07  2 17 16 46 15.0000000  0  8G30G 2G 5G 4G24G 9G10G12
  22394418.7054   -5497335.45249  -4266189.79446  22394419.1764   22394424.5174
       225.0004        172.0004
  20163358.0754   -1415232.37449  -1100598.12448  20163358.0684   20163360.5194
       243.0004        218.0004
  20654234.9864   -3798476.44549  -2953679.66147  20654234.8514   20654240.0034
       239.0004        201.0004
  22367394.2864    2263934.10649   1756447.78246  22367394.5354   22367400.2134
       225.0004        174.0004
  22559343.0714   -5557199.83249  -4308605.86946  22559342.7124   22559350.4204
       221.0004        170.0004
  23073625.1234    2500697.92449   1734475.86146  23073625.4914   23073631.6724
       219.0004        166.0004
  22960900.6374   -4607222.11149  -3567129.38045  22960900.7094   22960907.7524
       216.0004        158.0004
  20667992.9174   -3606551.77349  -2787865.28847  20667993.3464   20667997.1414
       241.0004        211.0004
 07  2 17 16 46 20.0000000  0  8G30G 2G 5G 4G24G 9G10G12
  22391597.4264   -5512161.18949  -4277742.30646  22391598.0694   22391603.1084
       225.0004        173.0004
  20163728.3224   -1413286.66349  -1099081.98448  20163728.3114   20163730.8434
       243.0004        218.0004
  20652820.3564   -3805910.20349  -2959472.19847  20652820.0704   20652825.5784
       239.0004        201.0004
  22370267.2344    2279031.49249   1768211.97446  22370268.2864   22370272.5144
       226.0004        174.0004
  22556539.4794   -5571932.79749  -4320086.09946  22556539.0834   22556547.3004
       222.0004        170.0004
  23076634.0344    2516509.72949   1746796.74546  23076634.5384   23076640.2514
       219.0004        165.0004
  22957799.2834   -4623519.81149  -3579828.88945  22957798.5474   22957805.7594
       216.0004        158.0004
  20666694.8614   -3613373.10249  -2793180.60547  20666695.2754   20666699.0394
       241.0004        211.0004
 07  2 17 16 46 25.0000000  0  8G30G 2G 5G 4G24G 9G10G12
  22388777.4914   -5526980.02149  -4289289.44946  22388777.7424   22388782.8144
       225.0004        173.0004
  20164101.1434   -1411327.35249  -1097555.25048  20164101.1934   20164103.7204
       243.0004        218.0004
  20651408.1984   -3813331.12549  -2965254.73247  20651407.7784   20651413.3734
       239.0004        201.0004
  22373141.2904    2294134.84349   1779980.80946  22373141.1374   22373147.4264
       226.0004        174.0004
  22553737.5734   -5586656.85149  -4331559.39246  22553737.4024   22553744.7364
       221.0004        170.0004
  23079643.8794    2532326.51749   1759121.50246  23079644.6944   23079650.9554
       219.0004        165.0004
  22954698.8174   -4639812.72049  -3592524.65945  22954698.4834   22954705.0404
       216.0004        158.0004
  20665399.0244   -3620182.81149  -2798486.87447  20665399.6024   20665403.3044
       241.0004        211.0004
 07  2 17 16 46 30.0000000  0  8G30G 2G 5G 4G24G 9G10G12
  22385958.8034   -5541792.17149  -4300831.38246  22385958.9734   22385964.3204
       225.0004        173.0004
  20164476.5474   -1409354.68749  -1096018.10948  20164476.4434   20164479.0364
       243.0004        218.0004
  20649998.4554   -3820739.43749  -2971027.44447  20649997.9444   20650003.6174
       239.0004        201.0004
  22376016.4644    2309243.94949   1791754.13646  22376017.1064   22376022.0234
       226.0004        174.0004
  22550937.3174   -5601372.23649  -4343025.92146  22550937.3114   22550944.0744
       222.0004        170.0004
  23082654.6494    2548148.09749   1771449.99146  23082654.7314   23082661.7594
       218.0004        165.0004
  22951599.2404   -4656101.04049  -3605216.85545  22951598.0894   22951605.7314
       217.0004        158.0004
  20664105.3634   -3626981.13849  -2803784.27347  20664105.7574   20664109.7384
       241.0004        211.0004
 07  2 17 16 46 35.0000000  0  8G30G 2G 5G 4G24G 9G10G12
  22383141.4534   -5556597.50549  -4312368.00346  22383141.6434   22383147.1974
       225.0004        173.0004
  20164854.4894   -1407368.59049  -1094470.50348  20164854.4824   20164857.1174
       244.0004        218.0004
  20648591.0944   -3828135.08749  -2976790.28947  20648590.9284   20648596.1494
       240.0004        201.0004
  22378892.7144    2324358.89949   1803532.01546  22378893.4344   22378897.9274
       225.0004        174.0004
  22548138.7324   -5616078.83649  -4354485.61446  22548139.3184   22548145.5684
       221.0004        170.0004
  23085666.3184    2563974.50249   1783782.25046  23085667.2254   23085673.2634
       219.0004        165.0004
  22948500.5704   -4672384.69149  -3617905.41145  22948500.3344   22948506.7064
       218.0004        158.0004
  20662813.8614   -3633767.95749  -2809072.70347  20662814.4014   20662818.0444
       242.0004        211.0004
 07  2 17 16 46 40.0000000  0  8G30G 2G 5G 4G24G 9G10G12
  22380325.2864   -5571396.48449  -4323899.67746  22380325.5734   22380330.5224
       226.0004        173.0004
  20165234.9064   -1405369.51549  -1092912.78348  20165234.8584   20165237.4944
       244.0004        218.0004
  20647186.1034   -3835518.43649  -2982543.54847  20647185.8014   20647191.2554
       239.0004        201.0004
  22381770.0304    2339479.21049   1815314.07246  22381769.9134   22381775.6064
       226.0004        173.0004
  22545341.7394   -5630777.13149  -4365938.82346  22545341.6854   22545348.8794
       221.0004        170.0004
  23088678.8264    2579805.32749   1796117.94046  23088678.3114   23088685.4444
       219.0004        165.0004
  22945402.7194   -4688664.10549  -3630590.66445  22945402.2794   22945409.6254
       217.0004        158.0004
  20661524.5014   -3640543.76549  -2814352.55647  20661525.1744   20661528.6764
       242.0004        211.0004
 07  2 17 16 46 45.0000000  0  8G30G 2G 5G 4G24G 9G10G12
  22377510.3844   -5586188.81049  -4335426.15246  22377510.8524   22377515.8874
       225.0004        173.0004
  20165617.8464   -1403357.13349  -1091344.69248  20165617.8134   20165620.5054
       244.0004        218.0004
  20645783.5014   -3842889.19049  -2988286.99047  20645783.1624   20645788.6574
       239.0004        201.0004
  22384648.4024    2354605.21149   1827100.57046  22384649.2404   22384654.6824
       226.0004        173.0004
  22542546.3694   -5645466.76449  -4377385.29546  22542546.4804   22542553.2164
       222.0004        170.0004
  23091692.2144    2595640.85549   1808457.30746  23091692.8744   23091699.0414
       218.0004        165.0004
  22942305.7254   -4704938.90849  -3643272.32745  22942305.5724   22942312.2914
       218.0004        158.0004
  20660237.2644   -3647308.22549  -2819623.56247  20660237.6554   20660241.3764
       242.0004        211.0004
 07  2 17 16 46 50.0000000  0  8G30G 2G 5G 4G24G 9G10G12
  22374696.7804   -5600974.34649  -4346947.36446  22374697.2394   22374702.2834
       225.0004        173.0004
  20166003.3394   -1401331.33049  -1089766.14948  20166003.4664   20166005.9914
       243.0004        218.0004
  20644383.3054   -3850247.25149  -2994020.54847  20644382.9214   20644388.4004
       239.0004        201.0004
  22387527.8664    2369736.99349   1838891.54846  22387528.6564   22387533.4764
       226.0004        173.0004
  22539752.7094   -5660147.63949  -4388824.93946  22539753.0444   22539759.9614
       222.0004        170.0004
  23094706.5574    2611481.19749   1820800.41546  23094706.4174   23094712.8584
       218.0004        165.0004
  22939209.6584   -4721209.01549  -3655950.33245  22939208.8364   22939215.5474
       217.0004        158.0004
  20658952.2384   -3654061.11949  -2824885.56047  20658952.7754   20658956.3874
       242.0004        211.0004
 07  2 17 16 46 55.0000000  0  9G30G 2G 6G 5G 4G24G 9G10G12
  22371884.4634   -5615753.22649  -4358463.36646  22371885.4264   22371889.9814
       226.0004        173.0004
  20166391.3714   -1399292.28049  -1088177.27548  20166391.1584   20166393.9534
       243.0004        218.0004
                  -1453196.65959  -1116356.07443
       204.0004         74.0004
  20642985.4794   -3857592.73349  -2999744.30047  20642985.3494   20642990.4784
       239.0004        201.0004
  22390408.4314    2384874.41649   1850686.94446  22390408.9724   22390414.1244
       227.0004        173.0004
  22536960.6804   -5674819.88849  -4400257.85446  22536960.6574   22536967.9054
       221.0004        170.0004
  23097721.7584    2627326.11949   1833147.09846  23097722.0904   23097728.3564
       219.0004        165.0004
  22936114.4244   -4737474.56749  -3668624.78045  22936113.7794   22936120.0484
       217.0004        158.0004
  20657669.3874   -3660802.62249  -2830138.67947  20657669.7234   20657673.3814
       242.0004        211.0004
 07  2 17 16 47  0.0000000  0  8G30G 2G 5G 4G24G 9G10G12
  22369073.4914   -5630525.03349  -4369973.87046  22369074.1824   22369078.8434
       225.0004        174.0004
  20166781.9694   -1397239.58849  -1086577.78148  20166782.0274   20166784.6604
       243.0004        218.0004
  20641590.1684   -3864925.25349  -3005457.95647  20641589.9054   20641595.3974
       239.0004        201.0004
  22393290.1284    2400017.87849   1862487.03946  22393290.8174   22393296.0904
       226.0004        173.0004
  22534170.3624   -5689483.09749  -4411683.73146  22534169.8894   22534177.4074
       221.0004        170.0004
  23100737.8874    2643176.00749   1845497.65546  23100738.3624   23100744.2364
       219.0004        165.0004
  22933020.1434   -4753735.15649  -3681295.36545  22933020.1614   22933026.6884
       218.0004        159.0004
  20656388.7564   -3667532.33049  -2835382.61147  20656389.3094   20656392.9664
       242.0004        211.0004
 07  2 17 16 47  5.0000000  0  8G30G 2G 5G 4G24G 9G10G12
  22366263.8514   -5645289.82249  -4381478.89746  22366265.0974   22366269.4304
       225.0004        174.0004
  20167175.1794   -1395173.29549  -1084967.68248  20167175.1454   20167177.7564
       243.0004        218.0004
  20640197.2834   -3872244.83549  -3011161.52447  20640196.9494   20640202.3294
       239.0004        202.0004
  22396172.9624    2415167.24449   1874291.73846  22396173.5024   22396177.9984
       225.0004        173.0004
  22531381.7434   -5704137.34649  -4423102.62746  22531381.8194   22531388.7484
       221.0004        170.0004
  23103754.9724    2659030.83549   1857852.06046  23103754.9034   23103761.6924
       219.0004        165.0004
  22929926.7884   -4769990.79549  -3693962.10445  22929926.0334   22929933.0634
       216.0004        159.0004
  20655110.3734   -3674250.28749  -2840617.38347  20655110.9044   20655114.5344
       242.0004        211.0004
 07  2 17 16 47 10.0000000  0  8G30G 2G 5G 4G24G 9G10G12
  22363455.4654   -5660048.07249  -4392978.83046  22363455.9224   22363460.7994
       225.0004        174.0004
  20167570.8674   -1393093.92949  -1083347.39948  20167570.9314   20167573.4294
       243.0004        218.0004
  20638806.7944   -3879552.01449  -3016855.43247  20638806.6024   20638811.9054
       239.0004        202.0004
  22399056.8504    2430322.00849   1886100.63946  22399057.1454   22399062.4484
       227.0004        173.0004
  22528594.7724   -5718783.06949  -4434514.87646  22528593.6894   22528601.9604
       222.0004        170.0004
  23106772.8914    2674890.05849   1870209.88746  23106773.7234   23106779.2844
       220.0004        164.0004
  22926834.2874   -4786241.95649  -3706625.34145  22926834.0034   22926841.2114
       217.0004        159.0004
  20653834.1504   -3680957.01049  -2845843.40147  20653834.5984   20653838.0294
       241.0004        211.0004
 07  2 17 16 47 15.0000000  0  8G30G 2G 5G 4G24G 9G10G12
  22360648.3474   -5674799.51449  -4404473.46146  22360649.3254   22360653.2484
       226.0004        174.0004
  20167969.0854   -1391001.27649  -1081716.76448  20167969.0864   20167971.7994
       243.0004        218.0004
  20637418.6984   -3886846.47249  -3022539.42647  20637418.6524   20637423.6974
       239.0004        202.0004
  22401941.8124    2445482.47549   1897913.98446  22401941.9884   22401947.3784
       226.0004        173.0004
  22525809.4294   -5733420.07949  -4445920.34346  22525809.5474   22525816.1314
       221.0004        170.0004
  23109791.7194    2690753.92649   1882571.32346  23109792.1544   23109798.3094
       219.0004        164.0004
  22923742.7014   -4802488.41749  -3719284.91745  22923742.0644   22923749.1704
       218.0004        159.0004
  20652560.1064   -3687652.22049  -2851060.45047  20652560.5404   20652564.1654
       242.0004        211.0004
 07  2 17 16 47 20.0000000  0  8G30G 2G 5G 4G24G 9G10G12
  22357842.5484   -5689544.11049  -4415962.75046  22357842.7284   22357847.5104
       226.0004        174.0004
  20168369.8404   -1388895.27349  -1080075.72048  20168369.9384   20168372.5744
       244.0004        218.0004
  20636033.0494   -3894128.22149  -3028213.51847  20636032.8324   20636037.9734
       240.0004        202.0004
  22404827.8684    2460648.64249   1909731.77246  22404828.1204   22404832.3384
       226.0004        173.0004
  22523025.7654   -5748048.25449  -4457318.91446  22523025.5844   22523033.1734
       222.0004        170.0004
  23112811.4034    2706622.47649   1894936.42246  23112811.8734   23112818.5074
       219.0004        164.0004
  22920651.9844   -4818730.07949  -3731940.75145  22920651.3234   22920658.6584
       217.0004        159.0004
  20651288.2484   -3694335.86749  -2856268.48647  20651288.6104   20651292.4344
       242.0004        211.0004
 07  2 17 16 47 25.0000000  0  8G30G 2G 5G 4G24G 9G10G12
  22355038.0284   -5704281.99849  -4427446.82646  22355038.1094   22355043.7454
       226.0004        174.0004
  20168773.1074   -1386776.18749  -1078424.48748  20168773.1594   20168775.6974
       243.0004        218.0004
  20634649.7814   -3901397.36749  -3033877.78847  20634649.7394   20634654.9734
       239.0004        202.0004
  22407714.9424    2475820.34249   1921553.87346  22407715.5114   22407720.2524
       226.0004        173.0004
  22520243.7354   -5762667.81449  -4468710.78346  22520243.8404   22520251.0374
       222.0004        170.0004
  23115831.9834    2722495.53249   1907305.02346  23115832.0424   23115838.6914
       218.0004        164.0004
  22917562.1694   -4834967.12849  -3744592.99245  22917561.3924   22917568.7094
       217.0004        159.0004
  20650018.5764   -3701008.14349  -2861467.66647  20650019.1094   20650022.7244
       242.0004        211.0004
 07  2 17 16 47 30.0000000  0  8G30G 2G 5G 4G24G 9G10G12
  22352234.8114   -5719013.07649  -4438925.58046  22352234.8404   22352239.7864
       225.0004        174.0004
  20169178.8934   -1384643.83049  -1076762.91048  20169178.8984   20169181.5854
       244.0004        218.0004
  20633268.9174   -3908653.85449  -3039532.19447  20633268.8054   20633273.9314
       239.0004        202.0004
  22410603.0684    2490997.54849   1933380.26346  22410602.9924   22410608.6524
       226.0004        173.0004
  22517463.3684   -5777278.67849  -4480095.86846  22517462.9054   22517470.4844
       221.0004        170.0004
  23118853.3854    2738373.11649   1919677.15446  23118853.4114   23118859.7924
       218.0004        164.0004
  22914473.2444   -4851199.47449  -3757241.57645  22914472.9604   22914479.6264
       216.0004        159.0004
  20648751.0694   -3707668.94949  -2866657.90347  20648751.6174   20648755.0254
       242.0004        211.0004
 07  2 17 16 47 35.0000000  0  8G30G 2G 5G 4G24G 9G10G12
  22349432.8764   -5733737.37449  -4450399.05746  22349433.3694   22349438.5704
       226.0004        174.0004
  20169587.1784   -1382498.24149  -1075091.02448  20169587.3054   20169589.8864
       243.0004        218.0004
  20631890.4574   -3915897.70449  -3045176.75147  20631890.2404   20631895.6274
       240.0004        202.0004
  22413492.2514    2506180.28949   1945210.96546  22413492.9624   22413498.3124
       226.0004        173.0004
  22514684.6904   -5791880.84349  -4491474.17846  22514684.6084   22514691.6064
       222.0004        170.0004
  23121875.6634    2754255.19049   1932052.78846  23121875.9484   23121882.5444
       218.0004        164.0004
  22911385.2234   -4867427.11349  -3769886.48145  22911385.0684   22911391.7784
       217.0004        159.0004
  20647485.7334   -3714318.27449  -2871839.19647  20647486.2834   20647489.7614
       241.0004        211.0004
 07  2 17 16 47 40.0000000  0  8G30G 2G 5G 4G24G 9G10G12
  22346632.2544   -5748454.69149  -4461867.09846  22346633.6074   22346637.7654
       226.0004        174.0004
  20169998.0344   -1380339.22249  -1073408.67348  20169998.0514   20170000.6634
       244.0004        218.0004
  20630514.4374   -3923128.71249  -3050811.30647  20630514.2824   20630519.6524
       239.0004        202.0004
  22416382.5334    2521368.82449   1957046.18446  22416382.9314   22416388.9354
       225.0004        173.0004
  22511907.6714   -5806474.14249  -4502845.58446  22511907.0914   22511914.7694
       222.0004        170.0004
  23124898.8074    2770141.94449   1944432.06346  23124899.2054   23124905.3544
       218.0004        164.0004
  22908298.1574   -4883649.82849  -3782527.55745  22908297.6264   22908304.6054
       217.0004        158.0004
  20646222.6414   -3720955.97149  -2877011.42747  20646223.2574   20646226.7424
       241.0004        211.0004
 07  2 17 16 47 45.0000000  0  8G30G 2G 5G 4G24G 9G10G12
  22343832.9104   -5763165.35049  -4473329.95146  22343833.2764   22343838.5824
       226.0004        174.0004
  20170411.3904   -1378167.09249  -1071716.10448  20170411.5554   20170414.0494
       243.0004        218.0004
  20629140.8304   -3930347.14249  -3056436.05347  20629140.7234   20629145.9234
       239.0004        202.0004
  22419273.8134    2536562.68649   1968885.55046  22419274.3994   22419279.4354
       227.0004        173.0004
  22509132.3004   -5821058.84049  -4514210.28446  22509131.8224   22509139.6504
       222.0004        170.0004
  23127922.7574    2786033.09449   1956814.76746  23127923.1824   23127929.3884
       219.0004        164.0004
  22905211.9484   -4899867.91849  -3795165.01745  22905210.6034   22905219.3494
       217.0004        158.0004
  20644961.6834   -3727582.28749  -2882174.79047  20644962.2404   20644965.6964
       241.0004        211.0004
 07  2 17 16 47 50.0000000  0  8G30G 2G 5G 4G24G 9G10G12
  22341034.9384   -5777868.78449  -4484787.16646  22341035.5234   22341040.5464
       226.0004        174.0004
  20170827.3264   -1375981.33649  -1070012.92348  20170827.5174   20170829.9644
       243.0004        218.0004
  20627769.7004   -3937552.49749  -3062050.62147  20627769.4424   20627774.8374
       239.0004        202.0004
  22422166.2364    2551762.47149   1980729.52946  22422165.8984   22422171.6014
       226.0004        173.0004
  22506358.6484   -5835634.42449  -4525567.87646  22506359.4024   22506365.8994
       222.0004        170.0004
  23130947.6654    2801929.10149   1969201.25646  23130948.1484   23130954.3224
       219.0004        164.0004
  22902126.7484   -4916080.84949  -3807798.47145  22902126.0684   22902133.6114
       217.0004        158.0004
  20643703.0074   -3734196.72049  -2887328.89747  20643703.3824   20643707.1704
       241.0004        211.0004
 07  2 17 16 47 55.0000000  0  8G30G 2G 5G 4G24G 9G10G12
  22338238.1934   -5792565.90349  -4496239.46346  22338238.4294   22338243.3694
       226.0004        174.0004
  20171245.6954   -1373782.80649  -1068299.77948  20171245.7874   20171248.3474
       243.0004        218.0004
  20626400.9234   -3944745.60649  -3067655.63847  20626400.6204   20626406.0044
       239.0004        202.0004
  22425059.6424    2566967.32049   1992577.46746  22425059.7644   22425065.6524
       226.0004        173.0004
  22503586.5774   -5850201.70649  -4536918.99746  22503586.3814   22503593.6354
       222.0004        171.0004
  23133973.3604    2817829.12249   1981590.87546  23133973.9234   23133980.0764
       219.0004        164.0004
  22899042.3394   -4932289.45549  -3820428.54545  22899041.8034   22899048.7734
       216.0004        158.0004
  20642446.4284   -3740800.09949  -2892474.38347  20642446.9814   20642450.5814
       241.0004        211.0004
 07  2 17 16 48  0.0000000  0  8G30G 2G 5G 4G24G 9G10G12
  22335442.7844   -5807255.79449  -4507686.14146  22335443.5244   22335447.5464
       227.0004        174.0004
  20171666.6384   -1371570.68849  -1066576.05748  20171666.6964   20171669.4044
       243.0004        218.0004
  20625034.6134   -3951925.62649  -3073250.46547  20625034.4364   20625039.7904
       240.0004        202.0004
  22427954.1464    2582178.02849   2004429.95746  22427955.1904   22427959.5534
       226.0004        173.0004
  22500816.2754   -5864759.84449  -4548263.00546  22500816.3894   22500823.7134
       222.0004        171.0004
  23136999.9434    2833733.95149   1993984.23146  23137000.6884   23137006.8154
       219.0004        164.0004
  22895958.9254   -4948492.87549  -3833054.57645  22895958.8284   22895966.0264
       217.0004        158.0004
  20641192.1294   -3747391.53249  -2897610.56847  20641192.4404   20641196.2024
       241.0004        211.0004
 07  2 17 16 48  5.0000000  0  8G30G 2G 5G 4G24G 9G10G12
  22332648.7694   -5821938.52349  -4519127.22246  22332649.8184   22332654.1264
       226.0004        174.0004
  20172090.1744   -1369345.09049  -1064841.82648  20172090.2134   20172092.6584
       244.0004        218.0004
  20623670.7684   -3959092.64449  -3078835.15247  20623670.6204   20623675.6774
       239.0004        202.0004
  22430849.7734    2597394.56649   2016286.99646  22430849.8064   22430854.9574
       225.0004        173.0004
  22498047.6604   -5879308.93849  -4559599.96146  22498047.4464   22498054.4184
       222.0004        171.0004
  23140027.4454    2849643.47049   2006381.26146  23140027.8124   23140033.6934
       219.0004        164.0004
  22892876.4854   -4964691.19649  -3845676.64445  22892875.5524   22892882.9134
       217.0004        158.0004
  20639940.0674   -3753971.18049  -2902737.56847  20639940.3874   20639944.1914
       241.0004        211.0004
 07  2 17 16 48 10.0000000  0  8G30G 2G 5G 4G24G 9G10G12
  22329855.9834   -5836614.80349  -4530563.28246  22329856.5324   22329861.9804
       226.0004        175.0004
  20172516.1224   -1367106.72849  -1063097.64848  20172516.1284   20172518.5434
       244.0004        218.0004
  20622309.2744   -3966247.33049  -3084410.23147  20622308.7534   20622314.2604
       239.0004        202.0004
  22433746.3444    2612616.08749   2028147.91846  22433746.9704   22433752.4604
       227.0004        172.0004
  22495280.6594   -5893849.67249  -4570930.39946  22495280.1824   22495288.2304
       222.0004        171.0004
  23143055.7144    2865557.01249   2018781.39846  23143055.7764   23143062.4634
       220.0004        164.0004
  22889794.8774   -4980885.09049  -3858295.25645  22889794.1354   22889801.4274
       216.0004        158.0004
  20638690.1114   -3760539.72049  -2907855.90947  20638690.3124   20638694.2314
       241.0004        211.0004
 07  2 17 16 48 15.0000000  0  8G30G 2G 5G 4G24G 9G10G12
  22327064.4974   -5851284.03549  -4541993.85446  22327065.2844   22327070.2734
       226.0004        175.0004
  20172944.6364   -1364855.01349  -1061343.06548  20172944.6214   20172947.1564
       244.0004        218.0004
  20620950.2414   -3973389.12949  -3089975.26847  20620949.8534   20620955.2284
       239.0004        202.0004
  22436643.9854    2627843.28549   2040013.26846  22436644.4944   22436649.8914
       226.0004        172.0004
  22492515.3474   -5908381.48749  -4582253.89046  22492515.9454   22492523.0294
       222.0004        171.0004
  23146084.8774    2881475.09649   2031185.10046  23146085.2994   23146091.5024
       219.0004        164.0004
  22886714.2414   -4997073.96749  -3870909.95845  22886713.7084   22886719.5194
       216.0004        158.0004
  20637442.3974   -3767096.51249  -2912965.10047  20637442.7264   20637446.3144
       242.0004        211.0004
 07  2 17 16 48 20.0000000  0  8G30G 2G 5G 4G24G 9G10G12
  22324274.3604   -5865946.33349  -4553419.02046  22324275.6564   22324279.8784
       226.0004        175.0004
  20173375.6184   -1362590.07849  -1059578.18448  20173375.7534   20173378.2474
       244.0004        218.0004
  20619593.6514   -3980518.09149  -3095530.30747  20619593.4424   20619598.6174
       239.0004        202.0004
  22439542.6764    2643075.94749   2051882.86446  22439543.4574   22439548.1044
       225.0004        172.0004
  22489751.7094   -5922904.48649  -4593570.51246  22489751.4094   22489758.9284
       221.0004        171.0004
  23149114.8434    2897397.64049   2043592.26646  23149115.3314   23149121.3174
       219.0004        164.0004
  22883634.5144   -5013257.92549  -3883520.83245  22883633.9104   22883641.2284
       216.0004        159.0004
  20636196.8704   -3773641.68049  -2918065.23047  20636197.1784   20636201.0054
       241.0004        211.0004
 07  2 17 16 48 25.0000000  0  8G30G 2G 5G 4G24G 9G10G12
  22321485.6194   -5880601.31349  -4564838.48946  22321486.0574   22321490.1944
       227.0004        175.0004
  20173809.2064   -1360311.59449  -1057802.74548  20173809.1034   20173811.8564
       243.0004        218.0004
  20618239.5314   -3987633.92949  -3101075.11747  20618239.3404   20618244.6144
       239.0004        202.0004
  22442442.4794    2658314.47049   2063757.02846  22442443.8294   22442448.6164
       225.0004        172.0004
  22486989.8154   -5937418.28649  -4604879.96946  22486989.8114   22486997.2754
       223.0004        171.0004
  23152145.7334    2913324.96549   2056003.15846  23152146.6824   23152151.9124
       219.0004        164.0004
  22880555.8064   -5029436.61349  -3896127.59245  22880555.2214   22880562.5214
       216.0004        159.0004
  20634953.6504   -3780174.90549  -2923156.05947  20634954.0894   20634957.7094
       241.0004        211.0004
 07  2 17 16 48 30.0000000  0  8G30G 2G 5G 4G24G 9G10G12
  22318698.1964   -5895249.31249  -4576252.50346  22318698.8564   22318704.0764
       226.0004        175.0004
  20174245.3064   -1358019.87249  -1056016.98648  20174245.4504   20174247.8874
       244.0004        218.0004
  20616887.8874   -3994736.93149  -3106609.92147  20616887.5164   20616893.0924
       240.0004        202.0004
  22445343.3394    2673558.49249   2075635.48646  22445343.6024   22445349.2054
       226.0004        172.0004
  22484229.6374   -5951923.24249  -4616182.52446  22484229.7424   22484236.9684
       223.0004        171.0004
  23155177.4814    2929256.71949   2068417.49946  23155177.2544   23155184.1664
       219.0004        164.0004
  22877478.0644   -5045610.33649  -3908730.48545  22877477.8824   22877483.8644
       217.0004        159.0004
  20633712.6144   -3786696.51349  -2928237.82947  20633713.1284   20633716.7224
       241.0004        211.0004
 07  2 17 16 48 35.0000000  0  9G30G 2G 6G 5G 4G24G 9G10G12
  22315912.0214   -5909890.83449  -4587661.49046  22315912.4354   22315917.0364
       226.0004        175.0004
  20174683.8344   -1355715.41049  -1054221.30548  20174683.7474   20174686.6014
       243.0004        218.0004
                  -1458995.62449  -1127203.36243
       205.0004         74.0004
  20615538.5774   -4001827.58349  -3112135.10847  20615538.0904   20615543.5374
       239.0004        202.0004
  22448245.1144    2688807.42949   2087517.77346  22448245.1134   22448251.0704
       225.0004        172.0004
  22481471.0334   -5966419.85249  -4627478.58446  22481471.4414   22481479.0054
       223.0004        171.0004
  23158209.9254    2945192.36449   2080834.87746  23158210.4054   23158216.0804
       219.0004        164.0004
  22874401.1444   -5061779.59049  -3921329.89545  22874401.1424   22874407.6974
       217.0004        159.0004
  20632473.7204   -3793207.00449  -2933310.93947  20632473.9364   20632477.8254
       242.0004        211.0004
 07  2 17 16 48 40.0000000  0  8G30G 2G 5G 4G24G 9G10G12
  22313127.2064   -5924525.24649  -4599064.92146  22313127.7834   22313132.5604
       225.0004        175.0004
  20175124.9124   -1353397.61249  -1052415.23148  20175124.8924   20175127.5634
       243.0004        218.0004
  20614191.7304   -4008905.28649  -3117650.20147  20614191.2724   20614196.7114
       240.0004        202.0004
  22451147.9424    2704061.96249   2099404.41446  22451148.4234   22451153.4524
       225.0004        172.0004
  22478714.1304   -5980907.49649  -4638767.65846  22478714.1604   22478721.4964
       222.0004        171.0004
  23161243.2524    2961132.53349   2093255.77346  23161243.5254   23161249.3744
       219.0004        164.0004
  22871325.2084   -5077943.73549  -3933925.32245  22871324.7014   22871331.8534
       217.0004        159.0004
  20631237.0584   -3799705.70649  -2938374.86447  20631237.5314   20631241.3194
       241.0004        211.0004
 07  2 17 16 48 45.0000000  0  8G30G 2G 5G 4G24G 9G10G12
  22310343.6864   -5939152.71449  -4610462.94946  22310344.0604   22310349.2284
       226.0004        175.0004
  20175568.4774   -1351066.63149  -1050598.88648  20175568.4954   20175571.1264
       244.0004        218.0004
  20612847.3334   -4015970.19349  -3123155.32847  20612847.0634   20612852.3604
       240.0004        202.0004
  22454051.8254    2719321.90449   2111295.27646  22454052.8134   22454056.6314
       225.0004        172.0004
  22475958.8954   -5995386.33349  -4650049.87646  22475959.2474   22475965.7704
       222.0004        171.0004
  23164277.4034    2977077.02549   2105680.03746  23164278.3544   23164283.6054
       218.0004        164.0004
  22868250.2294   -5094102.90249  -3946516.87945  22868249.5504   22868257.1014
       217.0004        159.0004
  20630002.6044   -3806192.80849  -2943429.75047  20630002.9864   20630006.8084
       241.0004        211.0004
 07  2 17 16 48 50.0000000  0  8G30G 2G 5G 4G24G 9G10G12
  22307561.4864   -5953773.33149  -4621855.62746  22307561.9864   22307567.3434
       225.0004        175.0004
  20176014.5404   -1348722.58449  -1048772.35648  20176014.5564   20176017.1594
       243.0004        218.0004
  20611505.3444   -4023022.33149  -3128650.49847  20611504.9824   20611510.3514
       239.0004        202.0004
  22456956.7134    2734587.15849   2123190.26946  22456957.2324   22456962.2314
       225.0004        172.0004
  22473205.3364   -6009856.40249  -4661325.24446  22473205.4744   22473212.6634
       222.0004        171.0004
  23167312.3664    2993025.73449   2118107.59746  23167313.4234   23167319.8744
       219.0004        164.0004
  22865176.1634   -5110257.18349  -3959104.61245  22865175.6884   22865182.2084
       218.0004        159.0004
  20628770.3284   -3812668.38349  -2948475.65047  20628770.8394   20628774.5164
       241.0004        211.0004
 07  2 17 16 48 55.0000000  0  8G30G 2G 5G 4G24G 9G10G12
  22304780.6524   -5968386.73849  -4633242.69446  22304781.0214   22304785.2714
       225.0004        175.0004
  20176463.1244   -1346365.18549  -1046935.42248  20176463.2554   20176465.7914
       243.0004        218.0004
  20610165.8494   -4030061.44049  -3134135.51747  20610165.5694   20610170.8184
       239.0004        202.0004
  22459862.6944    2749858.02149   2135089.64346  22459863.6304   22459868.9794
       225.0004        172.0004
  22470453.5134   -6024317.42449  -4672593.57246  22470453.2294   22470460.4264
       222.0004        171.0004
  23170348.1574    3008978.92849   2130538.65246  23170349.0614   23170355.1744
       219.0004        164.0004
  22862103.1134   -5126406.27249  -3971688.31545  22862102.6364   22862109.4434
       218.0004        159.0004
  20627540.3404   -3819132.13349  -2953512.33947  20627540.8814   20627544.2784
       241.0004        211.0004
 07  2 17 16 49  0.0000000  0  8G30G 2G 5G 4G24G 9G10G12
  22302001.1584   -5982993.13649  -4644624.30746  22302001.6164   22302006.6094
       225.0004        175.0004
  20176914.2474   -1343994.65049  -1045088.25248  20176914.2934   20176916.8354
       243.0004        218.0004
  20608828.7934   -4037087.74149  -3139610.55647  20608828.3754   20608833.9124
       240.0004        202.0004
  22462769.6564    2765134.19949   2146993.14946  22462770.1784   22462774.7814
       225.0004        172.0004
  22467703.3184   -6038769.60849  -4683855.01746  22467703.0534   22467710.9184
       223.0004        171.0004
  23173384.7714    3024936.35349   2142972.99346  23173385.4794   23173391.4894
       219.0004        164.0004
  22859031.0004   -5142550.36549  -3984268.11745  22859030.9924   22859037.6654
       217.0004        159.0004
  20626312.5214   -3825584.26549  -2958539.97647  20626313.0214   20626316.6314
       242.0004        211.0004
 07  2 17 16 49  5.0000000  0  8G30G 2G 5G 4G24G 9G10G12
  22299222.9954   -5997592.39549  -4656000.35246  22299223.6794   22299228.0964
       226.0004        175.0004
  20177367.8654   -1341610.85349  -1043230.75048  20177367.9394   20177370.4824
       243.0004        217.0004
  20607494.2074   -4044101.08749  -3145075.50247  20607493.9994   20607499.3884
       240.0004        202.0004
  22465677.6754    2780415.90049   2158900.96446  22465678.6444   22465682.7834
       226.0004        172.0004
  22464954.8674   -6053212.83249  -4695109.46946  22464954.9754   22464962.0054
       223.0004        171.0004
  23176422.2464    3040898.16049   2155410.75846  23176422.0474   23176429.1264
       220.0004        164.0004
  22855959.8724   -5158689.33249  -3996843.92445  22855959.5884   22855966.0984
       217.0004        159.0004
  20625086.9824   -3832024.61249  -2963558.42547  20625087.4394   20625091.1234
       241.0004        211.0004
 07  2 17 16 49 10.0000000  0  8G30G 2G 5G 4G24G 9G10G12
  22296446.1944   -6012184.52849  -4667370.84446  22296446.8814   22296451.8514
       225.0004        175.0004
  20177823.9904   -1339213.80649  -1041362.92548  20177824.0734   20177826.4884
       243.0004        217.0004
  20606162.0584   -4051101.45349  -3150530.33647  20606161.7214   20606167.0954
       239.0004        202.0004
  22468586.7444    2795703.01449   2170812.99746  22468587.3814   22468592.4464
       225.0004        172.0004
  22462208.1074   -6067647.07649  -4706356.93446  22462207.8874   22462215.3774
       223.0004        171.0004
  23179460.5394    3056864.33749   2167851.91846  23179461.2234   23179466.8714
       219.0004        164.0004
  22852889.7094   -5174823.15449  -4009415.72445  22852888.5744   22852896.6224
       217.0004        160.0004
  20623863.6794   -3838453.18149  -2968567.70147  20623864.1664   20623867.7884
       242.0004        211.0004
 07  2 17 16 49 15.0000000  0  8G30G 2G 5G 4G24G 9G10G12
  22293670.7574   -6026769.56149  -4678735.79946  22293671.5224   22293676.4674
       226.0004        175.0004
  20178282.6564   -1336803.59749  -1039484.84048  20178282.6664   20178285.2324
       243.0004        217.0004
  20604832.4004   -4058088.95549  -3155975.13947  20604832.0224   20604837.5074
       240.0004        202.0004
  22471496.8084    2810995.46949   2182729.19646  22471497.9764   22471502.5714
       224.0004        172.0004
  22459463.0584   -6082072.43249  -4717597.46946  22459463.4674   22459470.4294
       222.0004        171.0004
  23182499.6254    3072834.76349   2180296.40246  23182498.9904   23182506.4174
       220.0004        164.0004
  22849820.4914   -5190951.88549  -4021983.55745  22849820.3794   22849827.0694
       217.0004        160.0004
  20622642.5824   -3844870.09049  -2973567.89047  20622643.0514   20622646.7154
       242.0004        211.0004
 07  2 17 16 49 20.0000000  0  8G30G 2G 5G 4G24G 9G10G12
  22290896.6214   -6041347.70349  -4690095.39146  22290897.3334   22290902.2224
       226.0004        175.0004
  20178743.7584   -1334380.43049  -1037596.66148  20178743.7764   20178746.3584
       243.0004        217.0004
  20603505.1284   -4065063.77649  -3161410.06747  20603505.0504   20603510.3604
       239.0004        202.0004
  22474407.8534    2826293.11049   2194649.42546  22474408.4814   22474413.2794
       224.0004        172.0004
  22456719.6614   -6096489.10649  -4728831.24246  22456719.8864   22456726.7994
       222.0004        171.0004
  23185539.4894    3088809.24049   2192744.04146  23185539.7554   23185546.5384
       218.0004        164.0004
  22846752.2344   -5207075.74649  -4034547.59545  22846752.0034   22846758.3364
       217.0004        160.0004
  20621423.6764   -3851275.52849  -2978559.13947  20621424.1254   20621427.6574
       241.0004        211.0004
 07  2 17 16 49 25.0000000  0  8G30G 2G 5G 4G24G 9G10G12
  22288123.8704   -6055918.66349  -4701449.39046  22288124.2534   22288129.8584
       225.0004        175.0004
  20179207.4034   -1331944.00749  -1035698.15048  20179207.3454   20179209.9774
       243.0004        217.0004
  20602180.3504   -4072025.56749  -3166834.84147  20602180.1174   20602185.5604
       239.0004        202.0004
  22477319.9474    2841596.21949   2206573.91646  22477320.6654   22477325.5654
       224.0004        172.0004
  22453977.9764   -6110896.75349  -4740057.98146  22453978.0444   22453985.4224
       223.0004        172.0004
  23188580.1854    3104788.06849   2205195.06046  23188580.8504   23188587.0234
       219.0004        164.0004
  22843684.9604   -5223194.38649  -4047107.56445  22843684.4664   22843691.6414
       216.0004        160.0004
  20620207.0284   -3857669.11049  -2983541.15247  20620207.3574   20620211.1854
       241.0004        211.0004
 07  2 17 16 49 30.0000000  0  8G30G 2G 5G 4G24G 9G10G12
  22285352.4644   -6070482.38749  -4712797.74346  22285353.4814   22285357.4364
       225.0004        175.0004
  20179673.5654   -1329494.30149  -1033789.28948  20179673.4334   20179676.1704
       243.0004        217.0004
  20600858.0614   -4078974.30849  -3172249.44547  20600857.6434   20600863.2014
       239.0004        202.0004
  22480233.1034    2856904.89249   2218502.74946  22480233.4184   22480237.9844
       224.0004        172.0004
  22451238.0424   -6125295.33249  -4751277.64746  22451237.3424   22451244.9704
       222.0004        172.0004
  23191621.6824    3120771.29949   2217649.51246  23191622.3944   23191628.3634
       219.0004        164.0004
  22840618.6874   -5239307.75849  -4059663.42845  22840618.0994   22840624.9134
       217.0004        160.0004
  20618992.6184   -3864050.79949  -2988513.89547  20618993.1084   20618996.6044
       242.0004        211.0004
 07  2 17 16 49 35.0000000  0  8G30G 2G 5G 4G24G 9G10G12
  22282582.4264   -6085039.01749  -4724140.56846  22282582.3194   22282587.8774
       225.0004        175.0004
  20180142.2364   -1327031.47049  -1031870.20348  20180142.2484   20180144.8194
       243.0004        217.0004
  20599538.2074   -4085910.13349  -3177653.98547  20599537.8374   20599543.2904
       239.0004        202.0004
  22483147.2394    2872218.78749   2230435.65046  22483147.5814   22483152.4574
       225.0004        172.0004
  22448499.7724   -6139685.01949  -4762490.39146  22448499.9674   22448506.6304
       222.0004        172.0004
  23194663.9834    3136758.63949   2230107.18046  23194664.3284   23194669.8654
       218.0004        164.0004
  22837553.3624   -5255416.01249  -4072215.30845  22837552.8414   22837559.6064
       217.0004        160.0004
  20617780.4504   -3870420.78849  -2993477.52947  20617780.8674   20617784.6254
       242.0004        212.0004
 07  2 17 16 49 40.0000000  0  8G30G 2G 5G 4G24G 9G10G12
  22279813.6954   -6099588.69949  -4735477.98146  22279813.4964   22279819.1744
       225.0004        175.0004
  20180613.3634   -1324555.66949  -1029941.00648  20180613.4624   20180615.9214
       243.0004        217.0004
  20598220.7984   -4092833.21249  -3183048.59047  20598220.6694   20598225.7374
       240.0004        202.0004
  22486062.3544    2887537.85149   2242372.57646  22486062.9434   22486068.4834
       224.0004        172.0004
  22445763.1874   -6154065.92649  -4773696.27746  22445763.3414   22445770.0634
       223.0004        172.0004
  23197707.0544    3152750.03149   2242567.98746  23197707.3414   23197714.2904
       218.0004        164.0004
  22834489.0094   -5271519.27949  -4084763.29645  22834487.8234   22834495.7594
       216.0004        159.0004
  20616570.5004   -3876779.17149  -2998432.10947  20616570.9054   20616574.6364
       241.0004        212.0004
 07  2 17 16 49 45.0000000  0  8G30G 2G 5G 4G24G 9G10G12
  22277046.3504   -6114131.17449  -4746809.77746  22277046.0824   22277051.3304
       225.0004        175.0004
  20181087.0064   -1322066.67449  -1028001.53548  20181086.9544   20181089.6254
       243.0004        217.0004
  20596905.8634   -4099743.27149  -3188433.05547  20596905.7194   20596910.9944
       239.0004        202.0004
  22488978.4904    2902862.18949   2254313.61646  22488978.7844   22488984.6264
       224.0004        172.0004
  22443028.3024   -6168437.80149  -4784895.14746  22443028.3954   22443035.4634
       223.0004        172.0004
  23200750.9414    3168745.67749   2255032.12146  23200751.1044   23200757.8974
       218.0004        164.0004
  22831425.6404   -5287617.30049  -4097307.19445  22831424.4544   22831432.1704
       216.0004        159.0004
  20615362.7864   -3883125.76249  -3003377.50747  20615363.2514   20615366.9144
       241.0004        212.0004
 07  2 17 16 49 50.0000000  0  8G30G 2G 5G 4G24G 9G10G12
  22274280.3804   -6128666.41749  -4758135.94246  22274280.6764   22274286.6734
       225.0004        175.0004
  20181563.1534   -1319564.48549  -1026051.77548  20181563.1454   20181565.7674
       243.0004        217.0004
  20595593.3944   -4106640.29149  -3193807.35447  20595592.9584   20595598.4954
       240.0004        202.0004
  22491895.6284    2918191.89549   2266258.83846  22491895.8254   22491900.8874
       224.0004        172.0004
  22440295.1604   -6182800.67549  -4796086.99646  22440295.1874   22440302.4274
       223.0004        172.0004
  23203795.5844    3184745.54249   2267499.53046  23203795.1974   23203802.7244
       219.0004        164.0004
  22828363.2884   -5303710.02549  -4109846.97245  22828363.0934   22828369.4224
       217.0004        159.0004
  20614157.3194   -3889460.51849  -3008313.68047  20614157.6964   20614161.6144
       241.0004        212.0004
 07  2 17 16 49 55.0000000  0  8G30G 2G 5G 4G24G 9G10G12
  22271515.7944   -6143194.48949  -4769456.51446  22271516.0804   22271520.9074
       225.0004        175.0004
  20182041.8024   -1317049.18949  -1024091.80848  20182041.7334   20182044.3064
       243.0004        217.0004
  20594283.4224   -4113524.34649  -3199171.55447  20594283.3744   20594288.7414
       240.0004        202.0004
  22494813.7794    2933526.94649   2278208.21746  22494814.0344   22494819.4084
       224.0004        171.0004
  22437563.6984   -6197154.60549  -4807271.87946  22437563.6284   22437570.5294
       223.0004        172.0004
  23206841.0584    3200749.55149   2279970.17846  23206841.4184   23206847.6284
       219.0004        164.0004
  22825301.8894   -5319797.57549  -4122382.71445  22825302.2124   22825308.7644
       218.0004        159.0004
  20612954.0894   -3895783.49449  -3013240.67647  20612954.4494   20612958.3794
       242.0004        212.0004
 07  2 17 16 50  0.0000000  0  8G30G 2G 5G 4G24G 9G10G12
  22268752.5664   -6157715.35449  -4780771.46046  22268753.0734   22268758.4274
       226.0004        175.0004
  20182522.9574   -1314520.73649  -1022121.58748  20182522.9304   20182525.5844
       243.0004        217.0004
  20592975.9134   -4120395.36549  -3204525.59547  20592975.8594   20592980.9854
       240.0004        202.0004
  22497732.9344    2948867.28049   2290161.71946  22497733.7734   22497738.6564
       224.0004        171.0004
  22434833.9564   -6211499.52049  -4818449.72646  22434833.7484   22434841.3054
       223.0004        172.0004
  23209887.2894    3216757.71349   2292444.06246  23209887.9394   23209894.6624
       220.0004        164.0004
  22822241.5424   -5335879.86049  -4134914.35245  22822240.8214   22822247.0804
       219.0004        159.0004
  20611753.1434   -3902094.60649  -3018158.42547  20611753.5704   20611757.4244
       242.0004        212.0004
 07  2 17 16 50  5.0000000  0  8G30G 2G 5G 4G24G 9G10G12
  22265990.7044   -6172229.04349  -4792080.83746  22265991.4454   22265995.9914
       226.0004        175.0004
  20183006.6024   -1311979.20349  -1020141.17248  20183006.5554   20183009.2564
       243.0004        217.0004
  20591670.8604   -4127253.46949  -3209869.57347  20591670.7134   20591676.0474
       240.0004        202.0004
  22500653.0964    2964212.86249   2302119.30946  22500653.4224   22500658.6554
       224.0004        171.0004
  22432105.8964   -6225835.49649  -4829620.61946  22432105.9364   22432113.2704
       223.0004        172.0004
  23212934.3384    3232769.93249   2304921.10146  23212935.1794   23212940.8154
       218.0004        164.0004
  22819182.1534   -5351956.95149  -4147441.94445  22819180.9604   22819189.0634
       216.0004        159.0004
  20610554.4064   -3908393.95749  -3023067.00947  20610554.8504   20610558.6754
       242.0004        212.0004
 07  2 17 16 50 10.0000000  0  8G30G 2G 5G 4G24G 9G10G12
  22263230.2184   -6186735.53849  -4803384.59546  22263230.6864   22263236.2964
       226.0004        175.0004
  20183492.7164   -1309424.60549  -1018150.57748  20183492.6994   20183495.3804
       243.0004        217.0004
  20590368.2834   -4134098.59849  -3215203.44047  20590367.9654   20590373.3644
       240.0004        202.0004
  22503574.2444    2979563.63949   2314080.95046  22503574.6894   22503580.3864
       224.0004        171.0004
  22429379.5524   -6240162.51149  -4840784.51846  22429379.9834   22429386.4734
       223.0004        172.0004
  23215982.1744    3248786.26049   2317401.35246  23215982.9294   23215988.3754
       218.0004        164.0004
  22816123.7824   -5368028.79849  -4159965.44445  22816122.8674   22816130.0494
       216.0004        159.0004
  20609357.9154   -3914681.53649  -3027966.42347  20609358.2584   20609362.0564
       241.0004        212.0004
 07  2 17 16 50 15.0000000  0  8G30G 2G 5G 4G24G 9G10G12
  22260471.1534   -6201234.48849  -4814682.47446  22260471.6364   22260476.4404
       225.0004        175.0004
  20183981.4144   -1306856.58749  -1016149.52848  20183981.3304   20183984.1744
       243.0004        217.0004
  20589068.2374   -4140930.37349  -3220526.90347  20589068.1854   20589073.2394
       240.0004        202.0004
  22506496.4474    2994919.99949   2326046.93446  22506497.0064   22506502.7184
       223.0004        172.0004
  22426654.9834   -6254480.21249  -4851941.16446  22426654.6304   22426662.1544
       223.0004        172.0004
  23219030.8264    3264807.03449   2329885.05646  23219031.1294   23219037.9334
       218.0004        164.0004
  22813066.4714   -5384095.05849  -4172484.58845  22813066.2734   22813073.0784
       218.0004        159.0004
  20608163.7534   -3920956.98449  -3032856.38247  20608164.2154   20608167.8674
       242.0004        212.0004
 07  2 17 16 50 20.0000000  0  8G30G 2G 5G 4G24G 9G10G12
  22257713.3184   -6215727.01249  -4825975.35446  22257713.3364   22257719.0794
       226.0004        175.0004
  20184472.4414   -1304276.23549  -1014138.86448  20184472.4214   20184475.2734
       243.0004        217.0004
  20587770.5304   -4147749.93449  -3225840.84247  20587770.2334   20587775.7394
       239.0004        202.0004
  22509419.4774    3010280.75049   2338016.34746  22509420.2834   22509424.7724
       225.0004        172.0004
  22423931.9964   -6268789.70349  -4863091.41246  22423931.8854   22423939.2914
       223.0004        172.0004
  23222080.1574    3280831.11449   2342371.35146  23222080.8584   23222087.0774
       219.0004        164.0004
  22810010.0414   -5400156.78649  -4185000.21145  22810009.7394   22810016.5324
       217.0004        159.0004
  20606971.6684   -3927221.37649  -3037737.72647  20606972.1804   20606975.7994
       242.0004        212.0004
 07  2 17 16 50 25.0000000  0  8G30G 2G 5G 4G24G 9G10G12
  22254956.8604   -6230212.18449  -4837262.49946  22254957.9134   22254962.7564
       225.0004        175.0004
  20184965.9674   -1301682.66549  -1012117.90248  20184965.9094   20184968.7384
       243.0004        217.0004
  20586475.3284   -4154556.33149  -3231144.53147  20586475.1304   20586480.3854
       239.0004        202.0004
  22512343.5464    3025646.90349   2349989.96646  22512343.4994   22512349.1624
       225.0004        172.0004
  22421210.7264   -6283090.05849  -4874234.54946  22421211.2384   22421217.4654
       223.0004        172.0004
  23225130.2534    3296859.39349   2354860.90746  23225130.4674   23225136.7884
       219.0004        164.0004
  22806954.6254   -5416213.07949  -4197511.60245  22806953.4754   22806960.6904
       216.0004        160.0004
  20605781.8774   -3933473.78049  -3042609.73247  20605782.4844   20605785.9334
       242.0004        212.0004
 07  2 17 16 50 30.0000000  0  8G30G 2G 5G 4G24G 9G10G12
  22252201.9384   -6244689.51349  -4848543.52546  22252202.7914   22252207.7114
       226.0004        176.0004
  20185462.1294   -1299075.37749  -1010086.25148  20185462.0654   20185464.8294
       243.0004        217.0004
  20585182.7374   -4161349.05249  -3236437.55947  20585182.4254   20585187.9454
       240.0004        202.0004
  22515268.7424    3041018.87849   2361968.12946  22515269.3534   22515274.6644
       224.0004        172.0004
  22418491.3024   -6297380.76849  -4885370.16146  22418490.9224   22418498.3424
       222.0004        172.0004
  23228181.2384    3312892.32449   2367354.07746  23228181.3954   23228188.0884
       218.0004        164.0004
  22803900.3524   -5432263.44249  -4210018.36545  22803898.7694   22803907.4994
       216.0004        160.0004
  20604594.4504   -3939713.69949  -3047472.00647  20604594.8864   20604598.6704
       242.0004        212.0004
 07  2 17 16 50 35.0000000  0  8G30G 2G 5G 4G24G 9G10G12
  22249448.2264   -6259160.30749  -4859819.46946  22249449.0774   22249453.0224
       226.0004        176.0004
  20185960.6264   -1296455.73649  -1008044.97248  20185960.4704   20185963.4194
       243.0004        217.0004
  20583892.4644   -4168129.44149  -3241720.98347  20583892.4184   20583897.3814
       240.0004        202.0004
  22518194.7774    3056395.34949   2373949.77946  22518195.4484   22518200.6084
       224.0004        172.0004
  22415773.4464   -6311663.18849  -4896499.32246  22415773.7234   22415779.8024
       223.0004        172.0004
  23231232.8424    3328928.55949   2379849.84646  23231233.5824   23231239.2954
       218.0004        164.0004
  22800846.9364   -5448309.16349  -4222521.50745  22800846.0134   22800853.7944
       216.0004        160.0004
  20603409.1584   -3945942.48549  -3052325.60847  20603409.5964   20603413.3014
       242.0004        212.0004
 07  2 17 16 50 40.0000000  0  8G30G 2G 5G 4G24G 9G10G12
  22246695.9454   -6273623.65949  -4871089.61146  22246696.6524   22246701.2114
       227.0004        176.0004
  20186461.6604   -1293822.83149  -1005993.35848  20186461.5434   20186464.3524
       243.0004        217.0004
  20582604.7314   -4174896.60549  -3246994.09447  20582604.5994   20582609.8934
       240.0004        202.0004
  22521121.8684    3071777.18749   2385935.63046  22521122.5314   22521127.8954
       224.0004        172.0004
  22413057.3364   -6325936.41849  -4907621.31646  22413057.6034   22413063.8954
       224.0004        172.0004
  23234285.2314    3344968.93949   2392348.82446  23234285.3194   23234291.3084
       217.0004        164.0004
  22797794.5954   -5464349.36849  -4235020.35145  22797794.2754   22797801.5484
       216.0004        160.0004
  20602226.1784   -3952159.24749  -3057169.83447  20602226.6154   20602230.3834
       241.0004        212.0004
 07  2 17 16 50 45.0000000  0  8G30G 2G 5G 4G24G 9G10G12
  22243945.1194   -6288079.38549  -4882353.81646  22243945.8474   22243950.3264
       225.0004        176.0004
  20186965.2064   -1291176.53649  -1003931.31348  20186965.1354   20186967.9534
       243.0004        217.0004
  20581319.5334   -4181650.40449  -3252256.79947  20581319.1494   20581324.6334
       240.0004        202.0004
  22524049.9714    3087164.44949   2397925.69246  22524050.3344   22524055.6574
       224.0004        172.0004
  22410343.0074   -6340200.31949  -4918736.04446  22410342.7734   22410350.0864
       223.0004        172.0004
  23237338.4494    3361013.64049   2404851.17046  23237338.3154   23237344.3234
       218.0004        164.0004
  22794743.3154   -5480383.89049  -4247514.76845  22794742.6284   22794749.5104
       218.0004        160.0004
  20601045.4974   -3958363.83149  -3062004.57947  20601045.8534   20601049.6814
       242.0004        212.0004
